GFSMW_850_spd_000.txt.gz
Wind_Speed
12 8 7 6 7 8 12 12 11 6 3 4 13 6 4 9 10 9 14 16 18 21 19 22 23 25 21 21 20 20 21 24 27 30 31 32 30 27 27 20 20 26 26
23 18 16 13 11 12 12 14 11 11 7 7 1 5 8 8 9 13 15 17 18 18 19 20 20 17 17 20 22 24 23 26 28 28 28 15 21 12 16 23 25 24 28
22 20 19 17 17 17 16 16 14 12 10 9 7 9 9 9 12 15 16 18 19 17 18 17 15 20 29 31 31 28 27 27 25 23 15 9 6 23 21 25 28 23 27
21 22 19 19 17 17 14 11 10 7 4 5 7 10 11 11 13 15 17 17 16 16 17 20 29 35 35 30 22 25 27 27 26 20 17 13 16 14 19 20 30 34 34
20 22 18 15 15 14 11 8 6 4 5 8 9 13 14 13 14 15 16 15 19 25 28 29 30 27 23 24 23 25 26 25 21 21 22 23 19 14 14 25 24 25 30
19 20 16 12 9 9 7 4 1 4 7 9 10 11 11 11 12 14 16 21 23 23 28 26 25 24 19 18 20 23 23 21 19 17 15 15 17 18 16 17 21 23 30
20 19 16 12 9 7 3 2 1 3 3 6 8 7 9 12 14 15 18 22 23 24 24 23 22 14 12 11 14 19 22 19 17 15 14 17 18 18 17 19 21 26 34
18 15 14 12 9 8 7 3 1 5 8 7 7 9 12 16 19 21 24 27 27 26 24 22 20 22 23 27 14 14 18 16 17 16 17 15 15 16 18 20 23 31 29
17 17 15 13 11 8 4 2 7 9 7 9 11 15 20 23 25 28 31 32 31 26 21 16 17 21 22 8 12 16 15 15 15 17 18 20 19 17 17 19 21 25 33
20 19 16 13 9 4 3 8 9 9 9 12 17 22 26 28 30 33 33 31 27 19 16 13 21 19 22 15 11 12 14 16 17 18 20 21 20 20 22 26 28 29 32
23 19 14 10 5 1 4 11 7 6 11 17 21 24 26 30 30 32 32 29 19 15 18 22 25 16 15 9 11 14 16 19 20 24 23 21 22 27 31 33 31 30 30
20 15 10 6 4 2 3 4 4 10 15 20 22 23 26 29 31 32 29 24 16 15 16 18 23 19 9 9 13 17 18 22 23 23 22 26 31 34 32 28 28 28 28
17 12 9 8 6 2 1 5 9 13 16 20 21 23 27 30 31 31 28 22 13 13 20 21 14 6 8 13 15 19 22 24 25 26 29 33 33 31 28 27 28 30 25
13 11 11 11 6 2 13 8 11 14 17 19 20 22 26 30 32 30 26 21 17 18 13 11 9 9 13 15 19 23 24 24 25 29 32 32 31 30 28 27 28 25 27
14 12 11 9 6 12 7 10 13 15 17 19 20 22 27 31 30 28 26 20 16 13 12 10 10 13 17 17 21 23 24 26 31 32 31 30 30 26 26 27 28 30 28
13 13 12 9 11 10 10 13 14 16 19 21 22 22 28 28 28 29 23 14 10 12 12 11 13 18 19 19 20 24 27 30 33 31 31 31 29 28 25 30 25 22 24
14 15 14 9 10 13 12 13 16 18 21 23 20 24 27 26 29 24 18 13 11 13 15 16 19 20 15 20 24 25 29 30 28 28 29 28 26 24 23 20 18 21 20
14 15 13 12 14 13 13 15 18 21 23 21 22 25 23 27 28 22 16 15 14 17 17 17 14 12 20 23 24 28 27 26 26 24 21 22 21 19 17 23 23 20 19
13 12 10 12 13 13 14 17 21 22 19 22 24 23 22 27 25 20 16 16 17 18 16 13 13 22 18 22 26 25 24 24 23 20 19 19 19 18 19 22 23 20 18
14 13 13 15 15 13 15 19 21 20 24 21 22 22 23 25 23 17 15 13 16 15 15 15 15 15 19 22 22 21 22 23 22 19 19 17 18 18 18 19 21 19 20
15 13 15 14 12 14 18 20 22 22 21 22 23 23 23 24 20 17 15 16 17 14 12 13 13 17 20 20 19 19 20 20 22 20 20 18 18 19 17 16 16 18 20
14 14 12 10 12 16 19 22 23 22 23 25 27 25 24 22 19 18 17 17 14 13 10 12 16 17 17 17 17 18 18 18 19 19 19 18 19 20 19 15 14 16 16
13 9 8 11 15 17 20 23 22 24 26 27 26 26 22 19 18 16 16 15 13 11 13 18 18 15 14 15 17 16 16 18 19 18 17 18 20 20 18 14 14 15 15
6 9 11 15 17 19 20 21 23 26 28 27 24 23 18 15 17 13 14 12 10 13 18 18 15 12 12 13 16 16 16 18 18 19 16 15 17 18 17 16 13 13 13
9 10 13 16 18 20 21 22 25 28 27 25 23 18 16 17 20 14 10 10 12 17 18 14 12 11 11 12 14 15 15 17 18 17 16 15 16 18 19 18 16 14 12
9 12 14 17 19 21 23 25 26 23 24 25 20 18 16 16 19 12 12 11 14 19 15 12 12 11 11 11 12 12 14 16 16 16 16 17 18 19 19 20 19 17 13

GFSMW_850_spd_003.txt.gz
Wind_Speed
11 10 10 9 9 9 9 7 7 8 3 4 4 4 5 8 11 8 11 13 16 18 21 18 18 18 17 18 18 21 24 27 28 27 21 23 24 21 22 26 21 20 23
17 15 15 17 14 14 11 12 13 10 8 7 3 6 5 2 6 11 14 16 17 19 19 18 17 18 22 25 28 28 26 23 25 22 16 17 16 15 19 16 18 23 26
27 26 24 24 25 23 20 17 14 12 9 8 5 1 4 6 10 13 15 16 18 17 17 18 21 25 28 28 24 20 17 16 21 23 12 11 11 18 12 18 17 19 23
27 27 28 29 28 24 21 19 18 14 10 5 2 4 6 8 11 13 14 15 16 18 20 23 27 27 25 20 19 18 17 18 14 15 11 15 15 16 19 17 21 20 21
26 27 27 26 26 24 20 17 12 8 5 4 4 5 6 7 8 9 11 15 19 21 25 27 27 24 21 18 17 15 15 18 20 20 16 12 12 13 14 23 21 21 18
25 25 24 25 23 20 17 14 10 9 6 4 4 6 7 9 12 15 18 20 23 26 27 28 25 24 23 21 19 18 21 20 21 16 10 10 12 14 13 16 21 24 22
24 22 22 21 20 18 15 12 9 5 2 3 7 9 11 13 16 20 23 25 28 29 28 24 22 20 19 15 14 13 12 16 13 12 10 12 12 12 12 13 19 24 27
23 20 18 18 18 18 15 12 7 2 3 6 9 9 11 16 20 24 26 27 27 27 25 22 18 17 15 15 22 15 16 12 13 14 14 15 16 18 18 17 18 27 30
22 19 17 18 19 17 13 7 1 5 3 5 8 13 18 23 26 28 29 29 27 25 21 16 14 17 15 24 15 11 10 13 15 18 17 20 20 20 19 19 17 22 32
21 20 21 20 17 13 10 5 2 4 7 8 13 18 22 26 28 29 29 29 27 22 16 13 12 15 24 17 8 8 10 14 17 19 20 21 21 19 20 20 21 21 24
24 25 22 18 14 11 6 3 9 8 7 11 16 19 23 26 26 28 27 25 21 15 12 12 15 19 21 11 10 9 12 15 19 21 20 20 20 19 21 20 20 21 22
26 23 19 16 13 8 3 5 6 8 10 13 17 19 22 22 26 27 26 23 20 13 10 13 19 22 17 8 11 11 13 19 20 20 20 18 20 21 22 21 22 22 23
25 23 19 16 11 6 3 9 9 8 10 14 16 18 18 22 27 28 26 24 22 18 15 20 18 11 8 11 14 14 17 23 20 21 25 27 26 24 23 24 24 21 21
25 22 19 15 11 6 9 12 4 7 11 15 17 17 18 23 28 27 27 25 21 18 14 13 12 12 11 14 15 16 22 24 23 26 30 32 27 22 22 22 21 21 21
25 21 18 16 13 7 8 5 7 9 13 16 18 19 19 24 28 26 27 23 17 13 12 13 11 11 14 16 19 19 23 25 28 31 31 28 28 26 22 21 21 23 24
25 21 19 16 19 9 8 8 8 12 16 18 21 20 21 26 26 27 26 20 14 12 13 15 16 17 18 21 15 22 24 28 32 30 29 28 26 19 22 21 19 16 19
25 22 19 18 15 11 12 10 11 14 18 21 22 21 23 26 24 26 24 19 16 15 17 18 16 19 15 14 23 22 27 30 28 27 26 22 19 17 16 17 19 21 20
24 21 18 17 13 14 14 12 14 17 21 22 21 21 24 24 24 24 21 18 16 17 18 20 17 17 17 22 21 26 27 25 24 24 21 19 16 15 17 19 20 18 17
21 16 13 12 13 15 15 16 16 19 22 23 23 23 23 23 22 23 19 17 15 15 16 16 17 15 17 19 24 25 23 22 22 20 17 18 16 16 17 19 19 18 17
18 15 15 14 15 17 16 15 17 21 23 24 23 22 22 22 22 23 20 17 16 18 18 16 15 16 16 21 24 22 21 20 20 18 18 18 17 16 18 17 17 17 18
17 16 12 17 15 15 13 15 19 22 23 22 21 23 24 25 25 25 20 18 17 17 16 14 15 16 20 22 21 19 18 18 18 18 18 16 18 18 18 17 13 15 21
18 15 18 15 12 10 13 17 20 21 21 21 24 27 28 26 27 23 19 17 16 16 14 13 14 19 20 20 18 17 16 16 17 17 17 16 18 19 19 18 17 16 17
16 16 11 8 9 12 14 17 18 19 20 24 28 29 27 26 21 17 17 14 15 13 12 14 20 20 19 17 16 16 15 14 15 16 17 16 17 19 19 19 18 17 16
17 8 7 9 10 11 14 16 17 19 23 28 29 28 26 20 14 13 13 14 13 10 12 18 19 17 15 15 15 16 15 15 15 16 16 16 16 16 17 18 18 16 15
6 7 10 10 9 12 14 14 17 21 24 24 25 24 18 16 14 15 17 14 10 11 14 18 15 14 15 15 14 15 15 15 16 16 16 16 16 17 17 17 18 18 15
9 11 9 8 10 12 13 15 19 22 19 21 21 18 18 16 13 15 16 14 13 15 15 17 15 14 15 15 14 14 13 14 16 16 16 16 16 17 18 18 18 18 17

GFSMW_850_spd_006.txt.gz
Wind_Speed
11 13 15 15 18 19 17 12 8 6 5 6 6 5 2 5 8 5 6 9 11 12 13 9 11 12 12 14 16 16 18 20 18 21 23 23 23 17 19 17 18 18 16
13 13 14 16 18 17 15 13 10 8 9 7 5 4 4 5 5 8 11 13 15 14 12 15 14 14 16 17 16 16 18 18 16 17 21 23 23 20 13 19 20 19 20
16 16 17 18 18 18 16 14 14 13 10 9 5 5 3 4 3 5 6 11 15 16 17 17 18 19 18 18 16 14 13 13 14 15 17 21 23 26 24 19 22 20 22
18 19 20 19 18 17 16 17 16 13 13 11 8 6 1 2 7 8 8 11 16 21 23 20 24 23 20 18 14 12 12 10 15 18 18 18 19 23 27 23 24 23 21
19 19 19 20 19 21 19 19 19 17 14 10 4 2 1 4 6 8 13 15 17 18 19 21 20 20 19 16 12 10 8 11 14 20 19 18 18 18 20 25 23 22 20
19 20 19 19 18 17 21 20 17 15 11 6 4 3 8 10 10 13 15 16 18 19 19 19 20 19 16 13 9 7 10 13 15 12 12 13 15 17 18 21 23 24 23
22 22 21 20 18 18 19 16 14 11 8 3 3 8 11 11 10 14 14 19 18 19 19 20 18 14 13 9 8 8 18 11 12 11 12 14 15 16 18 21 24 26 27
22 21 21 19 18 19 17 16 13 8 4 1 5 8 8 10 11 16 19 16 17 18 20 18 12 8 7 7 11 13 13 12 11 12 14 17 18 18 19 20 22 29 32
24 22 20 19 19 19 18 15 12 6 3 3 8 6 9 15 18 19 19 18 18 18 17 14 7 7 7 13 12 14 12 10 12 15 17 18 19 19 18 18 20 25 34
23 21 19 18 19 19 19 15 9 6 4 7 4 6 10 15 19 21 20 20 20 18 15 11 9 10 11 14 17 13 11 11 13 16 18 19 18 18 18 20 23 25 29
24 22 20 19 20 19 18 12 9 3 3 3 3 6 11 17 20 18 19 19 20 16 13 11 13 14 18 19 16 11 13 13 15 18 20 20 19 20 22 24 25 27 28
23 23 22 22 21 21 18 12 7 5 7 4 4 9 15 18 16 15 17 18 18 16 13 12 15 18 20 16 10 12 14 17 19 20 20 21 22 24 25 25 26 28 28
23 23 23 23 22 21 17 9 9 8 5 4 7 12 14 15 12 15 17 17 16 15 13 13 14 14 12 11 12 14 15 16 17 19 20 23 24 25 24 25 26 26 24
25 24 24 24 22 20 14 13 10 6 6 7 9 10 14 13 14 16 16 17 16 14 12 12 13 12 11 11 12 12 13 14 17 19 21 23 22 22 22 23 23 22 22
25 27 26 24 23 21 17 11 10 8 8 9 9 10 15 14 13 15 17 19 16 13 13 11 11 11 11 15 16 20 14 17 18 19 19 18 20 28 23 18 19 20 21
25 26 25 24 23 22 16 14 11 9 9 11 12 14 15 16 15 15 17 17 15 14 14 15 13 11 10 19 18 14 17 16 18 18 18 17 18 15 20 19 20 18 19
25 26 26 24 22 22 17 14 12 11 11 12 15 18 18 16 15 16 16 17 15 14 15 16 13 13 9 16 16 19 19 20 16 16 16 16 15 18 16 18 20 21 20
25 24 22 21 21 20 16 14 14 13 13 15 18 17 14 15 16 16 16 16 15 15 14 13 12 10 12 16 18 18 22 18 15 15 15 14 15 15 20 18 20 19 19
21 21 19 17 18 20 17 17 17 14 15 17 14 14 14 15 17 17 17 17 16 14 14 13 10 11 11 17 18 21 23 19 17 14 12 15 14 16 18 18 19 19 18
19 20 18 19 21 20 15 21 15 14 16 15 15 14 13 15 17 18 18 18 17 15 12 13 16 16 15 17 20 22 20 17 15 12 12 16 18 20 18 17 17 18 18
19 20 22 22 19 16 20 19 15 15 16 18 16 14 15 17 18 18 18 18 16 14 16 16 16 15 15 19 21 20 18 16 15 13 13 12 18 19 19 19 15 19 20
17 18 18 20 18 15 14 11 11 13 17 16 16 16 18 18 18 17 18 15 12 11 16 15 14 13 19 20 19 16 16 16 16 15 13 17 18 18 19 17 19 19 16
15 17 20 14 12 11 13 11 12 16 16 16 17 18 17 17 16 14 11 12 11 10 10 9 10 13 15 12 14 15 15 15 15 14 15 16 16 17 16 18 18 17 13
14 15 16 12 7 8 16 14 14 14 15 17 18 15 16 19 12 10 10 11 11 11 9 9 12 14 13 12 10 10 10 13 11 14 16 15 15 16 17 15 13 13 14
19 13 11 4 6 13 13 14 12 14 17 17 16 15 15 14 13 9 11 12 12 12 10 10 11 13 12 12 13 13 12 11 12 16 13 12 13 12 12 12 12 12 13
11 7 5 5 11 13 12 13 15 16 15 16 15 12 12 12 11 10 11 13 14 16 18 17 16 17 15 14 14 14 14 15 15 15 11 12 12 13 13 13 13 12 13

GFSMW_850_spd_009.txt.gz
Wind_Speed
15 15 16 17 17 17 17 15 12 9 6 5 5 6 4 4 4 2 1 5 6 6 10 7 10 14 15 16 18 21 21 21 22 23 23 21 22 19 19 18 12 15 18
15 15 16 17 18 17 16 15 12 9 9 7 7 6 4 4 4 1 9 6 7 7 9 12 14 15 17 19 20 19 21 19 18 19 21 24 25 19 19 23 24 24 19
17 16 17 18 18 17 16 14 12 13 12 10 5 4 3 2 1 3 4 7 9 10 13 15 17 18 19 20 21 19 17 18 17 16 19 25 23 27 25 24 25 26 24
17 17 17 18 19 18 16 15 15 13 9 9 8 7 4 1 1 3 6 9 11 13 15 17 19 19 19 20 19 16 14 17 17 18 18 20 23 28 31 24 22 21 23
19 20 21 20 19 18 17 17 15 11 11 10 8 5 4 3 2 4 8 10 12 14 15 16 18 18 18 18 17 16 16 15 17 18 19 18 20 21 24 29 26 23 23
21 21 21 22 20 19 18 17 15 13 11 10 9 7 2 2 2 6 8 10 12 13 14 15 17 17 16 15 15 13 13 13 15 15 15 16 20 21 22 24 25 27 25
22 24 24 22 21 19 18 17 15 13 12 10 8 4 4 4 5 7 8 10 11 12 14 17 16 15 13 12 13 13 19 16 13 14 14 15 17 18 20 22 26 28 27
24 25 24 22 20 19 18 17 16 15 13 11 8 1 1 4 3 7 8 9 11 13 15 15 15 12 11 13 12 15 13 13 14 12 14 14 17 18 20 21 24 28 30
26 26 23 22 20 19 20 19 18 16 14 11 5 9 3 5 5 5 8 9 11 13 13 13 13 12 12 13 14 15 16 17 13 12 15 15 17 19 20 21 22 24 30
25 25 24 22 21 21 21 20 20 17 14 5 5 5 3 1 3 6 9 10 11 12 13 13 12 14 13 17 17 19 17 14 12 15 15 17 18 19 20 22 23 25 30
26 25 24 23 23 22 23 22 20 18 11 7 9 6 5 4 5 6 8 10 12 12 13 13 13 13 16 18 19 19 17 15 14 15 16 18 19 21 22 24 26 28 29
26 25 24 24 24 25 24 24 21 16 12 12 8 8 7 6 7 8 9 11 12 13 13 13 13 15 17 17 16 14 14 16 16 17 18 20 22 23 24 25 26 27 28
26 26 26 26 26 26 26 25 20 16 15 11 10 9 9 8 9 9 10 11 12 13 12 12 14 15 15 14 14 14 15 15 14 15 17 19 22 25 25 23 24 26 27
26 27 27 27 27 27 27 24 19 17 16 14 12 11 11 10 11 11 11 12 13 13 12 12 14 14 13 13 13 14 15 16 19 17 20 22 21 20 20 22 20 20 22
25 28 27 27 27 27 27 23 19 18 17 14 12 11 11 11 12 13 13 13 13 12 12 13 14 12 12 12 13 15 15 14 17 19 20 19 21 27 26 22 18 17 18
24 26 27 27 28 28 28 23 20 19 17 14 12 11 11 12 14 14 14 14 14 13 13 14 15 14 13 16 14 14 15 14 16 19 18 17 17 16 22 18 17 23 20
21 25 27 28 28 28 26 23 21 18 17 13 11 11 11 12 14 14 16 15 15 14 14 14 14 13 14 16 15 15 17 14 17 16 15 15 14 17 15 16 20 19 21
18 22 24 25 25 25 25 22 20 18 15 12 10 11 12 13 15 16 17 17 17 16 15 14 14 12 15 17 19 16 17 14 15 14 13 13 13 15 21 23 18 18 18
15 18 20 21 23 25 24 22 19 16 12 12 12 11 12 14 16 17 17 18 17 17 17 15 13 12 15 20 18 17 18 14 13 12 12 13 13 16 20 22 19 19 18
14 17 18 20 22 23 24 22 21 15 11 12 11 13 13 15 16 17 18 18 18 18 17 15 12 12 14 21 17 16 19 15 12 11 11 14 19 21 21 22 21 18 19
14 14 17 19 19 19 20 17 12 9 9 9 14 12 13 16 17 18 17 18 18 17 14 15 13 11 14 14 17 18 17 14 14 11 10 10 19 19 20 20 19 18 26
13 11 12 10 11 12 12 10 8 6 11 15 11 12 14 15 15 16 17 18 17 14 12 14 11 10 11 16 19 18 14 15 15 14 11 14 17 18 18 18 17 21 17
6 6 10 14 14 9 7 5 3 8 15 18 13 13 14 15 15 16 14 14 13 12 11 11 12 9 11 14 16 17 16 15 13 13 13 16 16 16 16 14 18 19 15
4 8 11 14 11 9 3 2 7 14 18 15 14 15 16 16 21 13 11 14 13 12 12 12 11 10 9 11 14 16 14 14 16 12 15 19 13 15 17 16 13 14 15
9 10 10 9 7 6 2 7 13 15 15 17 16 15 16 14 14 14 13 14 13 14 14 14 13 13 17 11 15 16 14 13 14 18 18 11 12 12 12 12 13 13 13
11 9 8 8 6 3 7 13 15 16 15 15 14 14 14 14 14 15 17 15 15 16 21 21 22 22 20 18 16 15 16 15 16 17 12 12 13 13 12 12 13 13 13

GFSMW_850_spd_012.txt.gz
Wind_Speed
16 18 19 20 21 20 20 17 17 15 12 8 9 11 11 8 5 3 3 2 4 7 11 5 9 10 12 15 19 19 18 18 22 21 18 19 21 15 18 17 17 18 17
22 19 19 22 22 22 20 18 16 10 10 12 15 14 12 12 4 6 7 7 9 8 6 12 14 14 17 17 16 19 22 20 16 17 20 21 22 15 19 21 24 24 22
23 19 20 20 21 24 23 18 17 13 15 17 15 15 9 3 9 8 2 3 9 9 8 10 13 16 17 17 19 20 18 16 14 14 16 22 16 24 19 20 20 21 20
22 21 20 21 23 22 20 19 18 21 19 12 14 13 12 16 11 6 6 7 7 11 13 14 16 18 18 19 17 15 19 20 14 14 14 18 20 24 27 15 19 21 20
22 24 23 24 24 22 22 21 23 18 16 17 17 16 11 9 6 7 7 7 11 11 12 13 17 18 17 15 16 15 17 17 16 14 16 16 16 17 21 26 21 23 22
22 22 25 22 24 24 23 25 21 17 17 20 20 19 16 12 8 6 7 11 9 12 12 16 17 16 13 12 13 17 16 16 19 22 20 14 16 17 19 22 25 25 24
22 25 27 28 29 27 27 25 20 20 19 20 19 17 11 4 5 6 10 11 10 11 13 17 15 14 9 14 16 18 20 22 20 16 12 12 16 16 18 21 27 25 28
21 22 25 25 24 25 24 22 23 20 19 19 17 11 6 6 8 10 11 9 10 11 14 14 13 10 13 15 18 15 14 14 15 16 9 15 14 15 17 20 22 29 30
21 24 26 25 26 24 24 25 24 22 21 19 16 10 6 7 9 8 8 8 11 11 11 14 10 9 16 16 17 17 15 19 17 16 15 14 12 16 16 18 20 23 30
22 23 25 25 25 24 24 25 24 25 22 21 15 11 8 7 7 7 8 10 11 12 11 12 12 12 11 13 15 17 17 18 18 14 13 13 13 17 16 19 23 25 29
23 25 26 26 24 25 25 27 26 26 25 24 15 11 8 10 8 7 9 10 12 11 12 12 13 13 12 14 17 18 19 18 17 12 16 19 15 17 20 23 23 25 26
26 27 27 26 27 25 26 26 27 26 26 20 16 14 14 10 9 8 9 11 13 11 13 14 13 12 14 16 17 15 15 16 15 20 14 14 16 19 21 21 23 23 26
25 27 28 29 26 25 26 27 28 27 23 17 20 16 15 12 10 11 11 12 11 14 13 13 12 13 14 18 12 12 13 15 13 13 18 22 20 23 24 27 28 31 31
21 25 27 29 27 25 27 27 26 26 20 22 18 16 15 12 10 12 14 13 13 14 13 13 13 15 15 13 12 12 12 14 14 17 15 18 19 22 25 29 30 25 23
22 24 25 25 26 26 26 27 27 26 24 21 17 15 15 14 14 12 15 15 15 17 13 14 15 17 19 14 15 15 17 18 15 14 16 18 21 25 25 24 24 24 24
16 15 17 18 22 23 27 27 27 25 25 21 19 15 12 11 10 15 20 17 16 14 15 15 16 17 15 17 20 17 17 15 15 15 19 21 17 18 19 19 19 23 25
14 14 14 18 20 23 26 28 28 25 23 21 18 14 12 10 19 15 15 15 17 18 18 17 16 18 18 21 20 16 16 18 14 17 18 19 12 18 21 22 23 23 18
8 10 13 17 21 22 23 26 24 24 20 18 15 14 11 12 11 15 16 17 18 18 19 19 18 17 19 18 19 18 21 19 15 19 19 15 14 20 21 22 24 23 19
7 10 12 16 18 20 22 24 24 20 17 16 13 11 9 10 18 16 15 17 20 20 20 19 19 17 16 16 20 21 21 18 18 18 15 13 18 20 20 23 23 23 21
15 15 14 14 17 17 19 20 19 13 15 10 9 6 13 15 16 18 18 18 19 19 19 19 19 17 17 19 23 23 20 20 18 15 13 13 17 20 22 22 22 23 22
15 15 10 8 10 12 15 12 13 14 12 9 9 10 10 18 16 19 19 20 20 18 18 23 21 21 22 22 21 18 17 20 17 15 13 10 18 21 21 20 19 19 22
14 6 4 4 6 10 13 17 13 10 10 8 6 8 16 15 16 20 21 17 17 14 17 18 21 19 21 20 18 18 17 17 17 16 14 14 16 17 16 15 15 17 19
4 2 5 8 11 12 11 14 12 7 3 5 9 17 19 20 18 19 20 13 11 12 14 17 20 19 15 18 20 17 18 17 17 14 13 12 17 13 13 14 17 17 20
9 9 7 6 7 7 7 5 5 2 4 12 17 18 19 16 17 16 18 13 12 12 17 19 19 19 16 15 13 17 19 18 18 15 14 18 17 10 13 14 14 17 19
11 10 7 4 4 2 3 1 1 6 14 16 17 16 15 15 15 14 17 23 17 18 15 16 18 20 20 20 19 20 21 20 19 20 20 20 11 12 14 14 12 16 17
1 2 0 3 3 2 3 4 10 13 15 15 15 15 15 17 17 16 15 19 25 21 18 21 26 27 25 24 24 22 18 20 24 24 22 19 11 12 15 14 12 15 16

GFSMW_850_spd_015.txt.gz
Wind_Speed
28 25 26 27 22 23 29 25 25 25 24 13 9 16 16 12 8 6 8 4 3 5 6 7 10 14 15 15 18 18 16 18 22 21 20 21 16 10 15 17 15 16 22
31 28 31 30 29 28 26 22 21 23 20 14 12 15 14 10 8 7 6 5 2 5 8 12 12 15 16 17 15 17 19 16 17 18 19 13 19 10 14 17 19 24 20
36 31 33 33 30 30 29 22 19 19 22 22 21 23 18 13 13 11 8 5 7 10 12 14 16 18 19 19 19 18 16 14 14 16 14 7 6 21 11 20 8 14 18
35 33 30 33 32 29 26 22 20 24 20 29 24 27 24 21 19 17 13 10 11 14 15 17 16 16 17 17 17 16 17 19 20 15 13 14 16 16 14 12 16 15 18
40 35 31 27 25 29 28 25 26 27 28 25 25 26 24 25 25 20 14 9 11 14 15 15 15 16 17 14 13 13 14 17 16 14 16 18 21 14 16 21 21 22 22
35 31 30 27 23 25 26 28 31 31 29 26 25 27 29 29 24 17 11 10 15 14 14 14 15 16 13 12 13 14 15 15 16 20 17 15 9 11 15 17 22 23 24
30 33 30 30 29 30 27 31 33 34 31 30 29 28 26 23 19 12 10 13 13 12 13 14 15 14 12 13 16 18 22 18 15 17 14 13 12 15 17 17 20 24 26
27 26 28 27 33 32 34 31 34 33 31 29 28 26 24 19 14 10 11 12 10 11 12 13 13 11 10 15 18 21 16 17 16 20 19 16 16 10 11 15 15 23 29
22 24 28 30 33 35 34 34 32 30 29 28 27 25 22 16 11 10 9 8 9 11 13 14 12 10 10 10 14 13 16 14 18 18 14 12 10 13 14 14 17 18 29
24 24 27 34 35 36 33 26 25 28 27 25 23 20 16 13 11 10 8 9 13 11 13 13 13 14 11 12 11 11 10 14 17 13 11 16 15 17 17 14 17 16 21
29 28 31 33 32 30 29 26 26 26 26 26 23 21 15 12 10 8 11 10 12 12 13 13 14 14 10 8 14 17 18 14 11 14 16 15 17 14 17 20 22 23 27
34 32 33 34 33 33 32 29 31 29 29 28 23 19 15 13 11 10 11 14 13 15 14 15 14 12 9 14 17 20 16 14 16 17 21 16 17 21 22 25 27 28 28
34 34 35 35 36 36 34 32 32 32 31 30 26 21 18 16 12 11 15 14 17 18 17 18 14 8 13 18 19 12 13 14 16 15 17 21 18 21 24 26 28 29 30
34 35 38 40 39 39 38 35 33 34 31 29 25 21 18 16 15 16 14 15 19 19 19 18 12 11 17 19 20 19 17 18 15 18 15 17 20 23 27 30 29 26 26
9 23 35 39 37 37 33 30 30 33 31 28 22 20 13 14 17 15 12 16 21 20 21 16 14 15 18 18 20 17 18 22 22 18 17 19 22 27 29 25 26 27 26
6 11 10 29 34 35 32 29 29 30 32 29 24 17 15 23 16 13 10 13 15 20 19 19 20 19 19 21 21 20 19 19 18 18 18 20 24 24 24 24 25 24 26
3 7 7 4 19 28 26 27 30 31 32 29 23 22 23 21 17 13 14 14 16 18 21 23 24 21 21 22 21 20 20 19 20 20 20 21 23 23 23 24 25 21 22
9 8 7 7 7 13 18 23 28 30 28 25 25 24 22 18 13 11 12 13 18 22 20 24 21 22 22 21 20 18 18 20 21 20 21 22 21 21 21 23 22 22 21
12 13 10 10 12 18 19 21 26 27 27 26 25 19 15 12 8 4 13 17 26 20 20 20 19 22 22 20 19 19 20 20 20 21 23 19 18 20 22 22 24 23 20
11 11 12 9 8 13 15 19 24 24 23 21 14 10 8 4 4 9 21 22 20 23 24 23 22 22 22 21 20 20 20 19 19 22 19 17 18 20 21 22 23 21 17
6 9 11 7 1 9 18 26 27 25 22 14 15 12 5 6 7 16 21 22 24 26 25 16 21 22 24 20 18 18 16 16 18 21 17 18 19 19 19 21 18 14 16
3 2 3 4 11 14 16 22 22 18 18 14 5 3 8 7 15 19 22 22 21 17 13 17 19 21 22 20 17 14 15 17 19 19 17 17 17 14 17 13 12 13 15
4 2 2 3 7 8 8 12 10 6 5 8 14 9 7 16 19 19 18 17 16 14 14 16 18 22 22 21 19 16 15 17 20 20 18 17 13 15 13 11 12 14 16
4 4 5 7 6 5 5 6 9 13 16 8 6 11 17 16 15 16 14 16 18 20 19 16 17 21 22 21 20 20 19 18 20 20 19 18 18 18 14 12 13 13 15
7 7 8 8 6 6 6 4 3 3 5 10 13 14 15 15 15 16 17 17 18 20 20 20 22 22 24 23 24 25 23 21 21 21 22 23 23 21 17 13 14 13 13
8 9 10 8 5 4 5 9 12 14 15 15 15 15 15 16 17 19 19 15 18 20 23 23 21 22 26 26 28 28 26 24 24 24 25 27 26 24 18 14 15 14 14

GFSMW_850_spd_018.txt.gz
Wind_Speed
35 35 35 30 25 30 37 38 34 32 31 30 20 13 13 14 14 13 12 10 8 5 4 10 15 17 17 18 18 19 18 17 19 16 15 16 15 12 14 14 15 16 17
40 41 38 35 32 30 34 32 30 30 31 28 16 13 17 16 13 13 12 11 8 4 9 12 15 17 16 17 17 18 18 17 14 14 15 8 14 12 9 15 16 20 19
46 44 45 42 36 33 31 30 30 32 29 23 18 19 18 18 18 18 17 14 10 7 11 14 16 16 16 16 17 18 17 14 16 17 14 7 5 15 7 10 7 11 17
42 45 43 42 39 35 29 29 31 32 31 26 25 25 25 25 22 21 17 15 8 8 12 15 14 13 15 15 14 13 13 13 12 13 12 11 13 13 11 15 15 16 17
42 46 47 44 42 37 33 28 28 28 32 31 29 30 28 26 25 23 18 13 10 11 14 13 12 14 15 15 13 11 11 12 12 14 16 18 18 16 14 15 16 17 17
33 41 43 43 42 35 31 33 30 28 31 33 30 35 34 32 31 26 19 16 15 15 12 11 11 13 13 13 12 11 13 16 18 17 13 14 14 13 14 18 21 20 20
38 42 41 40 40 35 33 34 31 32 31 29 31 33 37 34 30 23 19 17 13 10 10 11 11 13 14 12 13 14 18 18 14 15 14 13 13 13 16 16 18 23 25
43 41 36 36 37 33 34 37 35 34 34 33 31 29 30 27 23 19 17 14 11 9 8 12 14 13 12 12 12 14 17 16 19 17 18 15 14 14 14 13 16 22 27
36 38 38 35 32 35 38 35 31 37 35 33 29 27 27 25 22 20 16 11 7 9 14 13 14 14 13 13 14 12 13 15 15 16 18 18 17 17 15 15 19 19 25
32 36 36 36 35 36 35 31 30 33 36 30 27 25 26 24 21 16 11 8 10 10 11 13 14 14 13 13 12 14 16 17 18 21 14 16 16 16 19 18 19 20 22
34 35 34 34 32 33 33 33 36 36 34 33 30 28 27 25 21 17 14 13 8 12 13 14 15 16 14 13 11 14 18 22 20 17 16 15 17 14 16 20 21 23 26
37 34 31 31 31 33 37 40 40 38 37 36 33 30 27 25 23 19 16 10 9 11 12 15 16 15 14 13 13 16 20 16 17 18 18 21 19 20 19 22 23 23 26
37 36 34 35 37 39 41 42 42 41 38 34 32 30 28 26 25 20 17 11 11 10 14 16 16 12 11 13 16 19 23 18 19 18 16 18 22 21 22 23 25 29 28
36 35 36 39 41 43 45 46 43 40 34 32 32 32 30 27 23 20 16 14 11 9 13 16 17 14 11 15 20 22 20 19 20 21 22 25 21 22 23 25 27 26 25
24 29 28 34 42 45 47 45 42 36 33 33 35 34 29 23 19 17 17 17 8 8 11 18 16 18 17 18 21 22 22 20 19 21 22 21 22 22 25 26 25 24 26
9 6 3 6 28 41 42 42 38 35 36 36 36 32 26 21 24 25 24 15 10 2 11 16 18 20 24 23 21 22 23 21 20 21 20 21 21 22 25 23 22 23 26
13 11 10 7 5 14 30 34 34 34 36 36 33 29 28 29 31 28 23 17 12 16 14 21 23 21 24 25 24 22 21 19 19 23 21 21 22 24 23 19 19 21 21
9 7 6 7 7 7 13 23 27 33 35 33 31 31 30 32 29 22 13 7 17 12 20 26 25 24 22 22 22 21 21 25 22 21 21 20 23 23 19 19 20 21 21
5 6 7 7 9 11 16 23 31 33 35 36 33 32 34 29 21 13 9 14 11 20 24 21 23 24 23 19 19 19 22 23 21 20 18 20 22 18 18 20 21 23 22
6 7 9 11 13 12 15 25 26 30 32 29 30 25 15 7 4 13 19 11 17 21 22 24 25 27 24 17 18 21 20 21 20 18 18 20 18 17 17 19 21 23 18
6 6 8 11 9 8 12 20 25 28 26 21 15 13 9 9 18 17 6 16 19 21 23 25 23 19 16 15 17 19 19 19 18 16 18 20 18 16 16 18 20 18 16
5 5 5 7 6 4 11 18 21 18 15 12 10 11 17 17 8 9 15 18 20 21 20 19 19 19 15 16 18 20 20 19 19 16 17 19 18 16 14 17 17 15 15
10 11 11 12 12 11 7 7 6 2 8 16 19 21 10 6 12 17 17 16 17 19 17 17 22 21 17 19 21 20 20 21 21 17 18 19 18 16 15 17 15 14 15
10 10 9 9 9 7 4 1 2 5 8 8 7 8 12 14 16 16 16 17 18 20 21 20 18 21 23 24 24 24 23 23 24 22 20 19 20 20 20 19 17 15 14
8 7 8 8 8 8 9 9 8 8 9 11 12 14 15 16 16 17 18 19 20 21 21 22 23 25 24 24 27 28 29 27 26 25 23 23 22 23 22 20 19 18 14
11 10 10 9 10 8 8 9 9 11 13 15 15 15 17 18 20 22 24 21 23 23 23 24 25 28 29 27 25 26 27 26 28 30 30 28 25 25 24 22 21 20 15

GFSMW_850_spd_021.txt.gz
Wind_Speed
31 31 30 28 29 28 27 28 29 28 30 31 29 25 18 16 17 18 15 15 14 10 5 5 8 12 15 18 19 18 17 17 17 15 11 13 15 13 11 16 14 17 20
35 36 35 32 31 29 31 32 31 31 32 30 28 24 17 18 19 18 17 15 13 10 8 7 9 13 18 21 21 20 20 20 17 14 13 6 10 14 18 12 19 16 13
41 40 39 38 36 38 33 36 38 35 34 32 29 22 18 21 22 21 20 17 15 13 9 10 12 16 19 19 19 19 18 16 16 13 8 6 5 10 16 10 14 12 15
39 40 42 42 39 40 33 33 36 38 37 34 32 27 25 26 26 23 22 19 15 13 12 13 15 17 18 17 18 17 14 12 10 11 10 11 13 12 10 12 14 17 15
43 43 46 45 42 40 38 36 37 38 36 34 32 30 30 28 26 25 23 20 19 17 15 15 16 15 13 14 15 13 11 9 10 12 14 15 13 13 16 17 12 15 17
43 43 45 44 44 42 40 40 39 37 35 35 35 36 35 30 30 28 26 24 21 18 16 14 13 11 12 19 16 12 12 13 15 13 12 13 12 12 13 16 19 19 17
43 38 42 45 46 46 44 42 39 38 36 39 39 36 36 33 33 31 30 26 21 17 16 13 10 15 24 16 12 11 13 15 14 14 13 13 15 14 15 18 19 19 20
38 40 43 44 48 44 45 43 41 37 36 37 39 39 37 39 36 33 28 24 21 17 12 9 15 21 13 11 12 13 13 12 14 15 15 16 18 15 17 20 20 22 25
28 38 40 42 45 44 46 44 39 41 36 38 36 36 34 38 38 33 29 26 22 16 13 17 20 11 12 12 12 13 13 13 14 15 17 18 16 16 17 19 22 24 26
22 31 38 39 41 42 43 45 36 33 29 34 35 35 33 33 36 34 33 27 22 20 16 8 7 13 11 12 20 12 11 12 16 20 18 14 17 16 17 18 20 22 21
21 27 31 35 39 36 39 42 42 40 35 34 37 38 36 34 35 32 28 24 20 15 7 8 10 8 12 16 12 11 12 15 20 17 15 15 15 16 17 18 19 20 23
23 25 32 38 37 37 38 39 38 34 37 37 36 37 33 31 33 31 29 27 21 15 11 9 7 10 9 12 11 11 11 14 17 17 19 19 20 19 21 19 20 21 23
21 28 32 36 38 38 38 37 37 34 39 40 38 34 30 31 33 30 30 26 21 15 12 8 7 8 15 12 10 11 14 17 18 17 19 21 21 22 19 21 22 24 25
19 26 32 35 36 36 39 37 39 41 38 42 37 33 32 30 30 30 28 25 22 15 12 6 7 12 12 13 15 15 18 20 21 21 19 20 21 20 21 21 23 25 23
11 19 27 29 31 34 35 36 39 41 42 38 38 35 30 30 31 28 26 20 18 13 8 6 14 12 16 17 19 21 21 22 23 21 20 20 22 23 23 23 24 23 21
10 4 4 11 17 25 33 38 39 40 40 36 34 34 33 31 30 27 22 22 16 13 9 9 14 18 20 21 20 24 24 22 23 23 23 25 21 24 23 24 24 21 20
10 7 5 4 2 4 8 15 24 33 34 31 34 36 35 32 29 28 28 23 18 14 10 22 14 20 23 22 21 21 24 25 23 24 25 22 22 23 23 24 22 19 20
11 8 7 8 8 8 8 11 17 24 29 33 34 32 30 30 31 30 26 21 15 13 24 19 21 24 24 21 21 21 22 23 24 23 25 21 21 21 23 21 19 19 20
5 6 8 9 11 12 13 15 18 23 27 27 27 28 30 28 23 13 9 11 16 25 21 20 22 23 24 24 22 20 19 22 22 23 25 20 20 20 21 19 19 19 19
2 3 5 7 10 12 12 13 14 18 20 22 22 21 23 23 23 22 16 20 27 23 20 21 23 26 26 24 17 14 17 21 22 24 23 21 19 20 19 19 18 19 17
1 1 3 5 6 7 8 7 7 10 13 16 18 17 15 19 17 20 26 27 15 18 22 24 23 23 22 19 17 16 17 19 22 23 23 20 19 19 18 18 18 17 17
5 5 4 5 5 6 4 4 7 11 10 10 10 16 16 19 23 19 12 12 20 24 25 24 24 22 22 20 18 19 19 19 23 25 23 21 20 19 18 18 16 17 17
9 10 9 11 13 12 10 11 10 5 1 5 12 12 10 6 9 14 18 20 21 22 23 24 26 25 20 19 20 20 23 24 26 26 25 23 23 21 20 18 18 17 17
11 9 8 9 11 9 7 7 5 4 4 5 7 9 11 13 15 17 19 20 21 22 24 26 27 27 26 24 21 22 26 29 31 29 30 30 29 25 24 21 20 20 18
10 9 9 10 11 10 8 6 4 4 5 7 9 10 11 14 16 17 19 21 24 25 28 30 29 29 32 29 26 26 25 26 31 33 33 35 36 31 30 25 22 21 20
12 11 12 11 9 5 4 5 6 9 11 13 14 16 18 20 22 25 29 26 28 28 28 29 31 34 34 33 31 29 31 31 27 31 33 34 36 37 33 29 25 22 22

GFSMW_850_spd_024.txt.gz
Wind_Speed
26 27 27 28 27 27 26 28 26 26 25 26 24 25 25 24 21 18 17 17 17 17 14 11 9 8 6 7 9 12 12 13 13 12 10 11 12 10 9 10 14 14 21
26 29 30 30 30 28 29 30 30 29 29 29 27 27 21 21 19 18 19 19 18 16 15 13 10 8 7 11 12 12 14 15 14 11 12 5 9 10 12 12 18 19 16
31 32 33 32 30 31 32 31 31 31 30 28 28 27 24 22 21 22 23 23 21 19 17 14 12 9 10 11 13 15 18 17 15 13 9 5 4 13 13 15 14 16 13
34 33 33 34 34 32 30 29 30 31 32 32 32 31 29 29 26 24 25 24 22 20 18 17 14 11 11 11 12 17 21 18 14 13 12 12 13 9 9 9 15 14 16
39 38 38 37 35 33 32 30 32 34 35 35 35 33 30 30 26 25 25 25 24 22 21 18 15 12 11 9 15 20 21 17 13 12 12 11 13 13 13 17 15 15 16
43 42 40 40 40 37 36 36 35 35 39 40 38 36 35 33 30 26 27 27 26 25 22 20 16 14 11 14 23 25 18 14 13 12 12 11 10 12 13 15 18 19 19
42 42 42 43 42 42 39 39 40 40 41 42 42 38 36 36 32 29 29 31 30 28 25 21 13 12 15 21 23 18 18 14 15 14 12 11 12 13 12 14 17 20 21
42 45 45 44 43 42 42 42 43 43 39 40 40 36 37 36 35 34 32 32 33 30 27 22 24 21 24 29 20 17 12 15 14 12 13 14 14 13 12 14 16 20 22
30 39 45 45 43 41 43 43 43 43 38 37 31 34 37 40 40 39 36 32 33 31 24 23 19 21 22 21 12 10 13 12 10 9 12 15 14 12 13 14 17 19 24
20 26 28 37 41 39 37 39 40 42 40 40 30 30 36 34 39 40 39 36 35 30 22 20 19 16 13 8 10 10 12 10 9 10 12 10 10 11 14 16 17 20 22
12 14 17 22 28 30 31 30 33 39 40 40 32 29 32 36 38 38 35 37 34 27 26 21 17 10 8 9 5 17 13 10 9 10 11 11 12 14 16 17 20 19 21
9 13 15 18 21 24 28 28 31 33 30 28 31 31 34 35 32 31 33 35 31 28 23 16 12 9 9 5 17 13 11 11 10 11 13 14 14 17 18 19 19 20 21
9 13 16 19 22 28 29 31 26 23 25 27 30 33 36 34 34 33 34 34 31 26 20 15 11 12 7 16 11 11 12 12 14 17 18 17 17 18 18 19 19 20 21
7 10 14 19 23 24 26 26 24 28 31 31 31 33 33 36 32 32 35 33 29 22 16 14 13 11 11 11 13 15 15 16 18 19 21 20 20 20 20 20 20 21 22
1 3 7 10 14 16 19 21 23 27 31 34 33 33 34 31 30 33 33 31 26 22 18 19 17 10 17 13 17 20 23 25 25 23 22 23 22 21 22 21 21 22 23
14 12 11 9 7 5 7 12 16 20 24 27 29 28 30 32 31 32 32 26 24 23 21 18 15 16 20 15 19 23 25 25 28 28 24 23 23 23 22 21 23 24 23
15 14 12 10 8 6 5 7 9 13 18 21 23 26 30 33 32 31 30 28 27 24 21 16 16 21 16 17 23 24 26 26 25 26 27 24 24 24 22 21 24 25 21
13 12 10 8 7 8 9 10 12 15 15 17 20 24 25 22 24 25 24 23 25 29 27 21 21 24 20 23 24 24 25 26 25 26 26 25 24 24 21 21 24 22 20
10 9 9 10 10 11 13 13 12 12 11 12 14 15 15 17 19 20 23 21 19 21 26 25 27 23 20 25 27 27 25 25 24 23 25 25 24 22 20 21 22 21 21
8 6 5 5 5 8 10 11 9 6 4 3 6 7 11 17 20 18 15 19 23 27 30 32 18 21 27 25 24 23 21 22 20 21 24 24 26 21 20 21 21 22 19
5 4 2 3 4 4 5 6 7 8 7 5 6 9 10 11 14 18 20 23 26 22 16 19 24 27 25 25 24 23 23 23 22 22 23 24 25 22 21 21 20 20 17
6 6 6 8 10 11 8 12 15 15 12 9 5 1 7 13 13 12 11 11 15 19 22 26 28 26 25 25 26 24 24 22 25 25 25 25 25 24 24 23 21 19 19
9 10 11 14 15 13 11 12 12 7 3 2 3 4 5 7 9 11 14 17 19 22 24 26 29 30 29 26 25 25 24 24 28 28 28 28 28 26 28 28 25 22 22
12 11 11 12 12 9 7 7 6 4 4 4 6 8 10 11 13 15 17 19 21 23 25 28 31 33 34 33 27 27 28 28 27 31 33 32 31 32 34 33 29 29 24
12 10 9 9 10 7 6 6 4 4 5 7 9 11 13 15 17 19 21 23 23 24 28 30 31 33 38 37 33 32 32 32 33 30 32 32 35 37 36 38 37 33 29
13 11 9 8 9 6 4 3 5 7 9 11 12 15 17 20 23 26 29 28 30 31 31 31 28 33 33 37 36 34 35 36 37 36 37 39 38 35 34 35 36 38 34

GFSMW_850_spd_027.txt.gz
Wind_Speed
22 23 25 25 24 26 25 24 23 21 24 27 27 27 25 24 23 21 20 17 17 16 16 16 16 15 11 8 6 5 5 6 8 9 12 14 13 11 9 9 10 12 14
25 26 26 29 31 30 29 28 26 26 27 28 26 25 25 26 24 22 20 19 19 18 19 19 18 15 11 9 6 4 2 6 9 9 13 5 10 12 10 13 11 13 15
27 28 30 31 33 33 31 31 31 30 30 30 28 26 25 26 28 24 22 21 21 21 22 22 18 15 12 9 5 3 5 9 16 18 14 5 5 9 13 10 13 11 12
31 29 31 34 35 34 33 33 33 34 34 32 32 31 31 31 30 25 22 23 23 24 25 22 19 16 12 7 5 6 12 16 16 19 15 13 13 6 8 7 9 15 13
33 33 35 35 35 33 33 34 34 35 35 34 33 31 32 31 25 26 26 26 26 26 26 25 23 19 16 11 7 11 19 27 30 17 13 12 12 13 10 14 11 11 11
38 37 35 35 38 35 34 34 35 35 35 34 33 32 33 31 30 30 31 29 28 29 29 27 24 22 19 15 18 23 20 25 19 13 11 12 7 7 8 11 12 12 12
40 41 41 39 38 38 37 36 35 36 35 34 34 32 35 34 34 36 33 31 31 28 32 31 27 24 18 17 15 15 21 19 12 13 14 11 11 11 11 11 13 13 14
37 44 44 42 42 40 38 38 38 38 37 36 33 34 36 36 37 37 37 35 33 29 30 30 27 22 16 16 15 15 18 11 16 14 12 12 12 12 12 11 11 14 16
24 30 35 43 42 41 38 38 38 39 38 37 35 31 36 38 36 35 37 37 35 32 32 31 27 18 26 16 12 13 10 14 15 12 11 12 13 14 13 13 13 13 19
9 17 23 29 34 40 35 35 35 36 37 38 38 37 34 36 31 32 35 39 38 33 34 31 23 25 17 12 15 11 9 18 14 13 13 11 10 12 12 13 15 17 17
6 8 13 17 19 24 27 27 29 32 34 37 35 36 34 30 29 30 35 38 37 35 34 30 27 19 15 16 11 9 15 15 14 14 12 9 8 10 12 14 17 18 19
5 4 6 9 10 11 14 20 23 24 25 28 32 31 31 33 30 30 32 30 30 34 33 31 26 23 17 14 11 11 13 14 16 14 14 12 12 13 15 18 20 21 20
5 6 7 9 11 13 16 17 17 17 19 22 26 30 31 30 29 28 27 28 29 31 31 28 24 20 16 12 8 15 14 17 16 16 17 17 18 18 19 21 21 23 23
3 4 6 7 8 8 9 11 13 15 18 21 23 27 28 29 29 23 21 24 28 30 28 24 19 15 13 9 11 21 11 17 18 18 21 21 22 23 22 22 23 24 24
6 7 6 4 3 1 1 3 5 8 11 13 15 18 20 21 20 20 22 25 27 27 25 23 22 21 16 16 23 14 18 22 25 27 29 29 28 25 24 24 24 24 24
20 19 19 16 13 10 7 5 2 4 6 8 9 11 13 15 17 20 23 25 24 25 25 28 27 27 23 18 21 16 23 25 27 29 29 30 30 30 25 25 23 24 24
21 20 18 15 12 10 8 5 4 6 8 10 11 11 11 12 15 19 22 21 22 27 27 25 27 27 26 27 23 22 23 30 28 28 30 30 29 29 27 25 24 24 25
18 17 16 13 11 10 8 8 7 8 8 8 8 8 7 8 12 15 16 17 22 23 26 31 32 31 31 31 28 17 28 31 32 32 31 30 30 29 27 25 25 24 25
15 14 12 10 9 8 10 10 10 8 6 5 5 4 2 2 4 7 9 14 23 26 28 28 30 33 34 29 18 26 30 29 30 28 28 29 28 27 27 27 25 24 24
14 12 11 9 8 8 7 6 8 7 9 9 8 7 6 3 2 2 6 11 14 17 21 25 27 26 20 22 26 26 27 29 29 28 26 26 26 26 27 28 25 25 23
14 12 11 8 8 8 6 7 10 13 15 14 13 11 7 3 1 4 9 12 15 16 15 17 20 23 25 28 26 26 28 30 30 30 28 27 26 26 28 28 27 26 21
14 12 10 12 13 12 9 14 16 15 13 10 7 4 1 3 6 6 5 7 11 15 18 22 24 25 25 26 27 27 27 29 31 30 30 29 27 28 30 29 30 27 25
17 17 15 17 16 14 12 13 14 9 6 4 3 3 3 4 6 7 9 11 14 18 21 24 27 29 29 30 29 28 29 27 29 32 32 29 30 30 31 34 32 30 32
19 17 16 16 16 12 10 10 10 7 5 4 3 4 6 8 10 12 14 15 18 20 23 25 28 31 32 29 26 29 30 31 32 31 32 33 31 33 36 37 34 34 36
19 17 15 15 14 12 10 10 8 5 3 4 6 7 9 11 13 15 16 18 18 20 22 23 24 29 33 33 34 37 38 34 31 31 34 37 37 39 39 42 42 39 38
20 18 16 14 15 11 9 7 4 3 4 6 8 11 13 15 17 18 19 20 21 22 21 21 23 23 25 30 32 32 33 35 34 36 39 34 36 38 41 43 40 38 35

GFSMW_850_spd_030.txt.gz
Wind_Speed
16 17 19 21 22 25 24 23 23 21 19 18 19 19 21 19 21 20 22 21 18 16 18 19 19 17 12 11 10 8 6 4 3 3 7 8 8 7 7 7 7 7 6
19 20 20 22 22 23 24 24 24 22 22 20 20 20 20 20 21 26 24 23 22 21 21 22 20 19 16 14 13 9 6 5 5 4 9 11 12 8 9 9 9 9 8
21 22 23 24 25 26 26 25 24 22 22 22 21 19 20 24 26 28 27 25 24 24 24 24 24 23 20 17 15 12 10 6 7 13 12 9 10 8 10 11 9 10 8
23 24 26 27 28 28 27 26 26 25 24 24 23 24 24 21 26 31 26 27 24 25 26 26 27 25 24 21 18 16 11 10 14 17 11 12 11 9 10 8 9 9 11
25 26 27 27 26 27 28 27 27 26 26 27 28 25 25 21 19 26 23 27 26 27 29 29 29 28 26 22 20 14 12 14 14 10 10 10 9 9 11 15 12 12 12
30 29 28 26 27 27 28 28 29 28 28 29 32 32 27 24 26 29 29 30 31 30 31 31 31 30 26 23 18 15 13 13 15 8 10 11 10 11 12 13 14 14 13
29 30 30 31 30 31 30 29 30 31 30 32 35 37 36 35 34 35 34 32 32 33 34 33 33 31 27 25 20 14 22 17 10 10 10 10 10 11 11 12 14 14 14
26 32 33 33 31 31 31 31 32 32 30 33 36 36 36 36 35 36 37 35 34 35 34 35 25 32 30 22 16 23 20 13 10 12 13 11 10 11 11 12 12 15 16
16 22 25 29 29 29 31 32 32 32 31 32 32 33 35 36 40 35 36 32 32 35 39 36 31 33 26 20 19 23 15 14 10 12 12 11 11 11 12 12 13 14 17
4 9 14 18 21 24 25 26 27 29 29 26 28 28 31 32 30 26 32 33 34 35 37 37 31 31 27 22 25 16 15 11 11 13 13 12 12 12 13 13 15 15 17
1 1 5 8 12 16 19 20 23 25 23 23 22 23 26 31 27 29 35 35 33 34 35 37 36 33 26 26 22 17 13 12 13 14 16 15 13 13 13 14 16 17 18
2 1 3 7 9 10 12 14 15 16 17 16 17 19 24 26 28 28 30 30 31 31 32 34 33 25 26 22 18 14 13 12 19 17 18 17 16 17 16 17 18 19 19
3 4 5 6 9 10 10 10 11 11 12 16 16 17 19 23 25 26 28 26 25 27 31 32 28 29 26 23 19 21 18 22 17 17 19 21 20 21 21 20 21 20 20
4 6 7 6 7 7 7 7 8 9 10 10 10 13 14 16 17 19 20 20 20 22 25 27 27 27 24 22 22 23 25 21 16 20 21 22 24 25 24 23 24 23 22
5 7 8 9 8 8 8 7 7 6 5 4 5 7 8 9 10 11 12 15 15 17 17 20 24 23 24 25 22 21 21 20 18 21 23 26 29 31 31 28 27 24 23
11 11 12 12 12 12 10 9 8 6 4 3 4 5 6 5 6 7 8 10 11 13 14 21 24 27 27 28 29 26 24 21 21 24 23 25 29 33 34 35 35 32 25
16 15 15 15 16 15 13 10 7 4 2 0 1 1 2 2 3 4 5 8 10 13 18 23 25 25 30 34 29 29 29 32 24 23 24 26 26 29 30 31 33 36 32
16 16 16 16 15 13 11 9 7 5 4 3 3 3 3 2 1 2 3 4 6 10 14 20 23 28 33 30 31 33 34 23 23 25 27 28 29 28 29 25 29 31 31
16 16 16 15 14 12 10 8 7 7 7 7 8 8 9 9 10 10 9 6 1 7 13 17 21 23 22 26 30 27 22 25 28 25 25 26 27 27 30 32 28 28 24
15 16 16 14 12 11 10 10 11 10 11 11 12 13 13 12 10 7 4 2 2 5 9 13 16 21 23 18 20 23 26 27 27 28 27 28 31 28 30 32 32 30 26
18 16 15 14 13 13 11 12 13 13 13 14 13 12 11 8 6 1 3 5 7 9 10 11 13 16 18 20 21 22 24 25 27 28 30 28 29 30 28 32 34 38 33
18 16 16 16 15 14 12 14 13 13 12 10 8 6 5 4 4 3 2 3 5 7 9 12 14 14 15 18 20 24 25 26 28 34 31 31 32 33 30 32 36 38 37
18 17 17 17 16 14 12 13 13 11 9 8 7 6 5 3 2 2 4 4 6 8 10 11 12 13 15 17 22 27 29 32 35 36 35 37 37 36 37 37 36 38 38
20 20 19 17 16 14 13 12 12 11 9 7 6 4 2 1 2 4 6 6 9 10 11 11 12 14 16 16 20 28 31 31 32 32 37 40 40 40 37 36 37 39 44
22 20 19 18 17 15 14 14 13 11 8 6 4 2 1 2 4 6 7 8 11 13 14 15 16 18 19 18 25 28 29 30 32 36 36 31 30 32 35 34 35 35 36
22 21 20 19 18 17 16 15 12 10 7 4 2 0 2 4 4 5 5 13 11 12 13 13 17 19 21 23 25 26 28 28 28 29 25 27 27 27 28 32 33 32 34

GFSMW_850_spd_033.txt.gz
Wind_Speed
16 19 19 21 21 23 24 24 24 23 20 19 19 19 19 19 21 20 17 17 16 16 16 13 16 15 13 13 14 10 10 7 7 4 7 11 12 10 6 7 8 9 8
19 20 22 23 24 24 23 24 23 22 22 19 19 20 20 20 20 19 18 20 18 18 18 18 16 17 15 17 16 14 10 8 8 4 8 12 10 10 9 9 10 11 10
23 23 25 26 26 27 28 27 25 24 23 22 20 19 19 20 20 19 18 20 23 22 20 19 18 19 18 18 19 18 14 10 9 8 7 8 10 9 10 12 11 11 12
24 25 27 28 29 28 27 27 26 26 25 25 23 24 23 23 22 21 22 24 27 25 20 20 21 21 19 17 19 17 14 14 8 8 9 12 11 8 9 10 12 13 12
25 27 29 30 30 30 30 29 28 28 27 27 27 25 25 23 19 20 21 24 21 25 23 21 21 22 21 18 21 17 17 15 10 9 14 14 12 12 11 13 12 12 11
27 27 28 27 29 29 30 30 29 30 29 28 28 29 27 25 23 24 21 20 25 26 25 20 24 27 23 18 15 19 16 14 16 24 15 14 14 13 14 16 15 15 16
29 28 29 29 29 30 30 30 31 31 31 31 31 31 30 26 25 24 25 23 27 29 24 23 30 31 29 29 31 29 26 18 22 23 11 14 14 13 13 15 15 16 15
30 31 31 31 31 31 31 31 31 31 31 33 35 32 30 30 30 31 31 33 31 28 28 31 36 38 35 32 30 23 23 22 27 14 12 13 14 12 13 14 14 16 17
16 27 31 32 32 32 32 34 32 30 30 32 30 32 34 34 29 32 34 34 31 26 29 35 36 38 34 33 27 23 22 25 15 13 13 15 14 13 14 14 14 14 18
5 12 20 26 30 31 31 32 31 30 29 31 31 30 27 25 29 32 34 33 35 32 33 34 32 35 37 34 27 26 25 16 19 14 15 16 15 16 16 15 15 15 17
2 4 7 14 20 23 26 27 28 28 27 26 25 26 26 27 29 34 31 28 31 32 31 32 32 35 38 35 28 23 17 21 16 17 16 17 19 17 16 16 15 17 18
2 4 6 9 13 17 20 22 23 23 23 21 21 23 23 28 30 30 25 27 28 24 26 28 32 31 33 26 24 21 21 15 16 17 22 20 17 19 19 18 20 20 20
5 6 7 9 11 13 15 16 17 16 16 17 17 17 21 24 26 22 18 20 22 23 25 27 27 28 26 22 21 16 15 21 16 24 18 18 21 23 23 23 24 23 23
7 9 9 10 12 11 12 13 13 13 13 13 12 13 12 12 13 14 17 17 18 20 23 23 22 20 22 23 17 22 24 19 30 18 18 20 22 25 26 27 28 28 29
9 9 11 11 11 12 12 12 12 12 11 10 9 9 7 8 7 7 7 7 10 11 11 11 12 16 21 18 26 24 18 25 24 18 19 22 25 28 31 31 33 32 33
9 10 12 12 11 12 12 12 12 11 10 11 10 8 7 6 6 7 10 11 11 11 10 8 10 15 22 24 26 25 22 28 25 25 25 25 28 29 27 33 36 38 44
14 14 14 14 15 15 14 13 13 12 12 10 8 6 6 5 4 5 4 4 3 3 5 5 10 15 18 19 24 25 27 32 29 34 34 24 22 25 29 31 34 38 40
17 17 17 17 16 16 16 15 13 12 11 9 8 7 7 6 7 6 5 4 4 3 2 6 11 11 12 17 18 24 27 28 30 23 21 25 28 28 29 33 35 36 37
19 19 18 17 17 16 15 15 14 13 12 12 11 11 11 12 11 12 10 9 8 7 6 5 6 9 13 18 19 21 25 19 21 23 24 25 27 30 32 34 39 39 39
20 20 18 17 17 16 15 15 15 14 14 14 14 14 13 13 11 10 10 9 6 5 2 4 7 10 13 12 14 21 21 23 23 24 25 26 29 32 34 35 38 39 40
21 20 18 17 16 16 16 16 16 15 15 15 15 14 12 11 8 5 4 3 1 2 2 3 3 5 7 8 16 21 23 26 31 34 36 33 31 33 35 37 35 40 37
22 20 19 18 17 16 16 16 16 15 13 12 11 10 7 6 7 7 5 4 2 1 1 3 4 4 4 10 18 22 27 30 33 35 38 38 41 43 43 44 46 43 39
22 20 20 20 18 17 16 17 16 14 13 12 11 10 9 7 6 5 3 2 1 0 3 4 5 5 9 9 16 25 27 28 31 32 35 38 39 40 41 40 37 38 34
24 22 21 20 19 17 16 16 15 14 13 13 11 10 8 6 5 3 2 1 2 4 5 5 6 7 11 11 21 26 29 29 29 31 35 35 33 30 32 34 33 34 32
24 23 22 21 19 18 16 15 15 14 14 12 10 9 7 6 4 4 3 3 8 8 8 10 10 13 15 17 21 24 26 28 29 32 31 25 27 30 30 31 30 29 29
26 24 22 21 20 18 17 15 14 13 12 11 10 9 7 6 3 2 6 7 9 9 11 12 12 14 18 19 21 24 25 25 25 23 21 25 27 27 28 30 30 30 33

GFSMW_850_spd_036.txt.gz
Wind_Speed
27 23 23 18 21 30 29 29 31 32 37 31 25 25 25 23 25 24 30 22 21 22 21 19 22 21 18 17 17 19 19 16 18 16 11 15 17 15 13 12 12 10 15
24 28 28 27 22 28 27 26 30 34 34 32 28 26 23 24 24 24 24 21 25 24 23 21 23 19 20 20 21 23 20 14 16 10 11 10 11 17 11 13 15 14 17
29 29 30 32 31 27 28 30 29 25 25 23 20 25 25 23 22 30 24 25 20 24 24 20 23 23 19 21 26 26 20 15 18 15 9 3 3 10 14 17 16 15 18
29 31 31 33 34 34 29 30 30 29 28 30 30 29 29 30 29 29 25 24 27 26 24 22 22 23 18 20 25 25 21 19 16 11 11 6 10 10 7 13 16 20 20
30 34 35 36 37 35 36 31 35 33 32 29 29 30 29 29 28 26 24 20 24 27 26 22 22 21 20 21 15 16 17 19 22 19 14 13 18 15 16 17 11 16 19
30 32 34 35 35 35 37 38 37 37 35 35 31 30 30 30 28 29 29 33 30 27 27 25 25 26 27 27 27 31 31 30 24 20 17 15 13 15 16 19 17 17 18
28 30 35 39 38 39 39 38 38 38 36 36 35 35 33 28 33 27 33 33 28 25 30 30 30 27 21 27 34 33 34 29 27 23 28 24 12 20 20 20 19 20 21
33 31 33 40 41 41 42 41 41 40 39 38 37 36 32 33 25 29 31 28 35 31 26 26 27 26 33 33 32 33 32 31 31 28 23 20 17 18 18 19 17 19 21
34 36 33 34 37 43 44 44 42 38 38 38 40 42 38 33 28 36 35 35 37 34 28 26 30 33 34 31 31 33 35 31 26 20 17 15 21 20 17 20 20 21 22
3 12 32 33 34 36 41 44 44 40 36 37 38 42 38 39 21 27 35 37 38 32 30 30 31 34 32 28 30 33 33 28 21 14 16 21 17 22 16 21 22 21 22
8 6 9 13 19 33 37 41 41 38 32 33 37 38 42 44 30 26 37 35 32 29 28 28 30 30 27 28 31 33 28 23 17 20 22 22 20 20 22 23 23 25 26
8 8 7 8 12 16 14 19 30 29 28 30 33 29 28 31 25 27 29 31 28 22 22 23 26 27 27 28 30 28 25 21 22 21 23 18 25 17 19 23 28 30 27
9 10 9 9 10 12 14 15 18 21 22 24 26 19 24 27 23 24 27 26 25 19 18 19 24 26 24 22 22 24 21 20 20 25 17 23 15 19 22 25 28 27 28
14 11 14 11 12 13 14 14 14 14 13 16 17 20 22 17 15 18 20 18 17 17 19 21 24 24 22 18 21 20 16 22 23 22 21 17 18 22 23 26 30 32 34
10 11 14 15 16 16 16 15 17 18 19 18 15 15 16 13 12 12 13 14 15 17 17 19 22 21 17 17 18 19 20 23 23 26 20 17 19 23 26 30 35 35 34
11 12 11 17 15 16 18 20 22 20 16 17 17 15 10 9 7 8 10 9 9 9 7 9 9 11 12 10 13 15 17 21 20 22 25 26 28 28 31 30 31 31 33
12 13 16 18 17 20 20 20 18 18 19 18 14 15 16 16 15 15 13 13 12 8 6 5 5 7 8 9 10 14 18 19 22 26 29 28 21 19 23 27 30 34 35
15 16 18 20 20 20 19 20 20 20 19 18 16 14 13 11 11 11 11 9 8 8 7 7 7 7 8 9 11 12 14 19 23 24 18 20 23 25 27 30 34 38 41
22 21 21 22 23 23 24 23 21 20 18 17 15 13 13 13 11 10 10 9 8 7 6 5 6 7 9 9 11 15 16 19 18 19 20 22 25 27 31 34 38 42 45
22 23 23 23 23 23 23 22 21 19 18 17 16 15 14 14 16 14 12 9 10 11 11 9 7 4 7 8 10 13 18 22 24 25 27 28 30 33 35 39 42 46 49
26 25 24 24 23 23 23 22 20 19 18 17 18 19 19 15 12 12 11 10 8 8 7 6 5 3 7 10 12 16 21 23 25 27 30 32 34 35 35 35 37 38 38
27 27 26 25 24 23 22 21 20 21 23 21 19 16 13 10 9 9 10 10 8 7 5 6 7 6 8 9 16 21 23 24 26 29 32 33 33 35 34 32 29 28 30
28 27 26 25 23 21 21 23 22 19 17 16 15 13 13 13 12 12 12 10 8 11 11 8 8 9 11 14 20 21 21 23 26 28 30 31 32 31 29 30 33 30 29
28 26 26 26 24 22 20 20 20 18 18 17 16 16 15 13 11 10 11 12 12 9 7 9 10 13 14 18 19 20 23 24 25 28 29 29 27 23 30 33 30 30 31
27 26 25 23 22 21 21 19 18 18 19 18 17 16 16 12 14 11 8 8 6 7 9 10 11 13 14 16 18 21 23 23 25 27 26 24 22 30 32 31 30 30 30
26 24 22 22 20 19 19 17 17 18 18 17 16 15 15 12 7 6 6 7 8 9 9 10 11 13 15 15 17 19 20 20 20 21 20 21 24 27 30 32 32 32 32

GFSMW_850_spd_039.txt.gz
Wind_Speed
25 17 18 21 25 25 27 32 35 36 36 37 35 36 36 30 30 30 23 22 23 22 22 22 22 23 21 21 21 21 21 21 18 15 15 15 16 18 17 16 17 15 15
30 24 21 20 26 30 31 33 35 38 34 31 34 36 33 32 30 28 27 28 27 25 26 24 27 24 24 22 23 24 25 24 22 20 20 15 15 21 21 18 20 18 17
35 30 28 28 32 36 37 38 41 38 36 35 34 33 29 28 28 29 30 29 28 24 29 27 28 26 24 23 26 26 26 23 22 20 17 9 6 7 12 16 21 21 21
35 34 32 32 34 33 34 38 40 40 38 35 32 33 32 34 31 29 31 29 28 28 32 29 29 30 26 22 26 27 27 23 17 19 20 21 14 7 5 7 13 24 24
39 39 37 35 35 33 35 35 38 38 36 33 33 33 37 33 26 27 29 30 31 31 31 27 29 30 29 26 27 25 28 26 23 26 24 22 17 10 14 17 16 19 26
42 40 37 36 35 34 34 34 36 37 36 35 35 37 36 35 36 34 34 31 34 32 32 32 32 28 30 31 29 29 28 31 31 31 31 28 24 19 17 23 24 28 21
46 46 44 44 40 40 39 39 37 40 39 38 35 36 40 36 40 32 30 32 29 29 27 33 31 34 34 34 29 27 28 32 30 31 32 35 34 30 31 26 26 21 23
41 48 46 46 45 43 42 43 43 42 44 43 43 40 37 40 35 37 34 29 30 31 38 34 28 32 36 36 30 27 28 30 30 31 29 33 32 30 19 22 26 27 29
35 42 48 48 48 47 48 47 44 43 46 47 46 47 47 43 44 37 39 25 38 38 39 34 31 29 31 33 33 32 29 29 29 28 26 28 23 18 23 25 24 25 29
41 37 44 48 50 48 48 49 47 42 42 45 50 49 48 47 45 43 35 27 31 31 36 43 35 31 32 35 35 29 28 26 29 28 26 22 23 25 23 22 23 22 28
21 29 41 36 42 43 51 51 51 39 36 38 45 49 51 53 45 40 41 35 27 32 30 33 30 31 32 34 31 26 25 27 29 27 24 23 24 24 20 23 21 24 27
14 10 11 21 14 26 47 40 48 51 46 32 46 48 52 47 40 38 33 32 28 30 24 20 23 25 25 23 23 23 25 27 27 26 25 25 22 22 23 20 23 25 26
16 15 13 10 11 11 9 21 47 52 47 37 39 41 34 27 29 30 22 20 25 21 18 21 20 19 18 20 20 19 21 24 24 24 22 22 17 21 17 19 22 25 27
19 22 18 14 12 11 8 11 27 31 24 24 24 21 18 17 19 21 18 20 18 20 19 17 16 16 16 18 18 17 18 20 21 20 18 18 19 15 17 20 23 25 28
18 23 23 20 17 15 14 13 15 19 18 20 19 18 18 21 19 15 14 17 17 15 15 16 17 19 19 18 18 16 17 15 15 15 16 21 16 18 22 25 29 30 32
30 20 20 24 22 21 20 19 17 18 19 19 20 20 20 19 16 16 17 15 14 13 15 16 17 18 19 17 14 10 9 11 12 17 19 18 21 25 22 17 16 18 24
21 19 20 27 28 27 25 25 23 20 19 20 20 20 18 16 16 14 15 14 13 12 12 13 13 13 12 10 10 9 10 12 15 18 19 19 21 16 21 24 26 28 30
25 25 25 28 28 27 27 28 24 22 21 20 19 18 18 16 15 15 13 12 10 10 10 10 10 10 10 8 8 10 13 15 14 16 17 18 20 22 25 30 34 36 37
28 27 27 28 29 29 27 25 23 24 24 23 21 21 20 20 17 15 13 12 12 12 11 9 10 11 10 8 10 10 11 14 15 15 19 20 23 26 30 34 37 39 40
28 30 28 28 26 24 24 23 25 25 24 22 20 18 16 16 15 14 14 15 14 12 11 12 11 12 11 11 12 14 15 16 17 19 20 21 22 25 26 29 31 35 36
30 29 28 28 26 25 24 24 25 24 23 22 22 21 18 16 14 15 15 14 14 13 13 14 15 13 12 13 14 14 15 17 19 21 21 22 24 25 25 23 24 26 31
29 28 29 28 26 26 26 26 25 24 24 23 21 19 18 17 16 16 15 14 15 15 15 15 14 12 12 14 15 15 16 19 20 21 24 24 24 23 21 20 21 28 30
33 31 30 29 27 27 27 28 27 26 25 24 22 19 15 15 14 17 18 17 15 14 15 15 15 15 16 16 16 17 18 19 20 22 23 22 21 19 20 22 27 26 26
32 31 30 31 28 27 27 27 28 27 26 24 20 19 19 21 21 20 20 19 18 17 17 17 17 16 15 16 17 18 19 20 20 21 21 20 20 20 22 25 26 27 26
31 29 31 29 27 27 27 26 26 25 24 23 24 25 25 25 24 22 18 16 16 15 14 15 15 16 17 18 16 18 18 19 20 20 19 20 21 24 25 26 27 28 28
29 28 29 29 27 26 25 23 22 23 25 26 25 24 22 20 18 16 15 13 10 11 11 12 13 13 15 14 14 16 16 17 18 17 18 19 21 23 25 27 28 29 29

GFSMW_850_spd_042.txt.gz
Wind_Speed
17 11 15 18 20 22 26 35 39 41 42 44 45 46 48 42 36 39 40 21 19 20 22 20 20 24 23 21 21 23 24 24 21 19 18 18 18 18 17 18 17 17 17
22 17 17 20 23 25 28 34 38 39 42 42 40 43 40 39 36 44 39 26 21 25 24 22 23 28 26 27 24 25 26 24 23 24 21 19 21 22 22 22 21 20 21
31 26 24 24 24 28 29 31 35 36 37 38 38 33 33 36 32 44 41 32 28 27 26 27 28 30 30 30 29 28 27 26 27 26 23 10 14 13 18 24 23 24 23
36 33 31 28 28 29 29 32 35 35 33 37 39 37 39 42 44 40 35 35 35 31 32 32 30 32 33 31 30 28 28 27 29 29 27 27 23 16 15 20 18 21 25
44 42 38 34 32 30 32 34 37 38 35 36 39 39 45 45 42 39 40 36 37 38 32 31 29 33 35 35 33 31 32 32 34 29 34 30 29 28 26 21 24 17 19
50 46 41 36 35 36 36 39 41 42 41 38 40 46 48 46 42 40 39 36 37 37 33 30 32 32 37 35 35 34 33 33 32 32 31 33 32 31 30 28 29 29 32
47 49 45 44 41 43 43 43 48 47 45 45 45 46 46 44 42 41 39 37 35 36 36 36 30 33 36 35 37 37 34 31 33 28 32 31 34 34 32 31 33 33 33
46 49 50 47 45 45 45 46 46 47 47 47 46 45 44 44 45 44 43 41 40 37 33 36 33 29 28 33 38 36 34 29 32 28 32 30 31 32 34 35 33 29 26
45 50 50 49 47 46 47 48 48 47 47 49 48 46 45 47 47 45 46 44 41 34 39 30 31 27 30 31 37 38 34 33 33 29 30 28 27 29 32 30 24 20 25
42 49 49 50 49 47 45 47 49 50 51 51 50 49 48 47 46 46 45 40 39 40 32 30 34 36 35 34 39 38 35 35 34 30 29 27 29 29 32 28 23 21 26
40 45 46 49 50 48 47 48 49 51 52 51 49 50 50 50 49 49 46 43 43 39 28 34 34 38 38 38 38 35 34 34 31 29 28 28 30 29 29 26 27 30 27
31 36 42 43 47 49 51 49 50 51 53 52 45 42 39 39 41 42 46 44 31 26 34 41 33 33 36 34 32 32 33 32 26 25 27 28 29 26 23 23 26 25 24
21 21 23 32 38 38 41 47 50 54 55 47 43 40 33 31 44 40 41 36 39 38 39 34 30 25 27 28 27 27 25 21 21 23 26 27 24 22 24 21 22 21 23
24 26 26 26 25 25 23 26 33 38 46 49 50 48 37 34 38 37 39 43 39 38 41 31 25 23 23 22 22 21 19 20 22 23 22 21 21 23 21 17 18 22 26
27 29 28 24 22 20 20 21 22 27 43 45 43 46 45 34 31 36 35 32 38 33 29 27 25 21 20 20 20 20 18 19 18 19 18 18 18 18 22 19 23 26 29
26 30 30 26 25 22 21 21 18 22 33 40 38 36 34 34 30 28 27 26 27 26 24 22 21 21 22 20 19 18 16 16 16 16 16 16 16 23 21 23 23 20 23
31 30 34 33 30 27 28 25 22 21 25 26 30 27 29 28 28 29 26 25 23 22 20 20 21 21 20 20 19 17 17 15 15 15 17 20 23 21 24 24 23 24 24
33 29 34 34 32 31 29 24 22 23 26 26 28 31 31 30 27 25 23 22 22 19 17 18 19 20 19 17 18 18 16 15 17 19 19 19 20 22 24 25 28 30 31
34 34 35 34 37 34 31 27 24 23 22 24 25 25 24 22 21 21 21 19 18 17 17 16 16 16 18 17 17 16 16 17 18 17 17 18 21 23 26 28 29 30 30
33 39 35 33 35 33 31 29 25 24 23 21 20 19 19 17 18 17 18 17 16 16 15 16 15 16 17 17 15 15 15 15 15 17 19 21 23 23 23 26 28 30 31
32 28 29 33 34 33 31 28 25 23 21 22 22 21 19 17 16 16 16 16 17 17 17 17 16 16 15 16 17 15 14 15 16 18 20 19 20 22 24 26 24 25 28
30 30 32 32 33 32 29 26 24 24 24 23 21 20 18 17 17 17 18 18 18 17 18 20 22 21 20 18 17 15 15 16 17 17 18 19 20 22 22 22 22 24 26
29 29 31 32 30 28 25 25 25 25 24 22 20 18 16 15 14 15 17 17 17 18 19 20 21 21 20 18 17 16 16 17 17 18 19 20 20 19 18 19 21 22 24
33 31 32 30 28 26 24 22 24 23 21 19 18 18 18 18 18 18 17 17 18 18 18 18 18 18 17 15 14 15 15 17 17 17 16 17 18 17 18 19 20 21 22
31 31 31 30 28 26 24 23 22 22 20 20 21 20 19 19 20 18 17 18 15 12 12 14 14 14 15 15 15 16 17 17 17 17 17 17 17 18 18 19 20 21 22
31 29 28 28 27 25 24 22 22 22 23 22 20 20 19 19 18 19 19 16 13 12 11 11 12 13 14 16 16 16 17 17 17 16 16 18 18 19 20 21 23 23 24

GFSMW_850_spd_045.txt.gz
Wind_Speed
11 11 9 15 17 17 20 24 30 33 35 39 41 41 45 37 34 30 25 25 20 18 17 15 15 16 19 19 19 18 21 20 18 16 16 17 18 18 18 17 16 17 16
19 16 13 16 18 19 21 25 31 30 37 42 44 44 46 37 38 31 35 30 27 26 20 18 19 20 20 23 23 21 22 24 21 22 21 19 22 24 23 23 22 23 20
25 22 19 18 18 20 23 24 29 33 35 34 40 44 47 42 41 39 40 37 29 24 22 22 24 21 23 27 27 26 26 27 25 27 24 11 15 16 21 26 26 27 24
29 26 23 23 20 20 23 26 28 32 34 35 39 41 45 47 46 44 39 39 36 31 26 23 27 24 27 28 31 30 32 30 30 28 31 32 26 18 14 23 27 24 25
36 33 30 25 21 21 23 25 28 32 36 39 40 42 43 43 43 47 47 51 45 43 33 30 28 29 31 32 33 34 37 37 33 32 33 34 34 32 32 25 25 24 25
38 37 34 31 27 26 26 27 30 33 36 38 41 41 41 40 41 44 44 44 48 48 40 33 33 35 33 32 34 37 38 38 36 33 35 35 36 34 35 33 35 32 31
38 40 41 39 33 32 32 32 32 33 36 39 40 43 45 43 42 45 47 51 50 46 38 37 41 38 34 34 35 36 40 40 40 36 34 34 34 36 33 32 31 29 28
37 41 44 44 40 36 35 36 37 39 40 41 41 40 43 45 47 48 49 46 44 40 38 38 38 39 37 32 33 35 36 37 41 34 32 35 32 34 35 35 30 30 33
38 41 45 46 46 43 41 41 41 41 42 42 41 42 42 44 47 50 46 47 45 43 41 39 39 40 37 30 39 28 33 38 37 33 38 36 32 34 35 31 30 34 30
37 40 42 46 46 47 46 45 46 45 44 46 46 45 45 46 48 51 51 50 48 46 42 42 42 38 39 31 36 35 38 34 37 37 41 38 33 32 30 26 30 32 32
36 41 42 43 46 47 49 50 48 50 52 51 53 53 52 51 49 48 47 49 49 46 41 43 38 30 36 35 37 39 39 33 33 40 39 37 35 27 27 27 30 31 26
29 38 42 41 44 47 47 50 51 51 52 54 53 53 51 49 44 40 45 48 48 39 46 39 31 33 42 40 37 37 34 33 36 39 35 35 29 25 27 28 29 26 26
18 32 37 38 42 44 45 46 46 47 51 53 55 55 53 50 51 47 37 42 53 49 44 28 36 42 34 31 35 35 33 34 33 34 28 24 22 24 25 25 24 25 26
21 23 28 32 38 41 42 44 43 41 47 48 50 51 51 51 48 49 43 40 44 41 34 38 35 41 36 33 29 27 28 30 28 23 20 21 22 23 22 24 25 26 25
23 24 28 26 26 30 33 35 33 36 41 44 45 47 45 45 47 48 41 39 40 40 37 40 40 46 39 35 29 27 25 23 21 20 20 21 21 22 23 24 25 25 25
19 29 32 29 28 29 29 27 28 27 29 34 38 40 42 41 39 42 39 35 37 37 41 35 42 34 30 25 23 21 23 24 22 20 21 20 22 22 21 23 23 24 27
27 26 33 33 34 33 32 29 27 22 23 26 29 35 39 41 43 46 44 40 31 29 29 31 27 24 24 23 24 26 25 23 23 22 22 25 24 22 21 21 24 27 24
37 35 33 32 35 37 34 30 28 24 22 25 27 30 34 38 40 42 36 27 27 24 26 25 26 25 25 26 27 26 25 23 22 23 24 22 21 22 24 25 25 23 25
33 34 32 38 35 40 36 33 29 25 24 25 25 27 28 28 27 26 26 28 25 26 26 26 26 26 26 26 26 24 23 23 24 23 21 21 21 21 25 22 24 25 25
24 27 37 39 34 37 37 32 29 26 26 26 24 22 20 18 22 24 25 24 23 23 22 22 21 22 22 21 21 20 20 20 20 19 20 21 20 21 23 24 24 25 26
33 33 26 29 33 34 33 33 27 25 24 23 21 21 21 23 24 24 23 23 22 21 21 21 21 21 21 22 19 17 17 17 17 16 17 19 21 22 23 24 24 23 24
29 27 21 28 28 30 30 28 26 25 22 20 21 23 23 22 22 23 24 24 23 23 23 22 23 22 21 20 20 19 17 17 17 18 19 20 21 22 22 22 20 22 22
14 15 20 26 26 28 28 27 25 22 20 20 20 22 22 22 21 22 23 23 22 22 23 23 22 22 21 20 19 19 18 17 16 17 18 20 21 21 18 18 20 21 22
19 23 25 25 26 26 23 19 17 18 19 21 22 22 21 21 20 19 19 19 19 19 18 21 21 21 20 18 17 16 15 15 17 18 18 18 18 18 18 18 19 20 22
14 19 22 23 23 22 20 19 17 19 21 21 22 21 20 20 21 20 19 18 18 15 14 15 16 16 17 15 14 14 15 16 16 15 15 15 16 17 18 19 19 20 21
15 15 17 20 21 20 19 19 19 19 18 20 21 20 19 20 19 20 20 17 14 14 13 13 13 14 14 15 15 16 16 16 13 13 14 15 16 17 18 19 20 21 22

GFSMW_850_spd_048.txt.gz
Wind_Speed
13 10 9 13 15 16 17 21 32 31 35 40 33 38 39 40 40 35 29 27 29 26 24 19 17 16 14 12 13 14 15 13 14 14 16 15 17 18 18 17 18 18 15
18 16 15 14 19 19 18 19 31 34 36 41 39 40 41 39 39 38 30 30 26 26 22 20 20 16 14 15 16 17 19 18 19 20 19 18 22 24 22 21 23 21 20
23 21 20 17 20 22 23 23 24 28 33 39 36 40 38 36 40 38 33 36 33 31 23 25 19 18 17 18 17 20 23 21 21 24 23 10 14 13 16 19 21 21 22
27 25 22 21 21 20 20 20 24 27 30 35 41 42 43 46 49 43 35 32 31 36 28 24 22 22 21 21 20 21 25 26 27 29 31 30 30 18 11 18 16 19 20
31 31 28 23 18 20 21 21 23 27 30 35 38 43 44 48 50 46 41 37 41 38 38 28 24 25 24 24 24 24 26 31 34 37 36 33 33 33 33 28 26 25 25
31 31 30 26 22 21 23 25 27 28 33 36 36 39 43 48 50 50 47 45 44 46 45 39 35 31 29 27 28 28 31 34 37 39 40 39 36 34 33 35 35 32 28
32 32 32 32 29 25 25 25 27 30 34 36 39 41 40 42 46 50 48 50 50 51 48 47 44 41 35 32 32 35 35 35 36 37 41 42 39 38 39 35 33 31 26
31 33 33 32 31 29 27 28 29 30 32 35 36 37 40 42 46 45 46 47 50 51 51 49 46 42 39 36 38 41 39 36 32 36 38 37 40 39 40 39 31 31 31
26 33 34 32 32 33 32 30 31 31 33 34 34 37 39 43 44 42 41 42 42 43 43 40 41 41 43 41 38 38 41 38 31 30 35 34 35 36 37 37 34 32 25
21 28 32 32 32 32 33 33 33 33 34 36 37 38 38 39 40 40 40 41 39 40 39 40 42 43 44 45 44 36 38 39 33 40 37 36 33 35 39 37 35 32 27
23 22 28 31 31 33 35 36 37 37 37 38 39 41 40 37 34 33 33 35 37 43 44 45 44 45 44 48 47 31 34 35 38 34 36 34 33 38 38 36 31 29 27
21 25 23 28 31 32 35 38 40 42 42 41 42 42 39 42 41 43 39 31 41 45 44 48 48 41 45 40 36 36 35 35 31 33 31 32 35 35 32 32 27 24 25
18 22 21 25 27 30 33 34 36 40 44 45 45 44 46 46 46 48 41 45 45 39 34 43 43 46 48 43 34 30 35 34 32 32 32 31 30 30 28 24 23 24 25
16 22 20 22 25 28 33 33 33 34 36 41 46 48 50 51 52 49 46 50 54 49 47 43 44 44 41 41 38 39 31 30 29 27 26 26 26 22 22 22 22 24 24
22 20 21 21 23 28 31 31 29 32 32 32 36 38 43 47 47 47 49 52 52 51 49 49 42 40 38 38 36 36 35 30 25 24 24 22 20 20 21 22 23 23 20
22 24 25 25 27 25 25 29 27 28 30 32 32 32 35 39 40 39 41 44 49 50 47 43 38 41 39 43 37 38 35 27 23 21 21 22 22 21 23 22 19 18 20
29 27 23 26 29 29 26 28 30 29 30 33 33 33 32 34 34 33 37 39 42 42 40 36 34 37 35 36 34 28 23 21 20 21 22 23 23 22 21 20 18 19 20
27 32 34 32 29 32 36 32 33 30 28 31 31 29 27 28 31 33 35 37 38 35 32 32 36 32 27 26 23 22 20 19 20 20 21 21 22 21 19 17 18 20 25
25 24 31 35 36 35 36 35 34 33 30 30 27 25 24 25 28 30 32 35 36 34 32 26 26 23 22 22 21 20 22 21 21 21 21 21 22 21 18 17 22 24 22
25 28 29 30 29 34 37 35 36 35 31 29 24 22 20 19 20 20 22 23 24 25 24 23 20 18 18 19 20 22 21 20 21 22 22 21 18 17 18 24 23 22 22
35 30 30 28 24 26 27 30 34 33 29 24 20 18 13 10 10 11 17 22 25 26 24 21 18 18 18 18 17 15 15 16 18 17 16 15 18 19 22 22 22 23 23
29 28 25 26 24 21 22 28 30 28 22 18 16 13 10 13 17 20 24 23 22 20 18 18 20 19 19 18 17 15 14 14 13 16 18 18 18 20 21 21 22 23 23
15 17 15 17 16 17 20 25 24 20 18 15 15 14 16 16 17 18 18 17 16 16 17 17 18 19 19 18 16 16 16 16 16 17 17 17 19 20 20 19 20 21 21
4 4 7 10 12 14 14 14 15 15 15 16 16 18 18 19 16 14 12 12 13 14 15 16 16 15 15 15 16 16 17 17 16 16 16 17 16 16 17 18 19 19 21
3 3 5 11 11 12 15 16 13 12 15 17 17 18 17 16 16 15 12 10 9 8 9 11 12 13 15 16 16 15 14 14 15 15 14 14 13 17 17 17 18 19 20
6 6 11 14 14 13 15 14 13 14 14 16 18 17 17 17 15 14 16 16 14 13 13 13 14 16 14 14 14 14 14 15 14 13 11 11 14 16 17 18 19 20 22

GFSMW_850_spd_051.txt.gz
Wind_Speed
13 11 9 12 14 13 16 19 30 27 33 36 36 41 40 40 42 44 35 37 36 31 28 25 23 23 21 17 14 12 12 13 14 13 13 15 15 17 18 17 16 16 14
19 16 14 14 17 17 17 22 23 31 33 37 36 40 42 41 41 35 35 38 36 32 28 27 25 25 21 21 16 14 15 17 16 16 16 15 18 23 22 22 21 19 18
25 23 20 16 15 20 22 22 24 30 36 35 37 38 36 37 40 40 39 36 35 32 31 28 26 22 22 21 18 15 16 19 19 19 18 8 11 11 13 14 15 18 20
27 25 23 21 20 18 21 23 24 30 34 40 37 45 43 43 45 45 43 37 33 31 33 28 27 25 24 23 21 18 18 20 23 25 28 27 26 17 12 16 16 15 16
31 31 28 23 19 20 22 25 27 28 32 32 40 39 44 44 43 46 50 44 40 39 37 35 28 30 30 25 24 23 23 22 24 26 30 32 33 34 33 26 22 25 22
30 31 28 25 23 21 23 25 27 30 32 35 41 41 49 48 45 45 49 48 40 46 44 41 39 32 30 26 23 24 25 25 25 28 32 36 34 33 36 37 35 32 29
22 29 32 32 29 27 25 26 28 31 36 37 40 44 45 48 52 52 47 49 48 43 42 39 40 39 36 33 30 28 27 29 31 33 33 34 36 38 41 39 35 32 30
14 26 32 34 32 29 29 28 29 30 33 37 41 42 43 46 49 47 51 55 54 48 44 42 44 44 43 43 40 39 36 33 35 37 36 32 32 37 31 37 36 31 32
15 22 29 34 34 33 32 31 30 30 32 32 35 39 42 44 46 47 50 52 56 54 51 50 49 48 48 48 47 47 45 40 38 37 38 37 27 28 31 36 40 38 26
12 17 24 31 34 34 35 34 32 31 30 31 33 35 37 40 43 44 45 47 49 51 52 50 51 50 51 51 46 44 42 41 41 40 41 40 48 40 38 40 37 34 36
11 15 18 25 30 32 34 36 37 36 36 35 35 37 38 39 40 39 38 38 39 40 39 37 40 41 43 43 42 43 44 40 39 49 48 39 34 36 37 35 36 37 33
12 12 17 19 25 31 32 35 38 40 39 38 39 39 39 39 39 39 41 42 44 39 33 41 40 40 42 41 43 46 45 39 39 36 29 32 32 32 34 32 34 34 33
11 10 12 18 22 27 30 30 33 36 40 42 42 42 42 40 41 42 41 41 37 36 42 34 39 36 40 46 46 42 43 37 31 36 31 34 33 33 31 32 30 29 27
18 14 16 21 22 25 29 28 28 31 35 38 41 44 44 44 45 44 42 42 40 40 40 41 38 36 30 34 37 40 39 36 32 33 31 30 29 28 26 25 26 24 22
32 23 22 21 22 22 26 26 25 26 28 30 33 34 38 42 44 46 45 45 44 44 45 44 45 44 43 46 47 42 33 37 35 36 34 30 24 22 21 21 21 21 21
30 29 25 23 24 23 23 25 23 25 27 27 27 30 31 33 36 37 40 41 43 46 48 49 47 49 50 46 41 33 31 32 34 33 32 28 24 22 21 22 22 22 22
27 28 27 29 26 26 25 27 25 27 29 28 29 30 30 28 28 31 33 33 35 35 39 43 43 41 36 35 29 33 36 35 34 33 28 25 21 21 22 22 22 21 20
24 20 27 31 34 32 27 27 31 30 29 31 31 31 29 27 27 29 28 29 30 31 31 29 29 29 28 24 28 29 30 27 24 24 23 21 21 21 21 22 22 20 18
32 35 35 25 27 34 35 33 33 36 33 32 34 34 31 28 27 26 26 24 22 23 28 29 31 30 27 29 29 26 25 24 23 21 20 20 21 22 24 21 18 15 16
32 35 32 32 27 24 29 34 37 36 36 34 34 33 29 27 22 20 18 19 21 25 26 26 28 28 24 22 20 20 21 21 20 20 21 23 22 21 19 15 13 14 16
29 33 38 36 31 24 21 24 29 30 32 32 29 27 25 23 18 14 17 18 20 23 25 25 23 21 19 19 16 15 15 16 18 21 22 20 17 13 12 13 14 15 16
29 25 29 33 27 20 18 19 23 28 27 25 23 21 19 16 15 15 17 18 19 22 22 23 23 20 17 16 14 13 12 15 15 15 12 11 11 12 13 15 15 16 16
24 19 17 17 17 15 14 17 19 20 20 21 22 19 19 16 14 17 20 18 19 20 20 17 15 16 17 16 17 17 15 14 11 10 9 9 12 14 16 16 14 15 15
15 11 5 2 5 7 8 11 15 18 20 20 21 20 18 17 17 16 16 16 16 15 13 15 16 16 16 15 15 14 13 11 10 9 9 11 12 12 13 12 15 17 18
7 4 4 6 12 11 15 17 18 19 21 21 22 20 19 19 20 19 16 13 13 9 9 10 10 11 12 13 11 11 10 10 9 9 8 9 11 13 14 15 16 17 18
4 8 10 9 9 9 15 16 17 18 19 20 21 21 20 19 17 16 18 16 13 12 9 9 11 14 11 11 11 10 9 9 7 8 8 9 12 14 17 19 20 20 21

GFSMW_850_spd_054.txt.gz
Wind_Speed
13 13 11 11 15 15 18 22 24 24 23 26 38 36 34 48 49 44 44 29 35 34 32 24 28 24 19 19 21 16 16 15 16 13 11 12 15 16 14 15 16 16 15
17 16 14 14 16 17 19 21 25 27 28 30 34 36 37 46 48 47 48 32 33 33 33 26 28 28 20 22 23 19 17 14 18 13 11 11 13 18 21 21 21 21 20
23 20 19 17 16 19 20 23 28 29 30 33 39 39 37 44 44 54 41 37 32 32 30 34 27 28 26 25 24 20 17 15 16 18 11 9 12 11 13 17 20 21 22
24 22 22 20 19 19 20 22 28 31 30 31 39 42 44 43 44 49 48 32 30 34 31 33 31 30 28 27 21 21 20 19 18 18 23 21 14 12 12 10 15 19 18
25 26 25 22 20 20 22 23 27 29 32 37 40 38 42 44 43 46 48 36 35 36 38 35 34 31 28 26 24 25 25 22 23 19 16 19 21 21 23 24 19 23 27
23 25 23 22 21 20 21 23 25 30 34 39 41 40 44 44 44 47 49 43 38 39 42 38 35 32 30 30 30 28 27 27 26 25 21 20 18 19 22 24 28 26 32
19 24 27 27 25 25 25 25 27 29 34 39 42 44 42 48 44 47 51 49 46 43 42 39 37 36 32 31 31 30 27 26 26 26 26 22 23 25 25 24 33 29 36
16 22 28 29 29 29 28 28 28 28 31 37 42 38 40 47 47 43 50 51 51 52 49 45 45 44 41 39 37 35 33 31 33 32 31 25 24 29 34 32 31 31 32
15 17 25 31 30 31 33 33 31 30 30 33 37 42 40 41 47 44 48 50 51 50 53 54 56 55 52 46 44 42 40 33 32 38 40 34 35 34 33 30 30 27 27
11 16 23 29 30 30 30 33 33 31 31 32 34 36 40 42 41 43 48 55 55 57 54 55 57 53 52 51 48 49 46 37 36 35 34 39 38 39 37 36 40 50 54
9 11 19 24 28 28 30 34 34 32 33 34 35 35 39 41 43 47 49 51 56 59 60 61 58 60 58 55 49 45 46 45 43 40 45 41 37 42 43 47 40 36 41
13 8 14 19 25 29 30 33 35 36 36 34 35 38 35 37 41 49 50 51 54 50 55 54 58 60 53 48 46 43 45 38 36 42 42 38 37 40 27 30 30 36 37
14 8 8 16 21 26 30 33 36 39 37 36 37 37 40 41 44 45 45 45 45 43 43 44 46 46 47 41 47 46 40 38 38 38 39 41 37 33 32 36 34 35 32
20 15 11 13 18 23 28 31 34 36 37 36 38 40 43 44 43 42 43 43 43 42 42 44 44 45 43 42 40 38 40 35 40 38 41 37 38 37 33 31 33 32 30
23 18 16 15 16 21 25 27 30 33 36 36 37 44 45 45 42 43 42 42 43 44 42 40 40 39 36 39 34 32 32 33 36 38 33 34 33 36 35 33 32 29 28
28 24 20 18 18 20 24 24 28 32 33 36 39 37 37 38 41 41 41 39 41 41 39 39 38 37 38 43 43 41 39 38 37 36 33 33 37 37 34 34 29 24 25
29 29 28 21 18 18 23 27 28 26 32 34 33 34 34 35 35 34 35 36 36 32 33 33 33 34 34 37 43 42 40 40 35 33 32 35 36 35 33 28 25 25 26
31 31 30 27 20 19 18 23 22 26 31 32 31 31 33 33 30 29 29 28 28 28 29 31 32 34 35 34 30 25 28 29 31 31 29 32 34 32 28 27 25 25 25
30 33 31 30 30 24 18 21 21 25 28 33 33 31 31 30 29 29 27 24 26 28 29 27 26 26 26 26 27 29 28 30 30 30 29 28 26 26 22 25 25 25 24
30 34 32 31 28 30 22 22 23 25 30 33 30 28 29 29 27 25 28 29 25 22 22 24 24 26 28 29 30 28 27 29 29 27 25 23 23 25 25 24 21 19 17
31 34 31 28 25 23 23 26 25 27 26 27 29 27 25 27 34 32 27 24 21 22 23 24 23 23 22 22 20 19 21 23 25 24 23 22 22 23 21 18 15 14 12
32 32 31 27 21 19 18 19 17 24 27 30 29 30 29 29 28 27 23 20 19 20 21 21 20 19 19 18 17 15 15 18 19 21 20 20 19 15 12 10 10 10 8
30 29 26 24 21 14 8 10 18 20 20 21 23 22 22 23 24 22 22 24 20 21 21 20 19 19 18 17 14 12 12 15 17 16 15 13 9 8 9 9 5 5 8
38 30 24 19 15 9 6 8 11 14 17 18 22 24 26 24 22 21 18 17 17 20 19 20 20 18 16 15 16 17 17 16 15 13 10 9 8 5 5 5 6 9 11
36 26 20 14 10 7 0 7 12 15 20 24 25 25 24 23 22 20 20 18 19 17 18 18 17 18 19 18 17 15 14 11 8 6 4 3 1 3 5 8 10 13 15
17 20 16 10 8 5 8 8 8 13 19 23 25 26 27 27 25 25 26 21 18 16 13 14 13 16 13 14 12 11 8 5 3 2 1 2 4 6 9 9 10 12 12

GFSMW_850_spd_057.txt.gz
Wind_Speed
13 14 14 13 13 14 17 18 17 16 15 21 32 32 33 35 42 38 33 34 29 30 25 24 22 21 20 18 19 18 17 16 16 15 13 13 14 15 14 14 14 15 15
16 17 16 16 16 17 18 19 21 21 19 22 34 33 37 42 46 45 34 38 35 34 33 27 23 25 19 19 20 19 17 16 17 17 14 13 14 17 20 18 18 18 18
19 19 19 18 17 18 19 23 22 24 24 24 32 30 38 38 44 43 39 43 37 28 33 26 27 29 23 23 24 21 19 17 17 19 14 13 16 16 18 18 21 21 21
18 21 22 21 19 19 19 22 24 25 27 27 33 35 39 44 49 49 47 44 38 33 37 31 26 24 28 24 24 22 21 18 18 15 25 22 14 7 8 12 14 20 21
19 22 24 23 21 20 21 21 25 27 30 31 32 34 37 39 51 49 47 43 39 39 34 31 29 27 27 27 25 25 25 24 22 19 16 19 20 19 16 16 14 16 19
17 20 23 23 22 21 21 22 24 29 29 32 33 36 37 40 47 54 53 47 40 40 40 34 33 34 33 30 31 29 28 27 24 24 23 21 17 17 20 20 20 21 21
15 19 24 26 25 25 25 24 26 27 33 35 35 37 41 44 42 49 48 58 45 41 39 38 35 36 37 37 32 30 32 29 27 26 26 26 25 20 23 20 21 24 24
12 16 23 27 27 28 28 27 26 27 31 38 37 36 35 41 39 46 50 55 59 54 45 40 41 43 41 40 37 36 33 35 31 31 30 26 26 24 24 24 23 22 24
12 14 18 26 28 29 30 29 27 27 28 32 40 40 40 37 39 40 43 49 55 59 54 49 46 45 46 45 42 40 38 33 32 36 35 35 32 30 30 30 28 30 25
10 14 16 22 28 29 29 29 29 29 28 29 35 40 42 42 42 43 42 46 50 53 48 54 51 49 48 48 45 45 44 41 39 38 38 38 37 34 34 35 34 34 37
7 8 11 16 24 28 30 30 30 30 30 30 31 32 41 41 41 42 48 44 42 47 47 45 48 49 49 47 43 46 47 44 44 44 40 39 38 39 40 40 35 34 37
6 6 5 10 18 25 29 31 30 32 32 33 33 34 33 37 43 46 47 48 44 44 43 47 44 45 47 46 46 45 45 45 45 44 43 45 46 43 44 39 35 28 33
13 11 4 6 14 21 28 31 31 32 32 33 36 39 41 41 43 45 48 48 49 47 46 44 44 48 46 44 46 46 46 45 45 45 45 44 46 44 44 42 42 37 36
16 16 15 9 11 17 24 30 32 31 31 33 36 39 44 45 46 46 47 48 49 48 49 48 48 49 48 47 48 46 46 46 46 48 48 46 43 43 43 44 44 40 36
18 20 21 17 16 16 21 26 30 32 34 36 37 43 46 46 41 42 43 46 45 48 46 46 48 48 47 49 47 45 46 47 51 47 44 46 42 42 39 44 40 37 37
21 20 21 21 20 20 19 23 27 32 33 36 43 43 39 40 43 43 45 43 44 44 44 44 44 45 46 47 46 45 42 45 42 40 40 41 38 40 44 44 37 37 39
24 25 24 23 22 22 19 19 24 26 31 37 41 39 41 41 44 44 40 43 44 41 43 44 44 44 42 42 43 43 43 40 40 43 44 44 43 42 39 41 41 38 35
23 26 26 25 24 23 23 23 21 25 30 33 36 37 39 42 40 40 42 42 42 42 41 40 39 38 38 39 39 38 38 38 41 47 47 44 39 37 37 37 35 31 29
21 24 27 28 26 24 24 25 25 24 28 32 35 36 38 39 38 39 42 41 39 37 36 33 33 35 36 38 38 37 39 40 41 43 43 38 34 32 31 32 29 27 24
22 25 26 25 25 24 23 23 25 26 27 31 35 35 32 35 37 37 35 35 33 34 38 35 36 35 34 35 34 34 36 39 39 38 35 32 29 30 28 26 27 25 22
24 25 24 23 24 27 26 23 24 26 27 26 27 29 32 33 33 30 29 38 42 40 36 36 34 31 30 31 30 30 27 27 31 29 25 21 20 21 24 23 20 15 12
23 24 25 25 30 31 31 28 22 21 19 23 21 28 31 33 36 41 42 37 36 35 34 32 28 22 22 23 17 14 17 18 20 19 17 17 17 18 15 12 10 9 7
20 22 24 26 29 30 27 23 21 25 25 22 25 30 33 31 32 32 33 33 32 30 29 25 22 18 16 14 15 11 9 10 15 17 18 18 16 12 12 8 5 5 3
21 24 27 28 30 32 27 22 20 19 19 17 20 23 25 26 25 25 27 29 28 26 25 24 21 19 17 16 18 18 17 18 20 20 18 15 9 5 2 2 4 5 7
19 20 25 25 27 25 26 20 14 12 14 15 18 22 23 23 25 25 22 22 22 21 21 22 22 23 21 19 18 17 18 17 14 12 8 5 3 4 4 5 7 8 8
19 19 20 20 21 22 20 17 11 5 8 14 17 22 27 24 25 29 29 21 20 20 20 21 18 22 21 18 15 14 11 8 8 8 7 6 4 3 2 2 2 5 5

GFSMW_850_spd_063.txt.gz
Wind_Speed
29 27 24 19 17 15 13 14 17 19 22 22 24 26 27 30 43 40 42 38 42 37 34 36 33 33 33 32 32 26 26 25 22 19 18 19 17 18 20 21 18 16 17
34 33 28 24 21 17 13 18 16 18 18 18 20 21 23 29 28 42 43 44 39 36 33 35 36 28 35 36 30 29 28 24 25 24 23 24 21 21 21 20 23 23 22
39 37 32 28 22 19 17 18 18 19 17 15 13 16 23 31 39 41 43 51 39 31 34 30 37 34 26 31 29 29 28 26 24 26 28 17 14 24 26 27 26 26 27
43 40 37 31 24 21 17 17 21 19 18 19 16 21 30 34 36 41 40 47 46 34 34 38 33 30 28 29 27 28 29 22 28 29 26 25 13 13 11 24 31 32 29
45 41 38 32 24 22 21 18 21 22 21 20 25 26 29 34 41 46 39 39 40 38 41 34 36 33 34 32 29 28 29 26 34 33 35 27 26 19 12 12 16 29 32
45 41 36 31 25 21 21 20 20 25 24 22 25 29 30 38 43 43 44 40 39 36 37 39 37 35 36 34 33 32 30 27 32 33 32 32 34 31 30 24 24 22 23
46 42 38 33 28 24 23 22 20 28 27 27 27 31 35 38 38 39 46 45 41 37 36 40 38 36 39 38 35 35 32 34 36 35 32 30 31 28 26 25 23 23 25
42 42 38 33 31 26 23 22 24 25 31 32 32 31 35 38 36 39 46 47 50 46 42 42 43 42 37 36 37 37 32 36 36 36 38 33 31 29 26 30 28 29 30
37 39 40 34 30 29 26 22 24 22 30 33 35 34 32 35 35 38 46 51 51 49 46 43 43 44 43 39 37 37 39 38 38 39 36 35 37 37 34 36 35 34 34
27 37 37 35 31 27 27 25 23 22 22 33 36 37 37 37 39 39 43 49 52 51 51 50 50 48 46 45 42 43 45 42 43 42 41 40 41 40 37 39 40 39 40
20 17 34 33 30 30 31 31 27 23 23 23 34 38 39 41 41 42 41 43 46 49 55 57 55 57 57 54 48 50 50 48 47 47 47 47 45 45 44 43 44 43 44
35 39 44 11 29 33 33 31 30 26 24 22 25 31 37 41 42 44 44 43 45 44 46 54 60 58 60 60 61 56 55 54 52 53 49 50 49 49 48 49 50 50 49
35 31 32 34 22 7 24 30 29 29 27 26 25 27 31 35 44 46 46 44 45 46 47 48 55 57 60 60 60 63 60 58 57 55 54 55 52 53 53 53 52 51 50
30 33 31 27 26 23 19 3 22 30 26 30 29 31 32 33 35 40 45 46 46 47 47 50 50 52 56 56 57 64 66 63 63 63 62 60 57 58 56 54 54 53 52
29 30 28 26 25 24 21 17 14 19 36 33 29 35 34 34 35 36 39 44 48 51 50 48 50 51 51 54 55 57 59 61 61 62 62 62 60 57 55 53 54 55 55
25 23 21 22 23 22 22 22 20 12 13 23 42 37 37 39 39 39 40 40 44 47 52 55 56 56 57 57 56 56 56 57 57 58 57 56 55 55 55 54 54 56 57
28 23 19 18 20 24 25 24 24 21 16 8 11 31 43 44 43 44 44 43 45 45 48 52 54 58 60 59 56 55 54 56 56 55 56 56 57 54 51 50 51 52 52
24 20 17 15 18 22 23 22 22 22 20 18 15 9 9 30 45 48 49 50 49 49 49 50 52 54 58 58 58 57 56 55 57 58 58 57 54 50 47 48 49 52 54
18 16 13 14 16 20 23 23 23 23 23 24 24 22 24 16 16 31 51 51 52 53 55 54 53 54 56 56 57 55 54 53 55 57 57 56 54 53 50 47 48 53 53
17 17 17 18 21 24 24 24 24 24 25 26 26 27 30 32 30 25 29 52 54 54 53 52 53 54 54 54 54 56 53 53 53 54 55 53 53 52 50 49 49 46 32
16 17 19 22 25 26 27 26 26 25 23 25 26 27 31 35 34 31 29 33 51 52 50 49 50 50 49 49 49 47 48 47 48 49 49 48 48 48 48 39 28 24 21
19 19 21 23 24 26 28 29 30 30 29 25 24 28 28 33 35 30 26 24 36 46 47 48 48 46 42 44 44 42 38 44 45 44 38 32 28 24 19 20 21 22 18
18 19 21 23 25 27 27 28 28 29 31 30 29 27 26 24 26 26 22 17 22 28 36 38 35 31 26 25 30 37 36 34 33 29 28 24 21 23 26 26 20 23 18
19 20 20 22 25 27 27 26 25 26 27 27 25 23 23 22 17 14 10 9 10 16 19 21 28 24 22 17 17 22 23 27 24 29 27 25 31 27 21 20 17 16 14
15 16 17 18 19 21 22 22 22 22 22 21 20 18 18 17 15 12 12 9 6 2 9 11 12 17 17 20 18 22 26 30 33 28 29 26 17 24 20 15 13 12 10
11 13 14 15 16 17 18 20 19 18 16 17 18 18 19 22 26 25 25 27 26 23 22 26 29 36 30 35 32 32 29 28 24 21 24 25 22 14 15 13 12 10 8

GFSMW_850_spd_066.txt.gz
Wind_Speed
38 32 26 25 25 21 16 13 21 26 25 27 27 25 25 28 33 36 41 44 43 40 39 38 38 38 40 36 34 31 30 28 23 29 21 18 16 15 15 15 15 15 14
35 34 31 30 29 23 18 14 22 27 30 28 29 30 28 27 29 38 46 45 44 41 40 39 40 39 39 38 34 35 35 31 26 29 28 22 18 20 20 18 19 19 18
42 39 38 35 32 27 21 17 18 26 29 29 28 29 29 32 29 40 49 51 42 41 40 41 39 41 39 40 36 39 34 35 32 26 24 14 11 26 25 25 23 23 25
45 44 42 38 34 28 21 17 17 24 27 27 28 27 30 31 33 34 42 49 42 42 40 37 38 42 39 38 37 38 35 33 35 31 27 22 17 15 15 29 30 28 27
48 48 47 39 35 28 23 19 17 22 25 24 22 22 22 22 21 30 30 43 42 42 36 33 39 36 39 39 40 39 35 33 35 38 25 29 32 20 18 16 24 32 33
48 50 46 40 34 29 24 22 19 22 25 26 26 22 25 22 27 31 35 42 42 33 34 36 41 39 35 28 31 26 35 34 37 28 26 36 34 31 25 21 18 18 18
44 44 44 42 35 32 28 25 22 22 25 27 26 27 25 27 28 31 35 42 51 44 35 32 34 36 37 31 28 36 38 37 38 34 34 36 37 35 32 30 30 30 27
44 50 47 41 36 32 29 26 24 21 24 27 26 29 30 29 30 36 41 44 49 51 44 41 37 34 33 31 36 41 38 35 39 34 33 33 38 37 36 35 30 26 25
41 48 44 39 35 32 28 26 23 22 21 25 28 27 30 32 34 40 42 39 41 44 49 45 44 42 43 43 44 41 40 38 40 38 36 36 37 38 34 33 33 32 31
39 42 41 37 33 30 27 25 22 19 18 21 25 29 29 32 35 38 39 39 41 44 45 45 43 42 45 45 42 44 44 42 42 41 42 41 42 40 41 42 42 42 41
14 21 27 29 29 29 28 25 23 20 20 19 23 26 32 33 34 38 39 39 40 46 48 47 45 45 46 47 48 46 45 47 45 47 47 45 46 46 44 44 45 46 46
33 19 14 9 10 16 20 24 24 23 20 18 20 24 25 32 36 37 38 38 39 42 48 49 50 50 50 50 52 52 53 53 52 50 49 51 50 50 48 49 50 50 50
36 41 36 24 18 10 2 8 17 22 23 24 23 23 26 28 32 35 39 39 40 42 44 48 55 55 54 54 55 57 57 57 58 57 56 57 54 56 55 54 54 54 54
32 35 35 32 29 26 24 16 7 3 20 28 28 30 29 29 30 30 32 36 39 42 45 47 51 53 55 58 62 61 62 64 66 66 66 64 63 63 59 58 56 56 56
33 32 29 27 24 20 16 12 8 9 5 15 27 31 32 32 33 34 35 35 36 39 42 45 47 48 53 55 57 59 62 66 64 66 66 67 67 67 63 59 61 59 57
33 29 25 25 24 23 20 16 12 10 5 5 4 14 26 30 36 38 39 39 40 42 41 44 48 50 51 53 54 56 58 58 60 61 63 62 63 66 67 64 57 55 54
25 23 22 23 24 22 20 19 18 14 10 7 7 4 8 12 24 34 34 42 46 46 47 46 45 48 52 52 54 53 53 55 57 58 58 58 60 59 58 55 52 52 53
22 20 17 17 18 16 16 19 19 18 17 15 12 11 13 13 15 14 24 38 42 43 50 51 50 51 50 48 51 53 54 55 58 58 57 57 57 56 54 52 52 54 58
17 14 13 14 15 15 16 15 15 17 19 21 21 20 18 17 19 21 22 22 31 39 52 52 54 54 54 51 49 49 52 56 57 56 58 60 59 57 55 54 53 54 56
15 13 14 14 13 16 17 17 17 17 18 19 21 23 25 25 24 23 24 28 31 33 43 48 51 53 55 53 52 49 49 55 59 60 63 62 64 61 59 58 58 59 56
16 13 15 17 19 19 19 20 21 21 21 20 20 21 23 25 25 26 27 27 28 33 35 39 48 50 52 54 55 52 52 53 59 58 59 63 65 64 61 60 55 55 48
16 16 16 18 20 22 21 21 22 22 22 23 21 20 20 22 23 25 25 24 26 25 24 30 39 43 45 48 52 53 53 49 51 53 53 43 38 30 27 31 37 33 32
14 15 16 17 19 21 22 21 21 21 21 20 21 23 23 24 21 20 19 19 18 16 15 16 20 18 14 22 26 28 39 45 38 33 16 22 25 24 24 27 28 18 25
16 16 16 18 20 21 21 21 20 19 19 20 20 21 23 25 24 23 23 19 15 12 8 4 3 2 2 3 1 3 9 18 21 24 22 22 27 24 31 25 20 19 12
12 14 16 18 19 19 19 20 20 19 20 20 20 21 21 24 29 29 33 31 25 17 14 14 13 13 15 13 13 18 23 27 30 31 29 27 29 29 21 25 21 17 15
10 12 14 15 17 17 18 20 20 19 18 19 20 20 20 21 24 29 32 34 34 34 32 30 29 28 25 24 26 26 25 28 25 26 27 24 22 21 16 14 15 11 11

GFSMW_850_spd_069.txt.gz
Wind_Speed
43 38 34 30 27 24 19 14 15 18 19 19 20 20 22 20 22 25 31 31 29 34 34 35 35 36 38 39 41 46 40 30 26 24 19 20 18 15 14 14 14 16 15
36 37 36 33 32 26 21 16 16 19 23 20 21 23 23 23 23 25 33 34 33 38 36 36 34 36 36 37 40 47 41 33 28 26 26 21 19 19 19 18 17 17 17
40 40 39 37 34 31 24 19 17 20 23 24 26 24 22 21 24 29 32 36 35 37 37 35 36 38 38 40 40 46 42 38 32 29 25 16 9 18 21 23 22 21 22
36 42 42 39 38 33 26 20 18 22 24 26 28 29 29 29 28 29 33 39 38 39 37 33 36 39 40 41 40 40 38 37 37 33 33 24 16 12 14 23 28 27 27
40 44 47 43 40 34 28 23 20 21 23 26 30 30 29 31 32 34 32 36 45 42 41 39 36 39 41 44 40 37 38 37 37 36 34 24 22 23 18 21 27 31 33
37 45 43 43 39 33 29 26 23 21 23 24 27 28 28 28 28 27 32 32 37 46 41 38 36 37 42 43 42 42 39 40 38 36 33 33 31 26 23 26 22 20 22
28 38 44 44 40 36 32 29 26 23 23 24 24 23 19 21 22 22 26 28 32 44 40 40 39 35 37 42 39 41 42 43 40 38 38 35 30 24 36 35 31 29 26
29 44 49 45 42 39 35 31 27 24 22 22 21 19 19 20 21 21 23 26 29 33 41 42 40 35 37 44 42 43 40 40 37 39 35 37 36 34 36 39 37 35 37
34 43 45 43 42 39 35 31 27 25 22 21 20 22 20 22 19 20 24 25 26 37 40 40 40 36 37 38 40 41 33 36 33 32 35 45 43 39 39 40 40 39 34
21 30 38 39 39 37 33 29 25 23 20 20 20 21 21 25 22 21 22 26 29 43 41 37 35 33 33 37 41 37 34 37 41 43 47 44 46 41 41 41 42 41 41
15 19 20 25 30 31 29 27 24 21 20 19 19 20 22 24 24 24 25 29 32 37 42 39 40 38 38 38 39 39 41 43 45 48 48 45 48 47 47 45 44 45 46
24 20 18 13 9 9 15 18 19 20 19 16 18 19 20 22 25 27 28 31 37 35 35 37 40 43 46 45 47 48 48 49 51 51 51 51 49 50 50 48 48 49 49
34 36 32 26 20 14 11 7 6 9 14 18 19 19 19 22 23 26 29 32 36 40 40 40 42 46 46 48 50 52 53 54 53 52 52 54 53 54 53 54 54 54 54
31 34 36 34 28 23 19 16 12 7 10 15 17 19 19 20 22 24 27 28 30 35 38 40 41 44 47 50 52 54 55 56 58 58 59 60 59 61 60 60 60 59 59
28 31 30 28 27 24 18 15 12 8 7 6 9 16 17 20 23 26 27 30 32 32 34 37 41 44 48 51 53 56 60 62 62 62 64 64 65 66 66 65 65 63 63
25 25 27 25 25 22 20 16 12 9 6 7 4 3 11 18 21 23 25 29 33 37 37 38 39 42 45 49 53 56 60 61 62 63 63 64 65 65 67 67 64 63 57
16 18 21 18 18 19 18 18 15 11 7 5 2 2 5 9 12 16 24 26 31 31 36 39 42 45 46 47 48 48 52 55 58 61 62 62 62 62 62 61 61 60 59
11 14 17 13 14 14 14 14 12 11 10 8 8 7 6 7 10 13 16 19 25 29 31 37 42 45 48 48 50 52 50 49 53 55 59 61 61 61 59 57 57 55 54
13 12 11 10 8 11 12 10 9 9 11 13 13 13 12 12 12 12 12 16 21 25 28 31 36 35 46 50 53 52 53 54 55 54 52 54 57 58 56 55 56 55 54
12 10 10 10 10 10 9 7 9 10 12 13 14 16 18 18 17 15 15 16 17 21 24 25 30 35 40 46 53 53 51 54 56 55 56 59 61 61 61 60 60 62 61
9 9 9 11 11 10 10 9 10 12 13 13 13 14 15 16 18 19 19 17 16 17 20 22 22 24 31 37 47 51 52 52 51 52 54 58 63 64 63 63 55 55 58
9 10 10 13 13 13 12 13 13 13 11 10 11 12 14 14 15 15 15 16 15 14 14 15 17 18 21 26 30 37 44 46 42 36 34 37 42 56 60 52 38 33 29
13 12 12 13 14 14 14 14 15 14 12 12 13 15 16 16 17 16 16 14 13 14 15 15 15 16 17 19 21 21 16 16 18 15 18 13 4 7 5 14 18 19 20
12 12 12 14 15 16 15 15 14 13 13 15 16 18 20 22 23 24 25 22 20 17 16 18 20 19 19 19 17 13 10 6 8 13 9 12 14 20 25 24 20 24 21
12 12 14 15 16 15 15 15 14 13 13 15 16 18 20 23 26 26 28 28 26 22 21 22 22 24 25 20 13 13 15 18 23 22 25 24 26 26 25 22 20 20 17
13 14 15 15 16 15 16 16 14 13 14 16 17 18 19 21 22 24 25 25 24 24 25 23 23 24 20 17 17 17 17 16 17 18 24 22 24 20 21 18 17 17 14

GFSMW_850_spd_072.txt.gz
Wind_Speed
27 41 42 34 30 27 24 20 18 17 19 20 20 19 15 16 15 11 11 25 43 43 34 34 36 36 42 44 43 40 36 29 26 25 24 21 18 16 14 13 15 16 17
29 35 40 36 33 32 27 23 19 17 20 20 19 19 18 17 14 14 16 20 20 27 25 30 33 36 37 40 42 42 39 33 29 30 26 21 20 20 18 15 15 15 15
32 36 36 36 37 37 31 25 20 17 19 21 19 18 18 17 15 16 22 24 28 28 32 31 33 33 37 40 43 46 46 42 33 30 22 14 10 22 20 18 17 17 17
28 32 34 36 41 38 33 26 21 18 18 23 20 19 18 20 20 20 21 25 31 27 33 35 37 31 34 35 40 43 43 41 37 31 30 24 14 17 13 21 20 20 22
16 28 34 37 41 38 33 28 22 18 19 22 22 20 21 18 18 19 21 27 28 30 27 33 36 36 36 37 37 39 45 39 38 36 31 27 23 18 16 15 17 24 28
13 21 28 34 38 37 33 30 25 19 18 21 23 24 22 23 22 21 22 25 26 30 31 28 38 33 34 37 37 35 40 42 37 35 34 33 30 25 21 22 28 29 22
13 24 32 36 40 39 35 32 26 20 18 19 21 23 23 24 23 23 25 23 24 28 33 35 34 32 31 36 37 39 36 39 40 37 36 35 33 30 26 25 21 24 30
17 27 32 37 41 39 36 32 27 21 17 16 17 19 19 19 18 16 17 20 22 28 24 37 36 34 33 35 41 39 40 39 38 36 41 40 38 36 30 25 31 28 38
17 28 33 35 39 39 36 32 26 20 16 14 15 16 16 17 14 12 12 13 17 19 24 26 38 34 34 32 37 41 44 47 45 43 44 42 40 42 37 32 42 35 34
2 16 24 27 30 31 32 30 23 16 13 11 11 11 13 14 15 14 13 13 15 19 21 21 33 33 32 31 35 38 39 39 43 44 40 45 40 42 42 36 48 42 39
12 11 15 19 21 24 25 24 20 16 14 10 10 10 10 12 13 16 14 14 15 18 22 23 28 29 31 32 34 35 38 41 44 43 41 45 40 38 44 50 51 48 45
26 21 16 16 17 17 16 15 14 13 11 9 8 9 8 10 11 15 15 15 15 16 21 26 28 29 30 30 32 33 35 38 38 38 41 47 46 47 48 52 52 52 51
28 31 31 28 24 18 13 10 10 11 11 11 11 10 10 8 10 9 13 17 18 19 22 24 29 31 31 33 37 39 39 41 43 44 47 49 49 51 52 54 56 54 55
26 30 30 29 27 23 18 14 10 9 10 9 10 12 12 11 11 12 13 14 15 20 25 28 32 34 36 39 41 43 44 46 49 49 50 52 53 56 57 58 59 60 59
24 28 29 27 26 23 19 15 10 6 4 13 16 15 16 13 13 13 14 17 20 22 24 26 29 33 36 40 42 43 46 51 52 53 56 58 59 61 61 61 62 62 63
17 21 24 25 24 20 17 15 11 7 9 9 8 9 10 14 15 16 19 19 20 19 22 27 31 33 34 36 36 38 44 48 50 54 57 61 63 65 66 65 65 65 58
14 17 20 22 18 19 18 15 13 10 8 6 6 7 6 7 9 13 16 18 21 24 27 28 31 35 35 36 36 36 41 44 45 47 50 55 61 64 65 65 64 63 63
12 14 15 17 14 15 13 12 10 10 9 9 7 6 3 2 7 11 13 15 17 20 22 26 28 28 29 33 36 41 43 46 48 50 50 53 52 54 56 58 59 59 58
12 12 11 11 11 11 13 11 10 10 9 10 10 10 8 6 4 3 5 8 11 15 18 21 24 26 30 37 38 40 38 43 48 49 51 56 59 58 56 56 56 57 54
12 10 9 9 7 12 9 8 10 10 10 13 13 12 9 8 8 9 9 7 7 8 9 11 15 19 22 28 34 38 39 38 38 34 39 47 52 55 56 59 58 59 53
7 8 7 7 9 9 9 10 11 12 14 13 14 13 13 12 12 10 8 8 8 8 9 9 10 12 15 19 24 26 26 26 27 29 33 33 44 49 50 55 55 49 44
6 8 8 10 10 10 10 11 11 12 11 12 13 14 14 14 14 13 12 12 11 9 10 10 12 15 17 20 23 22 17 12 11 11 11 13 18 22 27 24 24 26 26
8 8 9 10 11 11 10 10 12 10 10 10 12 15 16 17 18 17 16 17 18 18 18 17 17 17 18 19 22 20 16 9 6 4 5 9 11 9 5 6 9 13 15
8 9 10 13 14 13 12 13 12 11 11 12 14 14 16 18 19 20 21 21 23 23 23 24 25 25 26 26 23 20 18 16 14 12 12 14 19 21 21 19 20 20 18
9 10 11 13 15 14 14 13 13 12 13 14 16 17 18 19 20 23 24 25 25 23 24 25 24 24 26 25 22 20 20 19 18 17 18 20 21 22 22 22 21 20 17
11 13 14 15 17 17 16 15 14 12 13 15 16 16 16 17 17 18 18 19 18 17 19 20 20 19 18 15 16 15 14 13 12 12 18 19 19 19 18 17 16 15 13

GFSMW_850_spd_075.txt.gz
Wind_Speed
25 25 25 31 33 29 28 26 23 20 18 19 20 19 18 16 17 18 17 14 28 40 40 38 32 33 36 39 41 35 32 31 28 24 23 20 18 16 14 13 15 16 16
24 26 29 28 35 33 31 29 25 21 20 19 21 21 19 15 18 15 12 17 21 33 38 37 36 36 37 40 42 38 36 33 31 25 21 14 15 19 17 15 14 15 15
23 26 30 31 34 36 34 33 26 22 19 19 20 18 16 16 17 14 15 10 15 32 32 32 34 35 38 40 44 42 42 37 34 31 17 11 10 19 21 19 18 16 14
25 27 31 34 35 37 36 33 27 22 19 21 22 19 19 19 18 18 18 16 16 19 32 24 25 30 33 36 40 41 41 40 36 33 32 23 16 13 12 22 21 20 18
20 24 31 32 31 35 36 35 28 23 19 20 22 19 17 17 17 16 18 18 22 22 26 29 32 29 31 34 38 40 43 41 42 39 34 26 21 17 16 17 26 25 23
16 20 23 26 28 32 36 34 29 24 19 18 21 19 17 18 15 17 18 19 19 22 26 30 35 35 33 33 33 35 39 42 42 38 37 35 30 24 22 18 22 28 27
11 16 22 28 31 32 36 35 31 26 20 18 21 20 17 16 16 15 14 17 18 22 27 26 33 38 37 34 35 37 36 41 43 42 38 36 35 30 26 25 22 23 25
11 21 23 24 27 30 34 37 34 27 20 17 17 20 19 19 18 17 18 20 21 20 21 28 24 25 38 36 35 36 36 37 40 41 38 36 35 33 34 32 28 24 25
10 17 19 19 21 25 29 34 33 25 18 14 15 16 18 18 18 16 14 14 15 17 20 24 27 28 29 33 34 41 39 38 39 42 41 42 36 36 36 36 33 30 28
8 9 13 15 18 22 26 31 29 22 16 14 13 13 12 13 14 10 10 10 10 13 16 21 22 25 33 28 33 34 41 42 40 42 45 46 43 39 38 41 39 37 34
10 7 11 14 17 19 24 27 25 22 16 12 11 10 10 11 11 11 11 9 8 12 14 17 19 22 28 32 28 30 32 43 48 47 45 49 48 43 48 48 43 43 42
19 14 16 17 18 19 22 22 21 18 15 12 10 10 9 9 9 10 10 11 11 11 13 16 15 17 22 28 27 26 27 30 40 40 43 45 43 47 46 45 55 47 45
20 24 27 25 23 21 22 21 19 16 12 9 7 7 7 6 7 7 7 9 10 10 11 15 16 17 20 23 22 25 27 26 28 33 36 39 41 42 43 42 43 47 52
20 24 29 26 25 23 21 19 17 14 11 9 7 7 7 5 4 6 7 7 8 10 12 14 16 18 20 23 25 26 28 30 33 35 38 40 42 43 42 45 50 52 53
21 24 25 25 23 22 20 19 18 13 12 12 10 10 10 10 9 8 9 9 10 11 12 14 16 19 23 26 29 32 36 38 38 39 41 44 46 47 48 48 51 53 49
18 20 22 23 22 19 18 18 18 18 12 10 9 7 7 9 12 12 12 12 12 13 15 17 20 22 26 32 33 35 37 36 35 38 41 44 47 49 50 51 52 52 48
16 20 22 22 20 19 16 15 15 13 10 6 0 4 5 6 8 10 12 13 15 16 17 19 20 22 26 30 30 32 33 34 37 39 40 43 44 44 44 44 45 48 51
15 17 18 17 16 15 16 14 15 13 8 5 6 4 4 5 6 7 9 9 10 13 15 17 19 20 23 27 29 31 31 32 34 38 42 45 46 46 47 50 52 53 52
18 17 15 14 13 14 13 12 11 10 11 10 8 6 5 4 3 3 3 5 7 10 12 14 16 17 20 26 29 32 31 30 30 32 33 40 44 47 50 51 49 50 47
14 14 13 12 11 10 10 10 11 10 13 12 11 9 9 7 6 5 4 5 3 3 2 2 4 6 11 13 16 17 16 17 19 22 28 34 37 40 42 45 48 45 41
13 12 11 12 12 10 8 9 11 14 14 12 11 11 10 10 9 9 9 8 8 8 7 8 8 9 11 12 11 7 5 6 8 10 13 17 22 26 31 36 38 35 30
13 13 13 14 13 11 10 12 14 13 12 14 14 15 15 15 13 12 11 10 10 9 11 12 12 15 17 21 22 20 16 12 9 8 11 14 19 18 14 11 10 10 9
14 14 13 14 14 14 13 14 15 13 12 14 18 18 18 20 19 19 19 18 17 18 19 19 21 22 22 22 23 23 22 20 17 17 17 17 18 17 16 16 12 9 12
14 13 13 14 16 15 15 17 14 14 14 16 19 21 22 23 23 23 23 23 24 24 23 23 23 24 24 24 22 22 21 21 21 19 17 18 18 19 19 18 19 18 16
12 12 14 15 16 15 15 15 14 13 14 17 19 20 21 21 22 22 22 22 22 19 20 20 18 18 20 18 16 15 16 16 15 15 14 15 16 17 18 17 16 15 14
14 15 16 17 18 16 16 15 14 13 13 15 17 18 18 18 17 17 17 17 16 14 14 14 14 14 13 10 11 11 11 10 8 6 9 12 13 13 12 11 11 10 9

GFSMW_850_spd_078.txt.gz
Wind_Speed
20 17 13 16 19 24 26 27 27 25 22 20 20 20 19 18 18 18 21 19 25 32 32 40 41 38 38 37 35 27 26 23 23 20 16 14 12 13 12 14 15 16 15
21 20 15 18 22 26 27 29 29 27 23 21 19 19 19 16 16 17 18 20 18 25 43 38 38 39 42 36 38 32 27 25 25 24 20 15 11 13 15 14 16 16 16
22 23 18 19 21 26 29 30 29 26 24 18 17 17 17 19 18 20 18 17 21 22 31 37 37 38 40 38 42 37 31 28 27 25 24 15 12 16 16 17 16 17 19
24 23 19 20 24 25 25 27 25 26 22 20 17 19 20 21 18 18 17 16 14 12 23 42 41 37 36 38 36 33 35 30 29 27 25 19 12 21 12 17 18 19 20
24 23 21 20 22 25 27 27 26 26 22 20 17 16 18 18 17 19 17 16 12 8 27 38 35 32 38 36 34 34 34 31 27 26 27 21 15 16 15 14 19 20 24
13 16 17 18 22 25 27 28 28 27 24 20 18 20 19 17 14 19 19 17 17 14 16 24 21 30 34 35 37 37 40 37 29 30 29 24 22 19 18 16 15 21 24
8 10 16 19 24 27 30 32 29 28 26 21 18 20 17 18 16 14 17 18 17 20 22 25 29 31 32 33 32 34 37 40 36 31 31 28 24 20 17 16 16 16 18
8 8 11 17 21 24 28 33 29 28 26 21 20 21 19 18 17 16 15 15 18 19 19 22 27 31 33 32 32 34 34 35 38 37 34 29 33 32 23 22 19 21 20
14 5 10 15 20 23 27 31 31 29 25 21 19 20 20 19 19 18 18 18 18 18 20 18 25 26 33 35 32 35 34 36 34 38 36 39 34 32 29 27 23 24 25
14 4 8 13 17 20 23 28 28 26 25 21 21 17 18 19 18 17 17 15 15 15 16 20 22 23 25 29 37 40 38 37 38 37 38 38 35 33 28 30 33 30 27
15 6 7 10 16 17 21 28 23 23 22 21 20 17 15 16 18 15 14 15 14 14 14 17 20 22 21 28 28 34 36 39 42 39 36 37 38 44 44 43 38 37 38
14 15 13 11 15 15 19 23 19 19 17 21 21 19 17 15 13 14 14 13 12 12 15 16 19 20 20 23 29 31 32 29 32 45 44 45 45 45 45 46 47 48 48
14 18 20 20 22 22 21 23 19 19 19 17 19 17 15 14 14 14 13 12 10 10 12 16 17 16 16 19 22 27 27 25 26 24 32 50 48 47 51 49 49 52 50
15 17 22 22 22 22 24 24 24 22 19 17 19 18 14 10 9 8 9 10 11 10 8 9 12 12 12 14 16 21 23 23 23 25 26 28 39 41 40 40 42 43 40
15 18 21 21 20 22 21 21 23 21 19 17 17 15 13 12 10 10 12 11 10 10 9 9 10 9 15 21 21 22 23 23 25 27 29 32 33 33 34 33 35 34 35
13 16 17 19 20 20 21 19 20 20 17 16 15 13 12 10 10 10 10 11 12 12 14 15 16 19 22 23 24 25 27 29 30 31 31 31 31 34 36 38 39 43 45
12 14 17 20 19 18 18 19 18 17 17 15 14 12 10 8 7 9 10 11 12 12 12 13 14 17 21 22 23 24 26 27 30 35 35 34 35 37 39 41 43 41 41
13 16 15 16 19 18 19 18 17 15 15 13 10 9 11 5 4 5 6 8 9 8 9 10 11 12 14 18 21 23 22 20 22 25 28 31 37 40 41 40 40 39 43
16 16 15 17 18 18 17 17 18 16 15 15 13 11 7 2 3 5 6 8 10 9 8 7 7 10 13 17 21 22 18 21 22 24 25 27 29 31 35 35 36 37 38
15 16 16 16 16 17 15 13 14 13 13 12 10 7 3 6 6 5 6 6 6 6 5 3 3 4 7 7 7 6 8 11 13 15 15 16 19 24 27 27 25 27 29
14 14 14 17 17 14 12 11 11 13 11 9 9 9 9 9 9 8 9 9 10 10 9 7 7 9 9 9 4 3 3 2 3 5 8 11 14 15 14 14 13 12 12
16 15 15 14 14 14 13 14 15 15 14 12 13 14 14 13 12 11 11 12 13 14 15 15 16 17 20 20 21 19 16 13 10 12 14 15 15 16 15 14 16 12 8
16 15 16 16 16 15 14 14 14 13 13 13 15 16 16 16 15 15 13 15 16 17 17 17 18 20 19 20 22 23 21 21 20 20 19 17 16 16 18 17 14 12 12
16 15 15 16 16 15 16 15 14 13 13 15 17 17 17 17 18 17 17 18 18 17 17 17 18 17 16 16 16 16 15 15 16 15 13 13 13 14 13 12 12 13 12
17 16 16 16 15 15 15 15 13 12 14 15 15 15 17 20 20 20 20 20 19 17 16 16 14 12 14 14 12 12 12 12 10 8 8 8 9 9 10 10 10 9 9
16 16 16 16 16 15 16 15 14 12 12 14 14 14 13 12 12 14 16 16 15 12 12 12 12 12 11 9 8 9 8 6 6 5 7 9 10 11 10 10 10 10 10

GFSMW_850_spd_084.txt.gz
Wind_Speed
25 30 29 32 33 27 33 35 36 35 27 31 24 21 19 19 18 20 20 21 21 20 21 23 25 24 28 25 19 30 31 31 31 31 25 21 20 16 18 16 14 10 7
29 23 21 23 26 24 32 34 35 31 31 31 22 20 16 13 16 17 19 20 21 21 21 22 25 25 30 27 23 27 34 26 30 34 30 21 20 20 19 19 17 16 11
28 27 25 23 27 23 34 35 34 30 32 24 21 21 19 17 15 15 14 17 18 22 21 24 23 27 30 31 28 38 36 34 29 33 32 18 10 26 21 22 22 19 17
33 29 26 29 29 30 29 33 32 31 31 26 24 24 20 22 19 16 15 16 17 17 17 21 21 25 25 30 32 40 36 33 31 33 28 24 21 23 12 22 23 20 20
23 22 26 27 30 32 31 33 34 31 32 28 26 24 18 15 12 11 15 16 17 18 17 16 21 25 26 27 31 42 42 39 33 33 25 20 19 19 19 19 26 25 22
17 19 24 26 29 33 33 35 35 30 28 30 25 18 12 16 14 17 19 20 20 18 17 16 20 25 32 30 27 41 40 39 34 33 30 28 24 15 19 10 22 27 32
29 25 19 30 29 38 37 36 33 30 29 27 25 19 19 19 14 17 18 18 17 18 15 14 13 16 35 35 29 43 40 39 34 32 30 26 25 21 14 13 15 22 19
27 27 31 21 16 37 36 36 32 30 30 26 26 20 19 17 17 16 14 16 13 15 12 10 10 22 24 25 30 32 44 38 31 29 30 28 24 23 21 17 15 12 9
25 27 28 21 7 32 34 32 31 31 28 28 24 21 19 14 15 14 13 12 13 13 10 8 12 16 19 27 30 28 40 36 31 29 28 30 30 28 23 22 20 12 12
20 22 25 28 7 20 25 26 28 33 27 24 22 19 21 17 17 16 13 11 9 10 12 13 15 16 19 24 31 35 35 33 29 28 28 29 26 23 25 28 26 20 17
16 18 20 21 17 5 17 23 19 28 30 21 23 22 18 16 14 14 14 14 10 9 9 12 14 17 17 20 24 26 29 31 32 28 29 27 28 29 29 30 31 33 31
14 15 15 17 13 12 8 11 15 23 31 16 21 19 18 17 14 13 12 13 12 10 9 9 11 16 18 22 26 27 29 27 28 27 33 35 35 35 36 37 36 36 34
15 14 14 16 13 11 8 14 16 21 25 18 16 17 15 16 12 12 12 13 10 9 8 10 7 10 14 15 15 20 29 26 29 31 31 32 33 33 34 37 37 36 37
16 14 14 15 13 11 12 11 17 21 25 23 24 22 20 18 17 17 14 13 10 9 9 12 12 15 13 15 14 12 14 20 21 23 25 25 22 23 21 21 25 30 36
17 17 15 14 13 12 12 15 18 24 21 23 22 22 21 20 19 18 17 16 15 13 13 14 14 15 15 14 13 13 14 13 10 15 16 19 21 20 21 21 23 23 26
15 16 15 12 14 13 12 12 14 17 22 22 21 20 19 17 16 17 17 16 15 14 14 14 14 15 16 14 14 14 16 15 17 19 18 19 17 20 23 22 25 27 30
14 19 16 14 13 13 11 12 14 16 20 23 21 20 20 20 21 21 19 19 18 15 13 13 14 13 13 14 14 15 15 17 18 18 19 18 21 22 24 26 26 27 28
14 16 15 17 15 13 12 11 12 15 20 22 21 19 19 18 17 18 19 18 18 19 17 15 14 12 12 15 16 17 18 20 21 22 22 22 24 25 27 26 26 26 28
13 14 15 15 18 19 15 14 17 17 18 19 19 18 18 17 15 16 17 17 15 15 12 11 9 7 7 7 9 8 9 10 11 10 10 11 11 13 16 18 19 17 17
10 14 15 15 15 16 16 17 18 17 20 20 21 19 16 18 20 18 16 16 14 15 11 6 7 7 6 4 5 6 7 7 6 4 5 10 12 12 12 12 10 9 6
12 14 16 18 16 14 14 17 19 19 14 17 19 21 16 17 14 17 15 15 15 13 14 14 16 14 12 11 8 9 8 8 7 6 8 11 10 8 7 6 5 5 5
15 16 19 19 16 15 14 17 19 14 16 17 16 15 18 19 21 16 18 17 17 17 18 18 21 23 22 22 20 17 15 15 14 15 15 15 14 14 14 13 13 9 8
14 15 18 18 19 17 17 17 15 15 16 18 19 18 16 17 16 16 19 19 18 18 18 17 19 19 20 21 20 19 17 16 16 16 14 13 11 10 10 12 11 9 9
15 14 16 17 20 18 16 16 13 13 13 14 14 13 13 15 16 16 17 17 18 16 17 16 16 15 14 14 14 15 13 12 12 11 9 7 7 6 8 7 7 7 8
15 14 14 13 14 15 17 15 10 10 15 18 21 22 21 20 18 19 19 18 17 14 14 14 14 14 15 15 13 12 11 10 9 7 6 6 6 6 7 7 7 6 6
12 13 14 14 14 13 13 14 15 12 11 15 17 16 16 17 19 19 19 19 16 14 14 13 12 12 12 11 10 8 7 6 4 3 5 6 6 7 6 6 6 5 5

GFSMW_850_spd_087.txt.gz
Wind_Speed
37 29 21 38 39 39 37 41 48 44 36 32 32 29 27 25 22 20 19 18 21 24 24 26 25 24 26 27 28 25 26 24 41 35 28 21 18 23 18 16 13 9 8
36 32 29 25 33 35 29 42 48 45 38 33 30 28 27 23 17 18 19 20 23 26 24 25 26 27 24 27 29 24 22 29 37 33 33 24 25 21 20 18 16 12 11
33 33 29 28 23 38 35 45 48 43 37 31 25 27 22 17 18 21 21 20 22 24 24 25 25 23 23 26 29 25 28 35 40 37 33 27 16 28 23 20 19 17 17
33 31 28 27 20 29 40 44 43 39 33 29 29 32 29 27 22 17 14 17 20 21 24 23 24 23 22 25 30 29 40 42 44 36 30 28 29 32 21 26 24 20 20
17 21 25 28 21 34 41 40 39 37 31 28 30 31 28 23 19 16 15 17 18 18 22 23 23 26 24 30 31 36 32 40 44 39 32 29 18 31 22 27 30 27 26
11 8 7 7 13 34 42 41 37 33 31 28 30 29 27 25 21 19 16 19 19 21 20 20 20 23 25 27 30 33 34 44 40 37 35 32 22 23 25 19 32 31 33
24 19 19 13 1 20 45 43 41 36 32 30 31 28 22 22 17 18 19 20 22 22 21 19 20 22 24 29 32 37 46 45 43 42 38 32 22 21 22 17 14 24 27
28 24 23 20 8 21 42 43 38 36 33 30 31 26 21 21 18 15 18 17 18 19 19 18 20 22 23 33 32 29 43 44 40 40 36 30 31 22 21 20 16 16 17
30 27 26 25 15 15 43 43 38 33 33 28 25 24 22 24 18 19 17 11 13 15 18 17 15 14 11 22 34 29 29 44 43 37 33 31 29 25 23 19 15 16 12
28 25 25 25 19 7 19 33 32 29 29 25 26 25 24 21 18 15 15 12 13 15 15 13 12 12 14 16 20 31 35 39 40 38 33 30 28 27 21 19 16 15 15
23 23 23 21 21 15 12 8 16 24 25 27 27 24 20 20 20 17 15 12 13 12 12 12 13 14 16 15 21 26 29 42 40 35 31 26 25 27 29 25 21 19 18
21 22 21 19 19 16 9 13 21 19 28 27 22 21 24 21 18 16 16 14 11 10 10 11 13 14 14 16 18 30 29 32 35 30 27 27 27 31 29 28 30 34 32
21 22 20 19 18 16 12 9 11 14 15 19 22 24 20 18 18 17 15 14 12 11 10 10 9 13 16 16 19 20 26 31 29 30 29 29 30 32 35 36 34 32 34
20 20 20 19 16 15 12 6 10 14 13 19 23 21 22 21 18 18 18 16 14 15 14 14 14 13 15 16 17 20 23 24 25 27 27 27 27 27 28 29 27 25 24
20 19 20 18 15 12 12 8 11 14 17 19 21 21 20 19 20 20 19 18 17 16 15 15 11 18 15 13 14 13 13 10 16 19 22 23 25 24 21 21 19 18 15
16 17 18 17 15 13 12 10 11 15 18 22 21 21 20 21 20 20 20 20 19 17 16 17 17 16 15 14 13 13 14 15 16 16 18 20 19 21 22 20 20 26 25
15 17 18 17 16 14 12 12 12 12 17 20 21 20 21 19 19 21 25 25 23 20 19 18 18 18 17 17 17 17 16 15 18 16 15 15 16 15 15 20 21 19 22
14 14 15 15 17 16 13 10 11 12 14 19 18 17 19 19 20 20 19 21 23 22 21 21 21 21 19 18 18 19 18 17 17 16 16 13 11 14 18 19 18 18 18
14 14 13 14 14 18 19 17 16 14 14 15 16 17 17 18 19 22 23 21 21 21 20 18 18 19 17 15 13 13 17 17 16 14 14 11 8 7 8 9 9 10 10
11 13 13 14 13 15 16 22 22 19 21 20 18 18 17 17 19 18 19 17 15 18 18 18 15 13 14 11 12 11 12 13 12 10 8 5 6 11 12 9 7 7 4
14 13 14 17 17 16 14 19 19 21 19 16 16 18 17 17 19 15 17 14 16 18 19 18 17 15 10 10 10 11 5 5 6 6 8 12 11 10 9 7 7 7 6
14 15 17 17 16 15 16 21 22 16 15 14 15 15 15 18 17 16 17 18 15 15 20 21 23 20 19 16 13 13 11 14 16 19 19 18 15 14 12 12 12 10 9
13 16 18 18 19 18 18 18 15 13 11 10 12 13 13 15 15 15 18 18 18 16 17 16 24 27 25 25 24 23 20 18 18 18 17 16 14 13 11 11 10 7 6
13 10 12 15 17 17 20 19 17 15 10 10 12 11 11 13 14 14 16 18 18 18 18 17 22 22 20 19 18 17 15 14 12 12 11 9 8 6 6 6 5 4 3
9 8 9 11 14 13 15 17 14 14 19 20 19 17 15 13 15 16 17 17 17 15 15 18 18 17 18 18 15 13 12 10 10 7 7 6 4 5 6 5 4 4 3
8 9 11 10 10 11 14 14 12 11 14 15 16 18 18 17 17 15 19 20 17 15 16 16 13 15 15 15 13 10 9 8 7 4 5 6 5 4 5 5 5 3 3

GFSMW_850_spd_090.txt.gz
Wind_Speed
42 42 38 35 30 39 44 43 37 41 42 40 36 36 36 35 31 29 27 25 23 22 24 25 23 23 26 27 27 31 31 30 29 26 33 31 31 26 20 17 15 11 10
44 45 44 34 33 26 40 43 42 37 42 46 45 39 35 34 31 32 30 27 24 24 24 25 25 24 25 26 27 31 30 31 31 30 40 24 31 29 21 20 16 13 11
34 42 40 37 33 31 26 39 43 38 48 49 45 37 31 30 28 28 30 29 28 26 26 24 25 26 27 29 28 33 32 34 34 32 28 20 14 30 24 20 19 17 14
27 18 24 30 31 33 27 36 42 43 49 52 47 38 35 36 33 29 29 27 28 28 27 27 25 25 27 29 29 31 35 33 31 39 41 27 30 27 18 24 24 20 20
27 24 15 14 18 19 24 38 45 45 49 49 45 38 34 35 29 24 24 25 28 26 24 26 26 26 26 27 28 31 32 30 41 44 40 29 29 30 26 26 29 26 25
32 27 22 9 4 13 22 41 47 45 50 46 42 36 34 31 26 24 24 22 22 23 23 24 25 25 25 27 27 29 33 35 42 43 43 36 30 32 25 19 30 30 28
30 30 32 20 4 15 26 33 42 44 41 42 36 33 31 28 24 23 21 21 22 21 22 23 24 25 25 28 27 29 30 37 46 47 40 40 29 28 27 17 26 34 30
29 27 26 23 12 6 29 27 32 39 42 39 35 29 25 23 21 21 20 18 17 19 21 23 24 25 24 25 27 31 34 40 44 47 43 37 32 24 24 27 24 19 32
26 26 26 25 19 6 22 32 38 44 39 36 32 27 25 23 24 18 16 15 15 19 22 23 21 22 24 25 29 36 39 38 47 45 45 41 35 26 25 23 24 22 18
21 27 28 24 21 11 11 21 34 37 34 32 28 25 23 21 21 16 17 16 15 18 19 20 21 21 22 20 20 30 37 40 40 50 43 43 41 32 23 20 21 18 15
25 27 27 25 21 16 13 10 15 24 25 25 25 24 23 21 20 16 17 15 15 18 19 17 17 16 16 12 13 31 25 34 41 43 44 39 37 37 25 22 21 16 18
23 25 26 25 24 23 20 6 2 5 12 20 24 25 20 21 19 18 17 16 15 15 14 14 14 14 13 14 14 17 24 33 38 47 39 31 31 30 26 23 18 18 18
25 28 28 27 26 22 19 16 13 26 23 21 28 26 23 21 20 18 15 16 14 13 13 13 13 14 14 16 14 11 16 25 30 40 40 34 32 28 22 23 23 26 25
25 27 28 26 25 22 16 13 9 20 24 24 32 28 27 22 21 19 19 17 16 15 14 14 14 13 15 16 14 14 16 23 28 27 32 32 29 27 28 30 31 30 31
25 27 26 26 24 23 20 14 11 10 18 23 31 31 28 24 22 19 17 16 17 16 15 15 16 13 15 17 17 17 16 21 27 30 32 32 32 33 33 32 32 32 25
21 23 24 24 25 24 22 18 13 10 15 21 19 25 25 23 22 20 20 18 17 16 16 16 16 17 14 16 15 18 21 21 23 27 25 24 25 26 26 27 24 20 19
17 21 22 23 21 20 20 20 16 9 10 16 19 22 24 23 25 26 27 21 20 19 18 17 17 18 17 16 15 14 17 20 20 19 17 19 19 19 19 20 20 21 20
16 17 18 20 18 17 17 15 15 12 10 10 13 17 20 21 23 24 24 24 23 23 21 18 18 19 19 19 18 17 19 19 20 20 19 17 16 17 18 19 19 19 20
14 17 16 17 17 17 16 17 17 16 14 15 14 12 8 11 17 22 22 22 24 23 21 20 18 16 16 18 19 21 21 22 21 20 19 19 18 18 18 16 16 15 14
12 14 17 18 17 17 14 16 20 21 22 20 18 17 15 13 14 12 14 17 18 21 19 20 17 14 14 13 15 17 20 21 19 15 15 15 14 12 10 10 11 11 8
13 13 16 18 19 18 14 15 17 19 17 16 16 17 19 18 19 18 15 14 15 15 17 18 17 16 14 14 11 10 13 12 12 13 13 12 11 9 8 9 9 7 9
14 14 15 16 16 15 16 17 17 13 12 11 12 15 15 15 15 18 18 17 17 14 16 15 15 16 16 15 14 11 10 10 10 15 16 19 16 16 15 12 13 12 11
13 12 14 14 15 17 18 14 13 11 10 10 14 14 13 14 13 15 17 15 16 19 22 22 23 21 18 17 17 16 15 15 19 20 19 18 15 14 14 13 12 11 10
11 10 11 14 15 15 16 19 17 10 8 9 12 13 13 13 13 14 15 15 18 19 19 21 22 22 21 19 17 17 15 14 16 17 15 13 12 10 11 10 9 8 7
9 7 9 12 13 11 11 12 12 14 16 14 13 13 13 14 15 15 15 15 16 14 14 16 17 16 17 15 13 12 11 9 9 8 8 8 9 10 10 9 7 6 5
10 10 10 10 11 10 9 10 9 9 9 13 15 16 14 14 14 13 15 15 15 14 14 13 11 15 15 13 10 9 8 7 6 6 7 9 8 8 7 6 5 4 3

GFSMW_850_spd_093.txt.gz
Wind_Speed
32 32 37 39 38 35 32 28 32 42 45 44 42 38 36 38 35 34 30 28 27 25 24 23 22 23 28 28 27 27 27 29 31 29 26 28 34 33 31 29 25 20 14
33 34 33 32 37 37 33 30 28 35 46 46 45 42 40 41 37 36 33 31 28 26 25 25 25 25 25 27 28 28 29 31 35 31 25 20 19 30 37 31 25 19 15
35 36 34 23 22 29 32 31 28 33 40 47 49 45 42 34 33 34 35 33 30 28 26 23 25 28 28 28 26 28 30 35 38 36 24 10 10 28 33 31 27 21 17
30 34 34 27 17 16 22 24 28 28 42 50 48 48 47 39 43 47 39 34 32 30 27 23 24 27 29 28 26 26 29 34 35 35 38 29 22 27 22 32 29 25 21
25 32 31 30 19 12 14 19 27 29 43 44 47 49 49 42 41 40 39 36 33 30 29 26 26 28 28 27 27 26 31 34 36 37 38 34 27 35 35 28 31 31 27
28 27 27 27 19 13 13 17 25 32 39 50 51 51 50 42 38 39 37 36 33 30 29 27 27 30 28 28 26 28 30 32 36 36 37 36 38 37 35 23 33 35 32
26 27 28 29 25 18 8 16 25 31 40 48 50 48 47 41 33 34 35 34 31 30 28 27 26 26 25 27 27 26 27 29 33 37 37 44 45 40 30 22 29 28 30
27 29 27 27 26 21 9 14 24 28 36 41 40 42 38 35 31 31 32 30 25 21 20 22 24 23 26 25 26 27 30 30 33 34 40 50 43 33 33 30 22 23 25
27 28 27 26 26 18 10 8 22 23 28 30 33 36 34 31 30 29 27 23 18 16 15 16 18 22 23 24 24 24 28 31 34 34 37 45 40 36 28 31 31 27 22
29 30 28 29 26 18 10 2 16 22 28 21 21 30 26 26 24 25 24 20 17 16 14 17 20 23 25 24 23 26 28 35 37 34 47 47 40 36 28 31 23 31 27
28 29 29 28 26 20 11 8 3 12 24 19 25 26 23 25 24 24 20 18 16 13 14 16 17 21 20 21 25 26 28 31 37 39 47 45 43 37 30 35 31 32 27
23 24 26 25 26 25 19 13 15 13 11 17 21 21 24 21 22 20 17 17 14 12 13 14 15 15 16 16 17 19 17 28 33 35 46 43 45 40 33 31 26 29 24
23 27 28 27 27 26 24 20 7 9 7 7 13 17 23 24 24 21 20 19 15 13 11 12 11 13 14 15 17 13 14 25 25 27 41 46 44 46 38 31 28 24 20
24 27 29 27 26 25 24 22 13 2 6 12 16 21 30 29 26 24 22 19 18 15 13 12 12 15 15 17 15 14 10 12 24 32 35 37 34 37 39 34 29 30 24
21 24 28 28 27 25 23 22 19 7 3 9 16 19 33 31 28 24 20 19 16 14 13 12 13 13 14 15 14 14 13 15 21 25 31 37 33 26 27 27 30 24 24
20 23 24 26 27 25 23 21 20 17 7 9 19 20 21 28 28 24 23 20 18 17 15 14 14 16 16 14 16 15 15 15 19 21 19 31 32 31 29 31 31 31 25
18 21 23 24 24 23 21 21 20 17 13 12 8 15 19 23 27 27 24 22 18 17 15 14 14 15 15 12 13 15 18 19 21 23 23 27 30 28 31 29 30 28 30
19 20 20 21 22 22 21 17 17 18 17 17 17 14 7 16 22 23 24 22 20 17 15 14 14 14 14 13 12 13 13 16 20 21 23 24 22 23 24 24 26 22 21
13 18 19 19 19 21 21 20 20 20 20 21 21 18 14 12 7 15 20 21 20 19 17 16 16 15 14 15 15 16 17 18 19 18 19 18 18 17 16 16 18 19 20
13 16 15 19 19 19 18 19 22 23 26 23 21 18 17 14 14 12 8 9 13 17 16 17 15 15 15 14 13 15 18 21 20 19 18 18 16 16 16 13 14 14 12
11 13 15 18 19 18 16 19 20 24 21 18 17 18 17 18 16 16 14 12 9 9 9 11 13 12 11 12 11 11 12 14 17 18 16 14 13 12 10 9 9 8 9
13 15 17 19 21 19 15 19 21 17 16 17 18 18 17 15 14 14 16 16 16 17 15 14 15 15 16 14 11 9 10 13 14 17 16 16 13 11 9 7 7 10 9
12 13 15 16 19 21 24 21 17 14 15 14 16 16 15 15 14 13 14 13 12 14 17 18 20 21 18 16 14 12 11 11 12 16 16 14 14 14 16 16 15 13 11
10 11 11 14 17 18 19 23 21 15 13 14 14 13 14 14 13 14 15 14 15 17 20 20 21 22 20 19 17 17 16 15 14 15 13 11 12 12 12 11 11 10 9
8 9 12 13 15 15 16 16 17 18 17 15 15 13 12 12 12 14 13 13 14 13 16 16 16 17 17 14 13 12 12 11 11 9 9 9 7 9 10 9 8 8 7
11 10 12 12 14 13 13 13 14 14 14 15 15 14 12 12 12 12 13 13 12 11 10 10 9 11 11 9 7 6 6 5 6 5 8 10 11 11 10 9 8 7 6

GFSMW_850_spd_096.txt.gz
Wind_Speed
23 25 28 33 29 25 29 26 24 28 33 43 48 47 46 37 39 39 37 34 31 28 27 25 24 25 25 26 25 25 26 30 29 25 23 25 29 32 32 29 27 31 25
26 29 29 30 27 26 26 26 24 27 31 39 43 48 43 41 42 41 38 34 33 31 29 27 26 26 25 27 26 26 27 31 32 30 27 20 24 29 33 33 33 30 26
29 34 33 30 29 25 23 24 23 24 32 35 43 45 48 45 42 39 35 36 34 33 31 28 26 26 27 27 27 27 30 32 33 35 24 11 11 22 24 29 35 34 28
33 34 31 30 30 28 24 22 25 27 31 37 41 46 50 48 46 41 32 28 32 35 32 30 27 26 27 27 26 28 31 30 34 35 36 26 16 13 11 29 38 32 28
31 32 29 29 28 30 26 21 23 28 33 36 39 44 46 47 48 40 35 25 45 36 34 33 28 27 27 28 26 26 29 31 33 33 38 36 27 19 19 19 31 31 28
25 27 27 28 28 27 23 19 20 22 30 34 36 40 44 49 48 41 45 34 41 42 36 33 30 27 27 26 26 27 28 29 33 32 34 38 37 35 27 25 37 36 32
23 29 33 32 32 28 25 16 12 15 24 31 35 36 44 47 47 46 31 44 46 40 39 34 33 29 27 26 26 26 25 27 30 30 34 37 36 37 33 36 39 38 31
23 30 32 33 34 28 24 18 11 12 21 27 31 33 41 44 40 44 43 39 34 35 34 32 29 29 29 28 26 23 26 26 27 31 35 35 34 36 37 37 39 31 28
27 29 31 35 34 29 24 21 12 12 20 25 29 31 32 33 35 38 35 28 27 30 28 28 27 25 21 22 22 26 28 27 26 27 33 32 34 36 40 42 35 32 24
29 30 31 32 32 29 23 20 11 5 14 19 23 24 26 26 21 19 28 27 26 24 23 22 21 20 21 22 23 24 25 25 27 29 33 33 36 36 47 41 35 31 32
27 30 30 30 30 28 23 21 16 8 9 15 12 12 15 13 13 23 30 25 21 20 21 19 19 21 21 21 22 24 24 24 24 28 31 36 41 42 42 44 37 35 35
29 31 31 31 31 32 29 25 19 15 9 8 8 11 16 14 20 29 25 23 21 21 19 20 20 19 19 19 20 22 23 24 25 26 29 46 44 41 44 38 34 30 32
31 32 34 33 34 33 32 29 23 16 9 6 5 6 9 18 18 26 24 23 22 21 20 19 18 16 15 14 13 13 14 17 23 24 29 29 41 46 41 39 39 32 29
25 30 34 35 33 32 31 30 25 19 13 1 5 4 11 12 23 30 26 24 22 20 16 15 14 13 13 12 13 13 14 14 14 23 18 39 44 46 43 38 39 34 31
22 26 30 33 33 32 31 29 26 21 16 9 3 11 18 20 27 30 28 23 21 18 17 16 13 12 14 13 13 13 13 13 10 18 26 26 41 37 44 40 38 36 32
19 22 26 29 32 32 30 29 27 25 21 15 7 2 14 12 22 23 25 24 22 21 18 15 13 13 10 8 9 10 10 12 14 16 20 27 28 42 45 42 35 34 32
19 22 23 25 27 28 27 27 25 22 21 21 17 16 9 8 18 28 31 30 25 19 16 14 12 10 9 8 10 9 11 13 14 14 15 16 26 28 21 26 27 29 34
17 19 20 21 23 23 24 25 26 26 25 23 23 22 16 9 5 6 26 26 23 19 16 14 12 10 9 7 9 8 11 14 18 17 16 15 17 18 23 27 28 30 29
13 15 17 18 19 21 22 23 25 28 29 29 25 23 21 17 13 12 11 15 18 19 17 14 12 10 8 9 8 8 11 13 14 15 15 16 19 22 24 23 25 26 24
12 15 14 16 18 21 19 22 26 27 29 27 25 22 21 20 16 15 15 14 11 11 10 11 10 8 7 9 10 10 12 14 14 14 13 14 13 15 17 16 16 16 16
13 14 18 21 20 17 18 21 24 28 24 22 22 22 21 22 20 17 16 15 15 14 12 12 13 11 10 10 7 8 10 12 14 14 14 14 11 12 13 13 12 11 13
14 15 17 19 22 23 19 21 24 21 20 20 21 22 22 21 19 19 18 17 17 16 18 18 19 19 18 16 16 13 10 9 8 12 13 14 13 12 12 14 14 12 11
13 14 16 18 20 23 26 24 22 19 19 19 22 22 20 20 20 20 20 19 18 18 19 19 21 21 19 18 17 15 13 12 14 17 17 15 12 9 13 14 14 15 14
13 14 14 17 19 20 20 23 22 20 19 20 20 20 19 19 19 20 21 22 22 22 22 22 23 22 22 20 18 18 17 15 17 18 16 16 15 14 13 15 15 13 12
13 13 15 17 17 17 17 18 19 19 19 19 18 18 19 19 18 18 19 19 20 18 18 18 16 16 18 18 16 15 15 13 13 11 12 13 12 12 12 11 10 10 11
13 14 15 15 16 16 16 16 17 16 15 16 17 17 17 16 16 16 16 16 15 13 13 12 12 15 14 12 12 10 8 7 7 4 6 8 9 10 11 11 11 10 10

GFSMW_850_spd_099.txt.gz
Wind_Speed
15 19 22 26 29 27 24 27 29 28 31 31 34 39 46 48 48 44 43 42 35 35 34 32 30 29 28 27 25 24 28 27 25 25 24 24 21 27 30 21 24 28 28
20 26 29 31 32 31 31 24 29 30 30 31 34 36 43 47 51 48 46 42 37 38 36 34 33 30 28 26 25 29 28 30 30 31 27 18 24 27 28 27 28 27 29
18 25 31 32 33 32 30 33 25 31 29 33 28 31 30 37 39 45 47 44 40 40 36 35 33 32 30 29 28 28 30 32 31 33 23 11 11 22 32 34 32 31 27
20 22 23 25 31 32 30 31 27 27 31 30 30 35 38 39 47 48 49 44 41 37 37 30 34 33 30 30 29 28 31 33 31 33 36 25 17 15 13 29 30 32 33
21 24 25 25 28 32 31 31 29 26 29 30 36 39 41 41 37 48 50 47 41 36 43 38 43 38 31 30 29 30 32 33 33 34 36 37 25 21 20 18 27 33 34
24 26 25 29 33 31 27 28 26 26 24 28 36 39 40 39 41 48 48 45 37 31 39 44 48 42 34 31 28 28 28 32 31 33 34 37 38 30 23 19 21 31 34
23 25 28 34 34 33 29 26 25 23 16 19 28 34 38 37 42 46 49 42 38 34 31 38 41 40 36 30 29 27 28 30 30 31 33 35 36 32 30 28 23 25 32
23 25 28 28 33 34 32 27 25 19 12 16 21 30 33 36 38 37 40 41 45 37 40 40 44 42 34 32 28 25 28 26 27 28 27 33 34 35 36 32 26 23 31
21 24 27 28 33 34 32 29 26 17 10 13 19 26 27 31 34 35 35 38 44 42 36 37 41 39 35 32 27 27 27 26 24 24 25 29 30 30 32 32 34 32 24
20 22 25 28 30 32 32 26 23 17 8 5 13 19 22 23 26 30 31 31 37 19 24 31 33 34 29 28 26 27 26 25 25 26 26 27 29 31 30 32 34 36 34
20 21 26 29 31 31 32 27 24 18 8 4 6 8 15 15 20 22 21 22 18 22 32 28 30 28 25 23 25 25 23 23 24 25 27 29 31 36 35 37 34 39 39
18 20 29 32 33 33 32 31 26 22 21 10 5 2 7 11 13 17 20 19 24 19 26 26 23 22 21 21 22 22 23 25 24 24 25 29 32 32 34 36 37 37 41
18 20 32 33 33 33 32 30 27 23 20 12 5 5 8 8 13 15 14 14 18 19 22 22 20 20 19 20 22 22 23 24 22 21 25 29 31 34 36 39 40 42 40
17 21 29 32 32 32 31 31 29 26 19 14 5 2 6 9 11 14 21 21 22 25 27 23 22 21 19 18 18 18 16 15 17 19 21 26 29 36 39 44 43 46 40
18 21 26 29 31 33 32 31 29 27 23 16 11 7 4 4 17 17 22 24 27 29 26 23 21 19 17 16 17 16 15 14 18 17 15 17 19 26 30 40 43 41 39
15 20 22 25 28 30 31 30 30 28 24 21 15 12 5 4 8 22 20 29 29 31 27 23 21 17 15 14 13 15 13 13 14 14 12 13 22 30 39 42 41 45 38
13 18 20 22 25 26 27 29 29 28 27 26 20 17 17 12 7 5 15 25 30 31 28 24 20 17 14 13 12 11 12 14 12 12 10 10 12 30 32 38 44 41 43
14 15 19 20 22 23 24 25 28 30 30 29 28 25 24 20 18 9 12 18 23 29 27 21 17 12 13 12 10 12 11 11 12 13 12 13 10 22 34 38 37 42 43
14 15 16 16 19 21 22 25 27 29 31 31 29 27 25 24 22 21 17 15 8 19 22 18 14 12 10 12 11 11 11 12 12 13 14 14 14 15 21 25 25 28 30
16 19 21 19 19 21 21 24 27 29 31 30 28 26 25 24 24 23 21 18 16 15 17 17 14 11 8 9 10 11 12 12 12 12 12 14 13 15 20 20 22 28 26
16 17 19 24 23 20 21 24 26 29 26 25 25 26 26 26 24 21 20 19 18 15 17 19 18 15 12 11 8 8 10 11 14 13 12 10 12 13 14 14 16 17 19
17 18 20 22 23 24 24 26 27 24 23 24 25 27 26 25 24 23 22 20 19 20 21 22 23 21 19 18 13 12 11 12 11 14 15 15 10 11 15 17 20 18 17
16 17 18 20 22 24 25 26 25 24 24 24 26 26 26 26 26 27 26 24 23 25 26 26 26 24 22 21 18 18 16 16 19 21 19 16 15 14 18 17 17 17 17
16 16 16 19 21 22 22 23 23 23 22 24 25 24 24 24 25 25 26 26 26 25 25 25 25 24 24 23 22 21 20 20 21 19 19 19 18 19 20 20 19 18 16
16 16 18 19 20 20 20 20 20 19 20 21 21 22 22 22 21 22 23 23 21 19 19 20 20 19 21 20 18 17 17 16 15 15 16 16 16 16 17 16 15 15 16
15 16 17 18 19 19 19 19 20 20 18 19 20 19 18 18 18 18 18 17 16 14 15 15 15 16 15 12 11 11 10 11 10 8 10 12 12 11 12 13 12 12 12

GFSMW_850_spd_102.txt.gz
Wind_Speed
6 9 11 13 15 17 20 21 23 26 28 26 21 26 30 34 40 38 38 42 41 41 39 36 36 33 32 31 29 28 27 26 26 20 19 23 23 22 22 21 27 31 27
7 12 16 18 19 19 20 21 22 24 25 24 23 24 29 30 33 34 37 48 44 42 39 38 37 35 33 31 29 29 28 28 26 26 24 17 23 23 23 27 25 24 19
8 12 16 18 21 23 24 23 24 23 26 26 25 27 27 30 30 32 39 48 46 44 43 37 36 36 33 31 27 27 28 29 28 29 19 10 11 20 24 26 27 23 28
9 12 15 17 20 21 23 26 28 28 29 27 23 24 28 34 35 33 41 44 46 48 42 37 38 38 33 29 27 26 26 29 31 31 32 17 14 12 11 30 27 29 34
11 14 17 18 19 22 25 28 29 28 28 28 27 26 30 34 34 30 34 40 44 49 46 41 32 41 27 26 25 27 29 30 32 35 35 34 20 16 10 18 34 36 35
14 16 17 19 20 22 26 28 28 28 26 25 25 28 30 34 34 32 34 35 42 49 43 40 41 39 38 39 33 29 31 32 32 34 35 35 28 24 22 17 26 36 36
15 18 21 24 24 25 29 32 30 29 26 22 22 26 31 36 37 32 32 34 40 44 45 42 44 43 44 36 44 36 34 32 34 34 38 36 37 29 30 27 21 27 32
16 19 21 23 24 26 29 33 31 30 26 21 20 23 23 31 35 33 32 33 36 39 40 40 35 47 44 36 45 36 37 30 33 34 35 35 35 35 36 33 27 17 24
16 20 22 23 25 27 30 33 30 28 25 20 16 16 19 26 31 32 31 32 27 26 31 40 43 29 31 50 36 38 36 32 34 32 32 33 34 33 36 31 27 31 20
16 20 22 24 24 26 28 29 27 28 25 19 7 9 16 24 29 30 30 30 28 31 30 34 34 32 42 40 40 36 34 30 31 31 30 30 31 30 31 33 34 36 31
16 18 21 23 24 24 27 30 29 29 24 17 5 4 10 16 21 24 28 33 34 33 37 31 20 19 36 36 36 29 30 27 30 30 28 29 28 29 28 31 30 31 30
15 16 20 23 25 26 29 29 30 29 24 20 12 2 6 10 14 19 19 25 31 31 35 31 18 25 25 28 28 31 30 27 28 28 27 29 30 30 32 33 35 36 36
14 16 19 22 23 26 30 28 28 29 25 22 14 8 1 8 12 14 18 24 26 31 32 32 38 46 33 28 30 28 28 28 26 26 28 29 27 29 31 34 34 35 37
13 15 17 19 22 24 29 30 28 26 23 21 19 13 9 2 4 10 10 16 24 27 28 32 32 30 29 27 26 25 26 27 26 25 26 26 27 30 32 32 37 34 38
12 14 16 19 21 24 28 30 28 29 28 22 20 18 10 7 5 7 12 19 21 24 29 31 32 30 26 25 26 27 27 22 23 22 23 25 25 28 32 37 38 36 42
11 14 15 17 19 24 26 28 28 29 28 26 23 19 13 8 6 3 13 21 27 30 30 31 27 26 24 26 26 24 24 22 22 21 22 21 20 20 24 22 33 35 45
11 13 15 16 17 23 24 25 27 28 28 28 26 24 20 20 17 13 7 9 23 32 34 35 29 26 26 25 22 22 21 20 21 20 19 21 20 18 13 21 33 36 40
12 13 13 15 18 19 21 22 24 26 29 29 29 27 26 23 20 17 13 5 7 15 18 25 25 27 24 21 19 19 18 17 16 16 16 15 14 13 17 21 31 33 36
11 13 12 14 18 20 20 23 25 27 28 30 29 27 25 24 23 24 23 20 13 11 16 20 17 20 17 18 17 17 16 15 15 14 14 14 14 12 15 24 31 36 39
10 12 14 16 20 21 22 24 27 28 30 29 27 26 26 24 24 23 22 22 20 20 15 15 19 18 14 14 15 12 13 14 13 13 12 14 12 13 15 16 25 29 29
12 13 15 19 20 21 23 26 27 29 27 26 26 25 26 26 25 23 23 24 24 22 22 20 20 20 16 13 10 9 11 11 12 11 10 10 9 11 14 15 18 21 23
13 14 16 18 18 19 20 24 27 24 24 24 27 28 27 27 26 27 27 26 26 27 26 26 27 26 24 20 18 11 7 7 8 12 13 13 10 10 9 12 15 18 18
14 15 15 16 18 20 20 20 21 22 22 23 24 25 25 26 27 27 28 29 29 30 29 29 28 27 26 24 24 22 16 14 14 15 13 12 12 16 19 19 18 17 17
15 14 15 17 19 19 19 20 18 17 18 19 20 21 23 24 23 25 26 25 25 24 24 26 25 24 24 24 24 21 19 20 20 20 17 16 17 17 19 19 18 18 19
16 16 16 17 18 18 19 19 19 17 16 17 17 17 18 19 21 24 24 24 23 21 21 20 18 18 20 20 17 15 15 16 16 17 17 17 18 20 19 19 19 19 19
15 16 18 18 18 19 20 21 21 19 17 16 17 17 15 15 14 14 17 19 18 15 15 13 13 13 13 10 10 9 9 10 10 11 13 14 15 16 15 15 16 15 14

GFSMW_850_spd_105.txt.gz
Wind_Speed
4 2 2 5 7 10 13 15 17 17 17 18 18 20 22 27 32 35 35 35 33 33 35 35 35 37 35 31 32 30 29 30 26 25 25 22 23 19 21 21 22 23 21
6 1 4 8 10 12 13 15 16 18 18 19 20 21 23 27 29 34 34 37 36 35 36 37 38 38 35 32 32 34 29 27 27 25 22 14 20 23 21 21 23 21 18
2 3 8 10 12 14 15 16 17 19 20 21 22 23 24 29 35 27 34 33 36 43 45 38 44 40 37 37 36 37 32 30 27 31 18 9 9 13 22 23 24 23 20
2 6 10 13 15 16 17 18 19 20 19 20 22 22 25 28 29 35 31 34 39 39 41 44 46 40 37 37 36 36 32 26 31 29 29 19 11 9 9 24 26 23 25
4 8 11 14 15 17 19 21 21 21 20 21 24 28 27 27 28 36 33 34 36 40 41 45 45 43 37 37 31 25 29 30 28 33 33 27 22 16 12 10 21 24 26
6 9 11 14 15 17 19 21 22 23 22 24 25 28 29 30 29 32 33 34 37 39 43 41 45 43 41 36 33 29 42 34 29 26 29 30 29 26 20 15 11 27 30
8 10 13 15 17 19 21 22 23 26 26 27 26 25 27 29 33 34 38 34 35 38 41 45 47 47 40 39 35 29 42 38 31 30 29 29 30 26 22 24 18 18 27
9 11 15 17 20 22 24 25 27 29 29 29 26 23 24 29 34 36 39 31 33 34 34 41 45 46 44 50 44 39 44 38 34 30 28 28 29 29 26 23 21 17 24
11 14 15 18 20 23 24 26 29 30 29 30 28 22 17 20 27 26 34 33 30 30 28 37 38 39 36 33 32 36 38 38 34 30 28 25 28 31 31 30 31 28 16
14 15 17 20 21 22 24 26 26 29 29 31 26 21 11 12 15 25 30 30 36 29 28 30 36 41 38 33 34 30 29 35 32 29 26 26 28 28 29 30 35 34 34
13 15 17 19 20 22 23 26 28 30 30 28 29 20 11 11 11 15 22 25 27 28 26 31 36 33 42 36 32 26 27 29 30 31 28 30 29 29 29 28 30 31 35
12 14 16 18 21 23 24 26 31 31 30 26 26 22 16 9 12 16 18 21 30 30 28 28 28 30 36 33 34 25 38 32 35 31 29 27 28 28 28 30 31 30 33
13 15 16 18 20 22 24 25 31 31 29 27 22 25 19 13 6 13 18 18 23 27 30 27 28 30 29 26 22 24 48 44 30 29 26 26 29 27 30 29 30 32 31
12 14 16 18 19 21 23 26 29 31 29 25 23 19 22 19 12 7 5 21 21 23 25 26 28 30 27 26 27 26 29 29 27 25 23 24 27 28 30 29 31 35 34
12 14 16 17 19 21 23 24 26 30 29 27 26 24 20 17 11 7 14 6 19 18 18 23 33 25 27 32 29 23 27 25 24 24 23 21 24 26 29 30 32 35 38
11 13 15 16 18 21 22 22 24 26 28 29 28 25 23 20 17 16 8 10 6 18 25 21 28 31 33 31 31 29 24 24 24 24 25 27 27 29 31 31 34 34 34
11 13 15 16 17 19 20 21 22 23 27 28 28 28 27 25 23 22 16 7 9 6 11 20 25 25 26 24 23 24 24 24 23 24 24 26 28 28 28 26 25 30 33
13 14 14 15 17 17 18 19 19 24 27 28 27 28 27 27 26 24 22 20 16 11 3 6 14 16 26 27 25 24 25 23 22 22 23 26 27 24 23 21 22 21 24
11 13 13 14 19 18 18 18 23 26 27 28 28 28 28 28 27 28 27 25 21 19 15 9 8 10 17 20 25 25 22 20 19 18 18 18 18 20 17 14 15 18 23
10 12 14 15 18 22 21 23 26 27 29 28 27 26 27 29 30 29 30 28 26 26 24 22 19 16 17 14 11 16 16 16 14 13 13 19 15 14 13 12 14 19 22
12 13 14 16 17 18 23 27 26 27 25 25 26 27 28 28 29 29 29 30 30 30 31 31 28 26 25 21 16 11 11 10 10 10 9 7 9 8 9 11 12 17 20
14 14 15 17 17 18 18 23 27 25 23 24 25 26 26 27 26 27 29 29 30 31 32 32 33 34 32 28 24 23 17 11 8 8 7 6 3 6 8 9 12 14 17
13 11 13 14 17 19 19 20 20 20 21 22 24 25 27 26 27 28 27 28 29 30 31 31 32 31 30 29 26 26 23 19 20 18 15 14 10 8 8 13 13 11 11
12 12 13 16 18 18 19 19 18 17 18 18 19 20 24 25 28 28 28 28 28 27 27 26 26 25 25 25 23 23 22 22 22 17 18 17 15 14 15 14 13 14 15
12 12 13 14 16 16 18 20 20 18 17 18 18 19 20 21 23 26 28 28 27 23 21 21 21 20 20 20 17 17 16 17 15 14 13 16 17 18 17 16 17 16 16
11 12 13 14 15 16 18 19 19 19 18 17 17 19 17 17 17 17 21 23 24 21 18 17 16 16 14 12 10 10 10 9 8 8 11 14 14 13 13 13 14 14 13

GFSMW_850_spd_108.txt.gz
Wind_Speed
18 14 9 6 2 4 5 7 10 12 14 15 15 16 19 19 22 28 33 31 36 38 37 37 39 42 42 41 42 37 36 33 29 24 22 27 24 24 24 22 23 23 22
16 13 8 4 3 6 9 11 12 14 15 16 18 24 28 30 29 28 28 34 40 38 40 38 40 45 47 46 45 41 37 36 29 29 27 22 26 29 25 22 21 21 20
18 12 7 4 5 7 11 13 15 17 17 17 20 21 24 30 29 34 38 34 39 46 43 41 41 46 35 25 40 38 36 36 32 31 23 11 16 15 24 26 24 24 23
14 11 6 5 8 10 11 13 16 18 18 20 22 24 28 30 30 27 28 33 34 42 44 48 48 47 40 42 30 33 36 33 34 29 35 25 7 10 8 20 25 24 24
13 9 6 8 9 11 13 16 18 18 20 21 24 26 29 32 35 33 40 34 33 45 45 48 46 47 44 51 42 36 35 37 30 27 29 30 28 20 14 12 18 24 27
14 8 9 11 13 14 15 19 21 22 21 22 24 27 30 32 36 36 37 45 40 36 49 48 45 43 39 43 45 46 43 48 30 21 22 27 34 35 28 19 11 16 22
15 9 12 14 15 17 19 23 25 26 24 25 25 26 29 30 32 35 38 39 47 40 34 44 42 41 40 41 47 46 48 33 32 27 29 35 34 36 33 26 21 16 19
14 11 13 15 16 19 21 26 27 28 27 27 27 25 26 27 27 30 34 38 48 40 29 39 37 34 37 40 47 42 43 36 30 25 22 39 34 36 31 29 28 17 19
15 13 13 15 17 19 21 25 28 29 28 27 28 26 24 26 24 24 26 34 37 43 29 35 31 29 35 41 44 42 41 38 42 34 26 40 38 33 33 34 31 27 17
15 14 14 15 16 18 19 22 27 31 30 28 27 28 25 25 25 23 19 21 25 27 32 32 29 28 34 40 43 36 41 38 34 35 32 37 36 32 32 33 33 29 27
14 14 15 16 18 20 21 25 27 32 33 30 28 27 27 23 25 23 20 19 22 27 32 34 31 30 33 34 41 41 40 40 33 35 34 36 34 29 27 28 27 25 25
17 17 17 18 20 21 24 26 29 30 33 32 30 29 26 24 23 22 21 16 16 24 28 34 32 32 34 35 37 39 36 35 32 29 32 33 34 28 25 26 26 24 25
15 16 18 19 20 22 22 26 29 30 32 30 30 29 26 23 24 19 16 17 15 26 29 28 29 28 29 36 39 42 39 36 30 23 31 27 31 28 25 28 25 24 25
15 16 17 18 19 21 21 25 27 28 30 30 30 30 29 26 24 21 16 16 14 14 21 17 23 21 28 31 36 41 40 33 33 26 26 26 25 21 26 27 25 23 23
15 16 16 18 18 19 23 23 25 27 27 29 30 31 29 27 25 24 18 11 14 14 10 20 20 23 23 24 28 34 33 34 28 32 22 23 21 19 23 21 23 25 25
13 13 14 16 17 20 22 22 24 25 26 28 30 30 30 30 29 27 26 20 13 14 10 3 15 13 23 23 23 25 25 25 23 26 27 24 24 21 19 19 21 25 27
11 12 13 16 18 20 19 21 22 23 26 28 30 31 32 31 31 30 27 26 23 15 12 8 5 9 15 25 25 25 28 26 23 29 32 27 25 24 23 24 27 28 30
11 12 13 16 21 19 18 20 21 24 26 28 30 32 33 33 32 32 32 30 28 26 22 17 14 5 2 20 23 25 29 31 28 27 23 24 22 20 23 24 25 24 27
11 13 13 14 20 23 22 23 24 26 28 30 30 31 30 31 32 34 36 36 34 33 32 28 24 21 16 10 5 19 24 23 24 22 20 20 19 21 22 20 18 18 19
12 12 13 14 18 22 27 29 29 29 30 30 30 27 27 29 31 32 33 34 36 37 35 35 34 32 27 21 16 6 14 20 17 14 13 15 14 15 17 17 14 13 12
12 12 14 18 18 19 22 24 29 29 28 28 28 28 27 28 28 29 31 32 34 35 37 38 38 38 36 32 26 22 15 15 14 13 9 5 7 11 10 12 12 13 13
14 15 17 19 19 19 20 25 25 25 25 26 26 29 31 30 30 29 29 30 32 34 36 36 37 36 36 35 33 30 27 24 22 22 20 17 12 6 2 3 7 10 11
15 15 15 14 15 17 19 22 23 21 21 23 25 26 26 29 31 31 31 31 31 32 32 32 33 33 32 31 31 29 29 28 27 25 24 20 18 16 15 14 9 5 6
13 12 12 14 16 17 19 21 19 19 19 21 21 24 27 27 28 30 32 32 33 30 29 29 28 26 26 27 25 24 23 23 23 22 19 20 19 19 18 18 17 15 11
10 10 11 13 15 16 17 18 19 17 18 20 21 20 20 21 25 27 29 31 33 31 29 27 24 24 24 22 18 19 20 19 17 16 16 18 18 19 18 19 18 17 18
9 11 13 13 15 17 18 19 20 18 18 18 19 20 19 19 19 19 22 25 27 27 26 26 24 22 19 16 15 14 13 12 12 11 14 16 16 17 14 15 15 12 14

GFSMW_850_spd_111.txt.gz
Wind_Speed
31 27 20 15 9 5 5 7 10 11 12 12 13 16 21 24 26 28 36 34 28 30 38 40 41 40 52 50 44 45 43 39 38 32 26 26 25 23 23 21 23 26 25
29 24 17 11 6 3 5 8 10 12 13 14 15 16 19 22 25 30 31 32 34 35 34 43 45 43 40 49 51 49 43 40 40 35 30 21 24 25 28 24 27 26 25
38 30 22 15 9 4 8 12 15 16 16 17 19 20 21 22 25 25 28 36 38 37 35 37 46 48 46 45 46 46 40 39 29 31 26 11 13 23 31 31 31 28 28
37 31 25 18 11 8 10 15 16 16 17 19 20 21 24 27 28 30 30 30 36 46 42 37 38 49 48 44 44 46 40 35 41 29 35 27 13 14 10 26 31 29 27
35 29 23 14 8 7 12 16 16 16 17 18 19 21 24 26 29 32 36 34 34 40 43 38 32 45 51 48 50 47 47 39 46 42 43 43 21 16 15 11 25 31 29
31 26 20 11 12 9 12 19 21 21 21 20 20 21 24 25 29 31 34 37 35 35 42 44 32 38 48 48 51 49 45 48 53 46 52 48 47 37 24 22 19 25 21
30 24 21 16 15 15 19 23 24 23 24 23 22 23 23 25 28 28 30 35 36 35 35 41 38 34 41 44 44 47 46 48 46 48 49 44 37 38 38 30 23 24 21
30 24 20 17 17 17 20 23 26 26 27 25 23 23 23 25 27 26 27 30 31 33 35 34 41 37 34 37 37 46 47 49 47 47 39 36 33 31 35 33 34 20 24
26 23 20 18 17 19 21 24 27 27 28 27 26 24 23 24 26 26 25 27 27 31 32 29 35 39 28 41 43 44 44 42 47 49 45 40 35 34 36 32 35 31 20
23 20 21 17 17 19 21 23 26 27 29 28 27 27 26 24 25 27 26 27 27 28 26 23 26 34 32 37 39 42 43 43 45 38 39 38 41 37 27 29 32 27 29
22 19 15 14 16 18 20 25 27 28 30 30 28 28 28 25 23 24 23 24 25 25 24 28 26 31 34 35 40 43 42 38 42 43 47 51 44 42 34 29 30 30 31
15 14 14 15 18 21 23 25 27 27 27 28 28 27 27 26 25 24 23 22 23 21 18 19 24 29 30 34 39 38 41 40 42 33 43 42 42 43 32 25 28 30 30
18 18 19 21 22 22 23 23 24 26 25 26 27 27 27 27 27 26 25 23 21 20 19 19 22 22 24 34 36 35 38 38 41 39 34 32 31 29 34 30 33 27 29
23 22 22 22 20 20 22 22 24 24 26 26 26 26 28 28 27 26 25 23 21 18 14 17 23 26 21 22 28 33 34 32 35 27 31 25 27 24 40 35 31 29 30
21 20 20 19 19 20 21 22 23 24 25 26 26 27 28 28 28 28 26 24 21 18 16 14 9 4 12 26 35 25 28 30 33 29 28 26 21 20 21 26 26 25 28
12 12 13 18 20 21 21 21 22 23 23 25 27 28 29 30 32 32 31 28 27 24 19 16 13 10 4 23 27 24 34 33 30 32 24 19 18 20 19 18 23 26 26
12 14 16 22 22 21 21 21 21 22 24 25 27 28 28 32 34 34 35 36 35 31 29 28 22 17 13 5 18 19 27 25 26 31 27 23 24 21 22 23 20 22 24
16 15 16 20 24 22 23 23 24 25 25 26 26 28 30 31 32 35 36 37 37 39 38 37 34 29 27 18 13 13 19 23 25 27 26 25 22 22 22 23 22 23 26
11 14 12 15 17 21 25 26 27 27 28 29 27 28 29 31 32 34 36 37 38 40 41 42 42 40 35 29 20 9 10 14 21 16 18 21 21 23 22 20 18 19 22
11 12 12 12 15 19 19 26 26 26 27 31 30 29 29 30 32 32 34 34 36 38 40 42 43 43 43 38 32 26 19 19 18 16 10 9 13 17 21 17 16 18 18
10 10 13 16 15 17 21 20 26 23 24 24 25 27 29 31 30 30 31 31 34 35 37 39 41 43 43 41 39 36 33 30 26 26 24 19 11 5 10 13 13 15 14
12 10 11 13 14 14 17 20 19 19 16 22 26 27 28 30 30 29 29 30 31 33 34 35 37 37 38 38 38 37 35 32 32 29 26 26 20 15 11 6 5 5 8
13 11 9 9 12 14 14 16 18 18 17 17 21 24 27 29 30 31 32 33 33 33 34 34 33 33 32 32 31 32 31 30 28 24 22 22 19 19 22 18 12 7 3
11 7 9 13 13 12 13 15 13 14 17 20 21 22 24 26 28 31 34 35 37 34 33 33 33 31 30 30 28 26 25 23 21 20 21 21 21 21 22 19 19 15 12
9 9 12 15 17 15 17 16 17 16 17 20 23 23 24 25 27 29 31 33 34 33 31 31 30 30 31 28 24 23 21 19 17 15 15 17 19 21 20 19 18 17 16
11 12 13 14 15 15 16 18 20 23 20 22 26 26 25 25 26 26 26 27 27 30 30 23 24 27 23 23 22 21 19 16 13 12 17 19 18 18 17 17 15 13 14

GFSMW_850_spd_114.txt.gz
Wind_Speed
30 32 31 26 21 15 10 5 5 8 11 13 14 17 21 21 22 25 28 29 30 29 27 32 34 35 38 41 44 40 42 45 43 40 36 35 33 29 25 24 24 25 25
20 27 24 20 16 14 10 6 2 4 9 13 15 16 18 21 22 23 25 29 33 34 34 34 34 36 37 41 44 43 45 42 42 43 36 27 32 30 29 29 28 26 24
22 21 21 20 14 12 10 8 7 7 8 11 16 17 18 19 21 22 24 25 29 35 38 40 38 36 34 38 42 45 42 46 43 38 22 22 11 22 31 33 31 31 30
20 28 23 20 17 15 12 10 7 8 10 12 15 18 20 23 24 25 26 26 25 29 35 42 44 41 36 37 40 43 42 41 45 38 30 19 7 8 10 31 36 36 35
22 24 25 20 17 15 15 13 11 11 13 13 15 19 20 22 24 26 28 27 27 26 27 33 41 46 43 37 38 44 45 42 44 44 41 36 39 41 33 26 30 42 42
27 25 23 18 17 15 14 16 16 17 16 17 17 18 21 22 23 25 27 28 28 27 25 24 29 36 42 39 40 44 46 46 45 47 48 39 46 48 45 38 34 33 35
28 28 24 22 20 20 20 20 19 16 19 20 20 19 20 22 24 25 28 30 30 29 25 24 24 28 34 39 37 40 46 47 46 44 47 46 51 47 42 38 30 29 32
29 27 25 22 22 23 21 20 19 19 20 20 21 21 21 22 23 23 25 27 30 30 28 29 30 30 28 36 40 32 41 47 42 40 34 43 55 59 49 47 40 27 31
20 25 23 22 23 22 20 20 20 20 21 22 22 23 23 24 24 23 23 24 27 31 32 31 33 32 29 29 38 34 36 40 41 40 43 51 60 53 46 43 45 43 24
22 20 20 22 21 17 17 20 22 23 22 23 23 24 23 23 24 25 24 24 24 27 29 30 32 32 29 28 32 36 35 42 45 45 47 49 51 50 43 42 41 40 37
15 18 17 16 17 18 20 22 21 22 23 24 23 23 24 23 22 23 25 25 24 26 26 27 29 28 28 28 30 34 35 33 36 45 45 49 51 50 48 44 39 37 38
15 18 19 20 20 20 20 21 20 21 22 23 22 22 22 23 24 23 24 25 24 24 24 25 26 26 23 26 30 29 29 35 35 42 43 47 54 53 49 50 38 33 37
15 16 18 20 19 18 18 18 19 20 20 19 22 22 23 24 24 24 23 23 24 23 21 22 22 23 22 18 22 24 30 32 38 40 47 45 41 47 47 39 32 36 39
12 11 13 13 13 15 16 17 18 20 19 20 23 25 26 26 26 26 25 24 23 21 19 18 18 17 19 19 19 23 25 33 37 43 42 43 41 50 38 40 37 38 49
11 12 14 14 14 17 17 19 20 19 20 22 25 27 27 27 27 27 28 26 24 24 22 18 16 16 17 16 17 20 26 32 46 28 37 33 33 27 38 38 36 37 43
12 13 15 15 17 19 20 20 20 21 22 25 27 27 27 28 29 31 31 29 28 29 28 26 25 22 19 20 15 14 20 20 23 29 30 25 27 30 29 31 29 35 37
9 11 16 19 19 21 22 22 21 21 23 25 27 28 28 29 31 32 33 36 36 32 32 33 34 33 27 25 14 8 10 15 15 20 28 27 29 27 25 28 26 23 27
8 9 12 13 17 17 19 21 23 26 27 28 27 27 27 28 29 31 33 34 37 38 39 39 39 41 37 27 21 16 8 2 12 13 15 22 24 22 28 33 29 26 31
10 9 10 12 12 17 19 22 23 24 27 29 28 27 27 26 27 29 31 32 33 35 38 40 42 44 44 39 30 26 25 22 18 10 4 13 16 23 23 21 27 32 27
9 10 9 10 12 14 18 22 22 23 24 25 25 25 26 27 27 27 28 28 29 31 33 36 38 39 42 44 42 36 33 32 30 25 20 12 7 13 16 17 19 20 23
9 8 9 12 13 14 16 22 20 19 17 17 20 22 24 26 27 26 26 26 27 28 30 32 34 36 38 39 40 40 38 36 34 34 33 29 21 13 4 5 10 12 13
6 7 9 11 11 12 12 15 19 14 13 15 18 21 23 25 26 27 27 28 28 30 31 32 33 35 34 34 34 34 34 33 34 33 30 27 22 22 15 12 9 3 5
8 9 10 10 10 9 8 11 14 13 13 15 18 20 22 24 26 28 30 32 32 32 34 35 35 36 35 32 30 29 28 27 27 25 23 23 25 23 22 18 14 11 6
8 8 9 11 13 12 12 12 10 13 15 17 19 20 22 24 27 30 32 35 37 33 33 34 35 34 36 36 32 29 25 24 23 20 20 20 21 22 22 21 20 19 16
9 10 14 14 15 14 14 13 12 14 16 18 19 20 22 23 26 28 28 31 32 29 28 30 29 32 32 30 28 27 26 23 21 17 16 19 20 20 21 20 20 19 17
12 12 12 12 12 11 11 13 15 15 15 16 18 19 20 21 22 22 22 23 25 26 23 22 24 24 25 24 24 25 23 20 18 17 21 22 22 22 21 19 18 16 15

GFSMW_850_spd_117.txt.gz
Wind_Speed
12 22 23 19 15 13 12 13 12 10 7 9 11 12 15 14 14 18 21 24 28 30 31 31 30 30 33 30 29 33 35 40 43 41 36 42 34 33 35 36 33 32 32
21 19 19 18 11 10 9 8 7 4 1 4 7 8 12 16 16 15 17 20 23 26 30 34 35 33 31 31 30 31 32 37 39 36 35 31 35 42 38 38 36 31 29
23 18 16 15 10 7 8 8 7 5 3 4 7 9 10 13 17 17 17 18 21 24 28 30 34 38 37 35 32 29 30 35 36 37 32 13 15 29 39 37 54 32 27
19 16 17 16 15 15 11 9 9 8 7 6 8 11 13 16 16 18 20 21 21 21 22 26 29 33 37 38 37 34 34 33 35 36 38 39 29 10 13 36 23 39 35
18 18 18 17 16 15 13 12 12 10 8 8 10 13 14 15 18 20 21 21 22 20 20 21 23 27 30 34 37 37 36 37 40 38 33 35 41 40 28 25 31 31 41
19 18 18 16 17 14 16 14 14 14 12 12 12 12 15 17 18 20 22 23 23 23 19 20 20 20 23 27 31 34 38 38 40 44 41 40 41 39 35 32 34 43 48
24 23 25 26 20 16 20 19 20 18 18 17 16 15 16 17 18 19 22 23 24 24 23 22 22 22 22 25 27 30 37 35 38 43 44 45 45 43 42 42 40 44 46
18 21 22 24 22 20 18 19 20 19 18 18 18 17 17 16 17 18 20 22 23 24 24 25 25 25 25 27 29 29 34 37 36 40 43 44 44 45 47 49 43 36 41
15 18 19 22 23 24 25 22 20 19 20 20 19 18 18 18 18 17 17 19 21 22 23 25 27 28 27 27 27 27 27 31 36 38 40 42 43 46 49 47 49 42 30
10 12 14 15 17 20 19 19 19 21 19 19 18 18 17 17 18 18 18 19 21 22 22 24 26 27 27 26 25 26 27 27 34 36 36 39 41 43 45 47 49 49 46
9 9 11 13 15 15 16 18 18 20 20 20 20 20 20 20 20 20 20 20 20 21 23 23 25 27 27 26 26 25 27 25 33 35 36 40 40 41 42 45 46 49 46
8 10 12 11 11 14 17 17 17 18 19 19 20 21 20 20 21 22 21 21 20 20 21 22 23 23 26 26 25 24 24 24 27 34 38 35 33 42 44 46 47 48 49
8 10 10 9 10 15 16 17 18 18 18 20 21 22 23 23 24 24 24 22 21 21 20 19 20 21 23 26 27 24 21 22 28 30 32 36 34 41 42 49 51 49 50
7 10 11 14 17 17 16 16 15 16 17 19 22 23 25 26 28 27 27 26 26 23 21 22 22 21 20 21 22 22 20 18 23 24 31 35 34 36 36 39 43 43 40
6 9 10 12 13 11 13 14 15 17 19 21 23 23 24 25 27 28 30 29 27 27 27 27 27 26 24 26 23 20 16 19 21 27 29 30 32 36 42 40 40 41 41
5 6 7 8 11 13 15 16 16 17 19 20 22 22 24 25 24 27 30 31 32 33 32 33 35 36 32 27 25 18 17 13 12 21 25 33 39 40 44 45 37 30 30
7 6 5 7 9 12 14 17 18 18 21 22 22 22 23 23 26 27 28 31 33 34 35 36 38 40 41 35 28 24 21 20 16 8 12 14 20 27 40 31 38 40 40
7 5 6 7 9 10 11 13 16 19 22 23 22 22 22 23 23 24 26 28 30 33 34 35 38 40 41 40 37 31 29 26 27 21 16 9 6 8 29 31 31 33 37
8 7 6 6 7 9 11 13 17 18 20 21 23 24 24 22 22 24 26 27 28 31 33 34 35 38 39 40 40 38 37 35 35 31 27 23 15 21 9 13 19 24 29
6 5 5 5 5 9 9 13 15 16 17 19 21 22 23 24 24 25 26 26 27 29 31 33 35 34 36 37 38 39 38 37 38 38 36 31 25 23 15 8 9 10 13
6 5 5 5 7 8 10 12 13 16 15 15 17 19 20 22 23 25 24 25 27 28 30 32 33 35 35 35 34 35 36 36 35 36 37 36 31 26 21 15 10 9 5
7 5 6 6 8 6 7 11 15 12 12 14 16 19 21 22 24 26 27 27 28 30 33 34 34 33 34 34 33 31 31 31 32 33 32 31 30 29 27 26 20 13 9
9 8 7 7 6 5 6 9 13 12 12 14 17 19 21 23 25 29 30 31 33 34 35 35 35 34 33 33 32 31 30 29 29 28 26 25 26 27 27 27 24 22 19
9 9 9 9 10 9 9 11 11 12 13 15 17 19 21 23 26 28 31 33 33 32 31 34 33 33 33 35 34 32 30 28 27 25 23 23 23 24 24 25 26 27 25
11 11 11 12 13 12 11 10 10 10 14 15 16 18 19 21 23 25 27 28 27 26 26 28 29 31 33 30 27 28 30 27 26 22 21 22 25 26 26 25 25 25 24
12 12 11 11 11 9 10 11 11 11 12 14 16 17 18 19 19 20 21 22 23 24 24 24 26 28 27 27 26 26 27 24 23 22 25 27 27 27 27 27 26 25 24

GFSMW_850_spd_120.txt.gz
Wind_Speed
6 6 9 8 6 5 5 5 7 7 7 10 11 12 12 13 14 15 17 19 20 22 24 27 27 26 25 24 23 26 29 32 40 39 36 45 50 41 33 29 31 35 29
13 13 13 10 9 7 5 2 1 2 2 3 5 7 9 10 9 9 12 15 17 20 22 24 27 29 30 28 26 25 22 24 22 37 37 31 43 58 55 45 38 35 29
16 15 16 17 14 13 12 11 8 4 3 1 2 4 6 7 8 10 11 11 14 17 20 22 24 26 29 29 29 28 27 27 26 25 25 9 14 26 42 46 58 46 39
20 19 18 19 18 18 15 14 14 15 16 10 8 4 4 6 8 11 15 15 13 15 16 19 21 23 25 26 27 27 30 29 30 31 32 33 27 15 14 30 44 55 55
21 21 19 20 21 21 17 16 16 9 19 20 16 13 11 10 11 12 13 16 15 15 15 15 17 18 20 21 24 26 27 30 33 33 34 34 35 38 31 24 31 38 44
20 22 24 23 23 22 19 18 17 14 12 18 19 18 17 13 14 15 15 16 17 15 15 15 14 15 16 17 19 21 24 27 32 36 34 37 35 36 36 35 32 36 36
12 14 18 21 24 25 23 21 21 22 19 18 17 17 16 15 16 17 18 19 19 17 16 16 15 15 15 16 17 20 23 23 28 35 38 41 41 40 37 43 40 37 41
12 14 14 14 14 17 19 13 12 15 19 20 19 18 16 15 16 17 17 19 20 19 18 18 17 17 16 17 18 21 24 25 26 28 35 39 41 42 42 45 41 37 39
8 10 11 12 13 13 14 15 16 16 17 16 17 18 18 17 18 17 18 18 19 19 19 19 18 17 16 16 19 21 20 23 25 27 26 36 39 44 43 45 46 45 32
6 9 11 12 13 13 12 13 13 16 16 17 18 19 19 18 17 16 16 17 19 19 18 18 18 18 18 18 18 21 20 22 23 25 25 31 38 40 41 43 46 46 48
4 8 11 11 11 12 13 13 14 14 14 16 16 17 20 19 20 20 20 20 19 19 19 20 20 19 20 18 18 19 19 21 20 22 23 28 33 37 39 38 39 44 46
3 8 11 11 11 13 12 13 14 15 15 16 16 18 17 19 21 22 22 21 20 21 21 21 21 19 20 20 22 22 21 18 17 19 23 26 33 34 36 37 39 39 42
2 8 8 11 11 12 11 12 14 13 14 15 16 19 21 21 23 22 22 22 23 22 22 22 23 23 24 24 23 21 21 16 15 16 16 23 29 35 37 37 38 39 40
3 7 7 9 10 11 12 13 13 15 15 17 19 20 22 24 25 24 24 25 25 25 25 26 29 29 27 27 27 24 20 16 13 13 16 14 20 28 32 34 37 35 37
3 6 6 8 9 11 12 12 12 12 13 15 18 22 22 22 22 22 24 26 27 30 31 32 34 36 35 34 32 28 24 21 17 13 12 14 20 25 26 34 37 32 33
4 5 6 7 10 12 12 13 12 13 14 16 19 19 18 19 20 21 24 25 27 29 33 35 37 39 40 36 34 31 28 25 23 22 18 16 16 21 29 33 35 37 33
6 4 5 6 7 9 9 12 13 13 15 18 18 17 16 18 20 21 22 24 28 29 32 35 36 37 37 37 36 35 34 32 31 31 29 25 22 18 21 24 32 41 40
9 6 5 4 5 5 8 10 13 13 17 16 16 17 18 18 19 20 22 25 27 29 33 34 34 35 36 34 34 34 36 37 38 38 36 35 32 26 19 12 12 22 30
11 8 5 5 4 3 4 6 8 12 13 15 17 17 19 19 19 21 23 24 27 29 33 34 34 36 36 35 35 34 36 39 40 40 41 40 37 33 25 18 12 8 8
9 8 6 4 2 2 2 4 7 9 13 14 15 16 18 19 20 21 22 24 28 30 30 32 33 33 36 37 38 38 38 39 38 38 40 41 40 36 31 28 22 20 16
10 9 8 6 5 5 4 4 7 10 11 11 13 15 18 20 22 23 23 25 27 29 31 32 34 35 36 37 36 38 39 38 38 39 40 38 36 35 34 33 31 28 20
11 10 9 8 7 5 3 5 10 9 8 11 14 17 18 20 23 24 26 28 30 33 35 35 36 36 37 37 36 35 35 34 35 36 34 32 31 31 31 33 30 28 25
11 10 10 9 8 6 5 6 10 8 9 11 15 17 19 21 24 26 29 31 33 35 37 38 39 38 38 39 38 37 35 33 33 30 27 25 26 28 29 31 32 32 33
12 12 11 10 10 9 7 8 8 9 9 12 15 16 18 20 23 26 29 31 34 34 34 35 36 37 39 41 40 39 36 34 32 31 28 26 27 28 29 30 32 32 32
14 13 13 12 11 10 8 8 7 8 11 13 14 15 16 18 21 24 26 27 28 28 30 33 34 37 39 36 33 35 36 35 32 29 27 29 31 31 32 33 33 32 32
15 15 13 11 11 10 10 9 9 9 10 11 13 13 15 17 18 20 21 22 22 23 25 26 29 30 28 31 33 33 32 30 29 30 33 34 35 35 35 34 33 32 32

GFSMW_850_spd_126.txt.gz
Wind_Speed
10 12 13 12 12 12 10 10 10 9 11 10 7 10 9 5 5 6 9 11 14 16 15 15 17 19 20 20 22 22 23 28 34 35 39 37 31 46 36 32 29 30 38
9 10 12 13 14 13 13 12 11 9 8 6 6 5 7 10 8 8 8 9 11 13 15 17 19 20 22 24 24 23 21 21 22 26 28 24 29 33 45 39 45 50 59
7 10 12 14 14 16 18 17 16 13 10 8 8 7 7 7 8 10 12 13 13 13 14 17 19 20 21 22 23 25 26 20 21 22 21 11 16 22 29 39 44 46 64
6 7 9 11 12 12 12 13 14 14 14 15 14 11 8 8 12 11 15 14 13 15 17 18 20 21 22 21 22 22 23 25 27 21 28 32 26 22 22 22 31 42 51
4 5 8 9 11 11 10 8 10 11 12 13 16 17 14 14 12 13 17 20 17 14 16 16 17 20 20 22 21 21 21 21 22 27 21 26 28 33 30 27 20 23 27
1 3 5 7 9 11 12 12 11 12 11 11 13 15 15 17 18 18 18 22 23 19 16 16 16 17 19 20 21 21 20 21 22 24 23 27 26 24 30 34 33 33 28
1 2 6 7 9 11 12 12 13 13 14 14 13 13 12 12 14 17 23 22 24 20 18 17 17 17 19 20 21 22 21 20 22 24 26 28 28 36 31 27 30 34 34
3 1 4 6 9 11 12 12 12 12 13 13 14 14 15 15 14 13 12 13 18 19 20 18 16 16 16 18 19 19 18 20 22 24 26 29 30 29 27 36 35 35 34
6 1 3 5 7 8 10 12 12 12 13 13 12 13 13 13 13 12 12 11 12 15 15 14 14 14 14 15 16 16 17 20 23 24 27 27 29 32 31 31 33 37 35
7 2 2 4 5 7 9 9 10 11 11 11 12 13 13 13 13 13 11 10 11 11 12 11 13 14 13 12 12 11 12 16 18 20 21 25 24 26 29 29 31 36 40
8 3 1 2 4 5 7 8 9 10 11 11 12 12 13 14 14 14 14 14 12 12 13 14 15 16 15 13 11 11 11 12 13 14 14 17 21 23 25 26 29 32 37
9 5 2 1 3 4 5 7 8 10 11 11 12 13 13 14 13 14 16 16 15 16 18 19 21 23 22 19 16 15 14 13 15 14 12 13 15 16 18 26 29 28 31
10 6 3 1 2 3 5 6 8 9 10 10 11 12 13 14 13 14 14 14 15 17 19 22 24 25 26 25 23 21 19 18 19 18 18 18 17 15 15 16 22 28 25
13 8 5 3 3 4 5 6 7 8 8 8 10 11 12 13 14 13 14 14 15 17 18 20 22 23 24 25 25 26 25 23 22 21 22 23 22 19 18 16 17 20 29
16 11 8 5 5 5 6 6 7 7 7 7 8 10 11 11 12 13 14 14 15 16 16 18 21 21 24 25 23 22 22 25 28 29 28 28 23 20 17 17 18 18 20
15 12 10 9 7 6 7 7 7 7 7 8 8 9 9 11 12 13 14 13 14 16 17 18 19 23 24 23 21 22 23 25 27 27 28 31 32 26 23 17 15 19 18
18 15 13 11 9 8 9 8 7 7 7 7 8 9 9 10 12 12 12 13 15 15 17 19 20 23 24 23 21 23 23 25 26 28 29 30 31 33 30 23 19 18 14
20 17 15 13 11 9 8 8 7 7 7 8 10 10 10 10 11 11 13 14 15 18 19 20 21 22 25 24 23 22 22 23 25 27 29 30 31 31 29 27 26 23 21
21 18 15 14 13 10 9 7 7 8 7 9 10 11 11 10 10 12 14 15 15 17 20 21 23 24 25 26 25 25 24 24 25 26 28 29 29 30 29 28 27 27 26
21 20 18 16 13 11 9 8 8 8 9 9 10 10 11 11 12 13 15 15 16 17 18 21 22 24 25 26 28 28 27 26 25 25 26 28 29 28 28 28 29 30 30
21 21 18 15 13 12 10 9 9 9 9 9 9 9 10 11 12 13 14 15 16 17 18 18 21 23 25 25 26 27 28 27 26 27 27 28 28 27 27 27 29 29 26
24 21 19 16 14 12 10 10 10 9 8 7 7 9 10 11 12 13 14 15 15 16 16 17 17 19 22 23 24 25 25 25 25 26 25 24 25 25 27 27 27 26 27
22 18 17 16 13 12 10 11 9 8 7 6 7 8 9 10 12 13 14 14 15 15 16 16 17 19 21 23 25 25 24 24 23 23 23 23 25 25 27 29 29 30 32
20 18 17 16 14 12 12 11 10 8 7 7 7 7 8 10 11 11 13 14 14 14 15 15 17 17 20 24 26 26 27 27 25 24 25 26 27 29 30 31 33 34 33
20 18 17 16 15 13 12 11 9 8 7 6 6 6 7 7 9 12 12 11 14 14 13 14 13 17 19 22 23 25 25 23 22 22 24 27 30 33 35 34 34 33 34
19 18 17 17 16 14 13 11 9 8 7 6 5 6 6 6 7 6 7 12 11 12 14 16 16 13 18 22 22 22 24 25 25 22 25 27 28 29 31 32 32 32 33